GFSGBSN_500_spd_000.txt.gz
Wind_Speed
36 41 40 29 30 29 34 42 42 43 46 43 42 41 25 19 26 28 39 44 50 56 57 66 73 81 80 69 65 64 61 56 57 52 48 45 43 34 29 27 29 24 27 28 27 26 25
35 40 42 36 29 27 34 43 38 41 44 42 42 34 28 20 21 25 27 32 36 40 55 59 71 77 81 71 63 63 61 59 58 51 47 46 38 34 32 31 31 23 28 29 26 28 25
36 39 40 42 30 24 33 39 34 38 43 40 39 36 29 21 16 14 18 27 26 30 43 59 68 75 81 70 70 65 61 60 58 50 47 36 37 38 32 33 31 26 26 30 26 29 25
39 39 41 42 32 25 32 34 29 35 40 44 35 37 28 19 19 12 12 11 19 27 38 44 58 73 79 73 76 64 64 60 58 51 45 40 41 37 35 36 31 27 26 29 29 27 26
41 39 42 43 32 28 29 31 26 30 34 38 38 33 31 18 16 5 9 6 7 18 26 34 45 70 73 82 74 65 63 60 54 51 46 46 42 41 38 37 32 30 25 29 29 27 24
39 38 40 43 30 26 27 26 25 28 31 33 33 32 27 21 13 7 2 4 8 9 21 31 33 65 73 72 72 66 61 62 56 51 50 49 44 44 42 39 32 24 29 30 29 26 25
38 38 38 42 29 24 26 22 23 31 31 30 33 32 25 19 10 11 6 5 1 10 14 24 36 54 60 68 73 67 65 60 59 57 53 50 50 48 41 34 27 34 30 31 27 27 27
38 36 35 40 27 22 24 24 19 29 29 27 27 23 28 17 15 11 10 10 5 11 13 19 29 41 55 67 70 69 65 63 62 57 55 54 50 43 35 34 32 35 33 27 27 26 26
35 35 31 37 28 21 23 24 20 24 25 29 22 21 22 27 28 26 15 2 7 11 11 21 30 44 57 66 63 65 64 63 58 58 53 52 45 37 37 36 37 36 33 29 27 25 26
33 33 28 34 34 20 21 23 25 19 21 28 24 27 26 32 31 27 25 24 18 14 13 35 41 36 48 48 51 58 57 57 60 57 55 51 44 50 46 41 40 33 30 31 29 26 29
31 31 26 30 33 20 20 22 20 16 18 24 23 27 28 35 29 18 21 25 28 23 25 35 40 41 42 44 52 49 43 53 55 58 57 55 55 52 48 37 32 27 29 31 29 25 28
30 29 25 26 30 24 20 19 19 17 15 15 20 21 27 33 32 17 19 18 16 14 16 23 33 38 46 38 51 49 42 51 51 51 56 56 50 48 43 37 32 29 30 31 29 27 30
27 27 24 22 26 28 20 17 18 15 13 10 12 21 23 29 31 23 14 14 15 22 27 22 39 41 43 38 53 49 49 47 48 54 52 51 48 50 44 36 34 31 33 34 32 31 29
23 26 23 20 24 25 24 18 16 12 15 9 10 11 21 24 31 15 11 11 22 32 32 30 29 28 46 53 48 55 55 47 43 44 43 45 49 42 39 36 31 30 33 32 29 29 30
21 24 21 19 20 23 24 19 16 11 12 12 8 9 12 16 24 16 16 12 19 30 26 23 36 32 40 40 50 48 45 46 47 42 45 40 39 39 34 32 33 33 31 30 28 29 28
20 21 20 17 16 22 22 21 16 10 8 12 6 11 12 12 16 16 17 16 21 19 16 22 32 41 42 36 41 47 44 44 45 37 39 38 34 34 33 34 34 30 28 27 26 27 27
21 18 20 15 14 19 21 21 15 10 5 7 11 9 8 8 14 15 16 13 12 14 18 18 29 33 26 42 40 51 49 49 48 41 39 35 34 35 35 33 29 28 26 24 24 23 20
22 18 18 15 12 15 19 20 15 11 5 5 10 7 7 7 10 16 11 13 15 16 17 25 30 32 37 42 40 45 45 48 39 37 42 38 34 33 30 29 29 26 25 24 21 17 15
22 18 15 16 9 11 17 17 14 15 9 6 5 5 7 6 10 18 17 16 16 16 22 19 21 31 36 35 35 37 38 41 34 32 32 32 32 32 33 31 28 25 23 21 19 17 16
24 18 16 16 8 10 16 13 14 16 13 8 3 3 10 10 13 18 14 13 12 20 16 17 20 27 33 34 36 37 41 37 32 31 31 30 29 25 22 19 21 21 21 20 18 16 17
25 20 18 16 11 7 15 12 13 14 15 9 3 2 13 11 11 14 15 14 15 21 23 17 19 20 23 25 36 37 35 34 31 30 28 27 24 22 23 23 22 21 21 20 17 21 19
26 25 20 18 14 8 13 12 9 12 18 15 6 3 12 13 9 8 12 12 14 15 17 19 18 16 13 17 28 32 32 32 31 34 30 23 24 20 20 21 19 19 20 20 20 22 20
30 27 22 20 16 11 10 15 6 10 20 20 12 7 7 10 11 10 13 12 13 13 13 16 15 17 17 16 17 22 23 27 30 33 35 37 31 32 28 23 21 23 21 21 21 21 20
33 29 24 20 19 12 10 15 8 9 23 23 19 11 6 6 13 15 13 12 14 15 21 20 19 20 17 17 17 18 19 20 16 20 18 16 16 16 18 17 21 21 23 22 22 21 17
33 30 27 22 21 15 13 14 10 7 23 24 24 17 12 7 13 15 15 15 15 20 19 18 16 17 16 15 14 14 14 13 13 13 13 14 16 17 18 19 20 21 21 19 19 21 22
33 30 30 26 22 19 16 16 15 9 19 24 25 24 20 14 12 14 17 18 20 19 16 16 14 11 10 10 9 8 10 11 14 15 17 20 21 21 20 20 19 19 19 19 22 24 24
33 32 32 29 24 22 19 19 18 16 14 27 26 29 26 24 20 18 20 21 22 22 17 13 13 14 13 11 8 8 9 10 13 14 17 17 17 16 16 16 17 18 19 22 24 26 30
36 34 33 30 26 25 23 22 22 20 19 18 29 32 31 28 28 25 24 24 26 25 23 18 14 13 13 13 12 12 13 14 16 21 20 19 19 18 18 18 20 19 23 27 28 31 34
40 36 34 30 28 27 26 26 25 24 23 22 21 28 35 33 32 31 28 27 29 29 30 27 22 18 16 17 18 17 17 17 19 20 23 22 21 21 22 23 23 27 29 30 34 37 40

GFSGBSN_500_spd_003.txt.gz
Wind_Speed
36 35 32 35 37 38 40 28 30 32 31 30 35 41 40 39 41 38 30 36 42 42 41 45 53 63 71 81 73 68 63 58 58 59 54 50 45 38 33 30 31 30 28 27 30 26 24
35 35 34 35 38 38 35 27 35 30 28 32 36 39 42 39 39 27 22 27 42 34 39 46 40 59 68 79 70 70 65 62 60 55 54 52 41 35 36 34 31 31 30 27 26 27 24
35 36 36 35 38 39 32 30 36 28 27 32 36 38 42 36 38 24 18 21 27 38 35 47 46 47 65 66 70 71 67 65 62 55 51 45 43 42 36 36 33 29 29 26 21 29 24
33 36 36 34 37 38 30 31 31 27 31 35 34 35 40 33 35 24 19 17 16 28 36 37 43 41 61 64 70 73 67 65 64 57 51 46 46 41 39 36 34 30 29 26 25 26 25
32 34 34 34 36 37 30 31 32 30 36 33 32 35 37 26 31 26 23 13 10 16 27 35 35 39 53 64 69 71 68 66 63 56 51 50 50 44 40 39 36 34 28 24 27 24 27
31 32 33 34 34 35 27 31 34 28 32 30 30 31 31 22 26 22 20 14 9 5 20 25 32 43 56 59 64 71 67 67 63 58 52 50 51 45 44 43 35 30 23 28 26 25 26
29 31 31 33 33 35 26 29 30 28 27 31 26 27 24 21 14 17 12 13 6 3 12 21 28 40 46 56 66 71 69 66 64 61 57 55 54 49 43 35 32 29 30 28 27 24 23
28 29 30 32 31 34 26 28 29 28 24 27 30 30 26 32 16 9 12 9 12 4 3 13 23 28 27 54 65 70 70 64 65 60 58 56 53 41 37 38 34 32 30 27 27 26 24
26 28 28 30 31 32 28 26 28 27 24 27 30 31 28 37 23 16 10 13 9 8 9 14 14 26 29 55 62 67 65 61 62 61 56 55 48 41 39 39 32 32 28 27 25 24 23
25 26 27 28 31 31 32 26 26 28 23 25 29 36 37 37 28 18 15 8 11 13 14 19 21 33 41 56 60 65 66 61 61 59 54 49 44 41 40 38 32 34 28 28 30 25 23
25 26 26 26 30 29 31 27 22 26 24 20 21 29 35 37 27 14 14 18 14 7 6 19 24 35 43 57 58 63 61 58 53 54 59 53 48 44 40 29 31 21 27 30 30 29 28
27 26 24 25 27 27 30 29 20 25 23 25 18 22 28 33 32 18 7 12 13 8 3 17 25 39 45 57 57 59 55 54 54 51 52 50 47 43 33 33 31 29 29 33 31 32 30
27 26 24 24 25 25 28 28 21 21 23 26 19 19 23 29 27 13 10 11 10 1 2 13 28 40 52 56 52 48 53 58 54 56 53 51 46 40 38 43 40 36 34 32 31 32 25
26 26 26 23 24 25 24 26 23 15 20 22 17 16 20 19 27 19 11 7 5 7 15 29 31 45 61 60 54 50 46 45 52 52 52 53 51 43 45 43 37 33 33 30 30 30 27
26 24 26 21 25 24 22 23 23 13 16 15 13 13 15 14 21 20 10 7 8 18 18 21 28 37 47 51 53 43 37 38 47 50 50 47 44 43 41 39 35 34 33 30 31 31 30
27 25 24 22 22 21 22 21 21 13 11 10 12 11 12 12 16 12 12 6 22 18 20 21 21 35 40 54 53 38 39 42 36 34 38 39 39 41 40 39 41 37 31 33 32 30 29
29 27 24 23 19 18 21 18 20 14 9 9 12 10 8 9 6 15 14 2 9 13 16 20 17 22 37 57 44 39 38 37 33 35 38 38 37 40 39 37 32 30 32 32 29 29 25
31 30 26 23 18 16 20 16 17 14 8 6 12 8 7 9 6 10 3 7 9 8 17 23 24 30 30 39 38 43 41 35 35 32 34 39 36 37 33 32 32 31 30 29 28 23 21
34 32 28 25 19 17 17 18 15 13 6 7 7 3 6 6 8 12 8 7 11 15 14 27 33 33 28 30 45 35 44 37 36 36 37 40 37 36 37 36 32 29 27 26 24 20 17
35 34 29 26 23 17 16 20 13 13 5 9 5 1 6 8 7 13 12 7 8 12 14 20 27 31 28 32 38 41 41 36 39 35 35 36 37 34 30 25 24 25 24 23 23 19 16
36 36 30 27 28 18 17 21 13 14 7 12 9 6 9 8 8 10 14 13 9 10 14 16 19 25 29 28 30 38 36 34 38 31 32 35 33 29 28 27 29 26 25 24 22 21 24
36 37 31 30 29 20 20 21 16 11 10 13 11 9 13 9 4 7 13 15 15 14 13 13 17 24 22 25 28 31 32 37 36 32 28 28 28 28 28 30 28 27 26 26 25 25 24
36 35 34 34 31 23 20 23 18 12 13 17 16 10 13 11 6 6 10 9 10 14 16 13 9 14 19 23 28 33 36 36 30 26 26 27 28 28 26 27 29 31 27 25 25 26 26
37 37 34 34 30 26 20 24 19 13 18 20 20 14 9 10 10 9 8 8 11 12 13 15 16 11 11 15 33 35 36 36 36 37 38 32 31 28 26 27 31 27 27 29 28 26 25
42 38 36 35 29 26 20 23 20 14 18 24 22 19 12 10 13 10 9 7 9 12 15 15 15 16 16 11 23 30 30 29 33 33 36 38 35 31 31 33 34 31 26 25 24 22 21
43 40 38 35 29 26 21 24 21 16 17 25 24 23 17 11 15 12 12 14 19 22 20 20 21 20 19 19 17 17 15 16 15 12 12 14 16 22 21 19 20 24 23 24 25 26 22
42 41 38 33 31 26 22 25 23 18 17 24 24 24 24 17 14 15 15 18 22 21 19 18 17 16 14 16 14 14 16 16 16 17 18 19 22 22 23 24 24 23 24 26 27 21 24
41 40 37 34 32 27 24 26 26 20 22 21 26 24 27 24 20 16 17 20 24 24 20 18 19 17 16 17 13 11 11 12 11 14 17 19 20 21 23 20 18 19 21 24 23 25 27
41 39 36 36 32 28 26 28 29 25 23 24 23 27 28 27 27 25 22 24 25 26 25 21 19 18 16 17 15 15 13 15 17 18 18 20 20 19 21 20 20 22 24 25 27 29 32

GFSGBSN_500_spd_006.txt.gz
Wind_Speed
26 30 31 33 33 32 34 34 35 29 30 33 28 30 34 37 41 43 40 38 44 44 36 44 48 43 54 66 67 73 71 64 63 59 58 55 53 45 39 35 36 31 30 32 32 30 25
27 29 32 33 32 32 35 38 33 28 31 28 32 33 33 35 39 40 36 40 37 34 34 40 40 41 45 57 61 72 74 68 66 60 58 57 51 41 41 39 36 32 35 36 30 28 26
29 30 32 33 32 33 33 38 30 27 32 32 35 32 33 35 38 37 36 35 32 30 33 36 39 44 45 41 64 71 74 70 69 62 56 51 47 46 41 39 35 37 36 33 28 27 30
29 31 32 33 32 32 32 36 30 28 33 31 31 33 31 36 36 37 35 31 29 28 33 34 37 40 40 47 59 68 72 70 69 63 56 52 50 47 43 42 38 37 33 30 28 33 30
30 31 32 34 33 32 31 35 32 29 33 30 30 30 34 37 36 34 31 27 25 28 27 26 32 33 42 41 51 62 69 70 71 64 58 53 51 50 47 43 40 38 31 30 31 33 27
30 31 32 33 33 33 30 32 35 30 32 27 29 32 36 39 35 30 27 25 23 29 22 23 26 34 30 38 46 59 69 72 70 65 60 56 51 53 50 45 45 31 30 29 32 30 27
30 31 32 34 33 33 30 30 36 29 30 30 30 32 40 41 35 26 25 24 23 23 18 15 17 22 27 35 47 58 68 71 69 66 63 58 55 57 48 35 32 33 37 31 33 33 25
31 31 31 35 33 33 31 29 35 29 29 30 31 32 39 41 36 21 15 17 20 22 21 11 18 24 26 29 47 59 68 69 68 66 63 59 55 44 38 38 38 36 34 30 31 30 25
33 31 32 35 34 33 32 28 31 30 27 28 32 28 34 28 33 22 13 11 18 16 16 9 13 20 24 26 45 58 64 69 67 66 63 59 49 43 42 40 36 32 30 27 29 29 23
33 33 33 34 35 32 33 28 29 32 24 27 30 33 34 34 30 20 15 10 18 14 13 13 8 18 24 28 46 58 62 66 65 64 60 56 48 42 41 39 34 30 25 29 29 27 23
34 34 34 34 34 32 33 29 28 31 22 24 32 28 24 29 33 27 22 14 13 13 23 17 15 13 28 28 46 59 60 64 58 60 63 58 49 51 43 36 30 22 27 27 29 26 25
35 35 35 33 33 31 31 29 27 30 20 20 28 22 24 29 33 30 25 21 19 11 18 6 16 18 30 37 49 56 62 62 57 61 58 56 49 42 38 32 25 30 30 28 30 29 29
36 34 35 33 31 31 28 28 26 28 16 17 23 22 18 25 31 29 21 19 19 18 13 9 11 26 31 44 52 55 61 61 54 61 59 53 49 45 36 35 33 33 32 28 28 27 21
37 34 34 34 30 29 28 25 24 26 14 14 19 22 20 19 22 24 16 14 16 13 6 12 17 32 41 51 53 57 61 59 55 52 53 55 55 49 45 36 35 32 29 23 25 24 23
40 34 34 33 29 28 28 22 21 24 14 11 16 22 21 17 19 25 15 8 13 3 4 8 23 35 48 37 44 50 53 56 54 51 52 52 48 42 37 34 33 31 34 28 25 26 24
42 36 34 33 29 26 27 23 18 22 16 10 13 22 21 16 17 26 13 1 4 4 10 10 21 47 55 53 50 48 50 51 47 49 46 44 44 44 38 37 40 37 30 31 30 28 25
44 38 34 33 31 25 26 24 17 20 17 9 10 18 16 14 12 17 21 4 8 8 11 13 32 42 47 50 48 50 51 48 42 43 44 41 40 39 38 38 37 35 32 30 29 29 26
44 40 35 33 32 24 26 23 17 17 16 9 7 14 8 9 12 18 21 9 7 10 12 15 29 32 34 47 44 38 33 32 32 33 36 39 36 37 38 38 38 37 33 30 32 30 26
44 41 37 33 33 25 25 22 19 15 16 10 4 13 5 6 7 7 12 9 11 11 14 15 23 29 33 44 38 32 26 26 28 27 31 34 39 37 37 37 39 33 30 30 29 27 25
42 42 39 34 33 26 25 23 20 14 15 10 5 7 3 5 4 7 7 9 3 7 10 17 23 22 38 40 29 25 33 27 28 24 27 34 36 37 36 26 26 27 25 25 27 27 24
45 42 40 36 33 29 25 22 21 14 15 11 8 7 7 5 5 5 6 8 4 5 10 17 23 24 26 39 27 30 29 30 28 28 26 26 33 31 31 33 33 29 28 29 29 24 27
43 44 41 39 35 29 25 21 22 18 14 12 12 10 12 5 1 7 8 10 7 10 13 17 20 21 19 25 31 27 25 29 24 29 28 26 34 30 28 31 30 31 31 30 29 26 26
48 44 43 39 35 32 24 21 23 21 16 13 16 12 17 11 4 2 6 6 11 13 14 17 20 19 20 20 25 33 31 27 22 27 24 22 29 30 32 31 30 32 31 28 27 26 26
52 48 43 40 36 33 25 21 23 21 17 15 21 16 16 16 10 7 5 6 10 13 14 12 16 16 16 18 21 28 31 28 28 31 27 27 30 31 27 28 31 27 27 27 27 26 25
50 47 42 40 36 32 27 22 23 21 18 17 25 20 16 15 14 12 8 7 11 9 14 14 13 17 11 15 26 26 27 30 32 32 31 26 26 24 25 26 25 25 28 27 28 27 28
52 49 43 39 35 32 28 23 24 22 19 19 28 25 19 13 17 14 11 9 14 16 14 14 16 15 16 19 19 21 23 29 33 33 31 27 28 29 30 30 29 25 26 25 29 31 26
58 51 46 39 35 33 29 25 25 22 20 20 30 29 24 18 17 17 14 14 16 18 19 20 19 21 20 16 18 27 24 19 18 17 21 29 34 30 32 35 35 30 26 30 31 26 23
58 51 47 42 38 36 31 28 27 24 21 22 30 32 29 23 18 20 19 19 21 20 19 20 20 19 19 18 19 20 17 16 18 18 20 20 23 23 23 22 24 21 24 27 26 27 27
51 54 49 47 43 38 33 30 30 26 24 25 27 33 33 29 24 20 18 19 24 22 20 19 18 16 16 17 16 15 16 15 15 16 18 20 21 19 21 20 20 20 21 23 24 25 26

GFSGBSN_500_spd_009.txt.gz
Wind_Speed
26 25 25 26 28 29 31 34 32 33 33 26 27 28 27 31 30 34 35 36 38 42 45 47 50 54 61 67 58 65 65 68 68 70 63 60 60 57 51 42 40 36 33 36 33 28 28
26 26 27 28 29 30 31 35 33 32 32 25 30 26 28 31 29 32 34 37 40 43 44 45 44 49 51 53 53 59 64 66 73 72 67 63 60 56 49 45 43 35 38 38 35 31 30
28 27 27 30 30 31 32 36 33 31 32 28 31 30 28 28 28 32 37 40 45 42 42 38 40 44 44 48 50 54 58 65 73 73 68 63 58 55 51 46 41 41 41 39 32 33 30
31 29 28 30 32 32 33 36 35 32 31 28 30 29 27 28 29 35 36 38 39 35 38 39 37 40 47 37 41 46 52 61 68 74 69 66 59 54 52 50 44 43 40 36 31 34 34
34 32 30 31 32 33 34 36 36 33 32 29 29 28 27 31 32 35 35 40 31 31 35 39 34 38 38 26 38 40 39 56 63 71 69 66 59 51 55 51 46 44 37 34 36 35 34
37 33 32 32 32 34 36 36 37 33 32 32 30 29 29 29 32 36 37 34 24 26 31 33 33 35 23 24 36 40 35 54 58 66 70 67 60 55 54 53 52 44 32 33 32 36 35
37 36 33 33 33 34 36 37 37 34 32 34 30 29 30 31 39 38 35 31 24 23 27 30 34 28 22 23 35 39 40 54 58 64 69 66 61 55 50 51 40 35 35 34 34 37 33
39 37 34 33 34 34 36 37 38 34 31 34 30 28 30 32 34 33 31 31 23 20 26 28 28 20 24 29 34 42 44 54 57 63 68 66 62 52 42 44 40 37 37 35 34 32 31
40 38 35 35 34 34 36 37 38 33 30 33 29 27 27 26 30 31 29 28 24 25 25 27 25 16 22 31 30 40 44 51 56 62 66 65 58 48 43 45 43 38 35 33 34 34 31
41 40 37 36 35 34 35 36 37 33 29 32 26 25 23 22 28 33 35 27 24 24 28 23 20 13 22 28 26 39 43 50 56 61 62 61 45 49 42 42 40 35 30 34 35 33 30
43 42 40 38 36 34 34 36 35 32 28 30 24 23 24 22 27 32 35 26 23 24 28 25 19 14 18 24 27 39 44 52 54 60 61 58 53 46 42 36 35 31 33 36 34 30 28
45 44 42 39 38 34 32 35 34 30 27 25 23 21 23 26 25 29 34 27 27 26 28 21 19 13 22 27 22 37 46 51 51 57 55 54 41 46 37 35 34 35 36 34 29 29 26
46 44 43 40 39 36 31 33 32 28 26 23 22 18 22 28 27 27 31 22 24 25 22 14 9 19 30 24 26 41 46 53 44 58 56 41 52 43 37 35 37 38 36 33 30 29 23
47 44 43 42 39 36 31 31 31 25 26 23 21 18 21 28 23 28 34 16 11 16 17 7 9 22 29 30 28 43 48 49 29 56 53 53 53 47 40 41 41 39 34 31 28 25 26
50 45 45 44 39 36 31 30 29 24 26 23 20 18 20 25 21 25 31 11 10 11 16 15 7 26 24 35 36 47 51 56 50 54 51 53 51 50 47 35 34 34 34 31 28 25 25
50 46 45 44 40 36 31 28 27 23 25 22 18 15 18 19 19 22 25 14 11 7 14 12 8 23 32 36 39 49 54 57 54 49 52 48 48 52 46 38 36 38 31 32 31 27 21
48 46 47 43 41 35 31 27 26 22 23 20 16 13 15 15 13 20 22 9 5 5 8 3 11 26 39 40 45 50 53 55 51 44 48 46 44 46 43 41 34 32 33 30 28 28 24
48 46 46 42 40 36 30 26 24 22 22 19 15 11 9 11 12 17 19 13 3 4 7 14 35 21 27 37 42 47 52 52 47 39 40 41 44 44 42 38 35 35 32 32 31 28 25
51 49 47 41 39 36 30 25 24 21 20 17 14 9 4 7 8 12 18 10 5 5 7 20 30 21 34 23 38 38 43 44 40 37 36 35 37 42 45 44 42 40 37 36 32 28 28
52 46 42 39 38 36 31 26 24 20 19 18 14 11 2 4 4 7 8 8 3 8 12 18 23 22 29 32 33 35 36 35 33 28 30 34 36 36 35 33 32 33 32 30 30 32 27
63 55 48 39 36 35 32 27 23 20 18 17 14 12 6 3 3 4 7 7 3 8 6 15 22 27 26 30 32 29 32 32 28 28 28 33 36 37 36 35 35 35 33 33 32 27 29
63 58 54 45 39 36 32 28 23 20 18 16 15 14 11 9 4 4 8 7 7 8 6 15 17 17 34 34 22 20 26 21 22 23 24 27 28 31 35 35 36 32 32 34 32 31 28
62 60 55 46 37 35 31 28 23 20 19 16 17 14 15 13 7 6 3 2 8 13 10 16 19 17 34 37 23 23 23 20 21 17 19 18 18 19 26 28 30 36 30 30 29 28 25
62 56 45 44 43 38 32 28 24 22 20 17 18 16 17 15 12 7 6 4 9 10 15 16 20 20 21 32 30 28 26 24 24 21 23 20 20 22 27 27 27 24 26 27 27 27 26
54 57 50 44 41 37 33 28 25 23 22 18 19 18 19 17 17 11 7 7 7 13 14 13 16 19 20 21 26 30 29 27 25 21 21 27 30 25 28 27 23 22 22 23 24 25 26
49 58 58 56 42 37 33 30 25 24 23 19 21 20 23 20 18 16 11 9 12 13 15 17 20 16 23 15 15 18 25 28 28 26 26 29 23 20 22 26 26 19 18 19 22 24 24
44 54 56 53 44 38 34 31 26 27 24 21 22 22 27 22 20 19 15 14 16 16 16 19 19 15 18 17 14 24 24 24 21 22 24 23 26 28 30 25 24 23 22 24 23 23 27
42 51 55 49 43 40 33 31 28 28 25 23 23 23 30 26 22 21 19 17 19 20 19 19 19 19 22 20 18 18 18 16 12 13 15 22 23 22 23 26 25 24 29 30 31 29 28
43 49 54 49 44 39 34 32 29 29 27 26 24 24 31 30 25 23 22 20 22 20 20 22 23 21 18 17 17 18 17 15 16 16 16 16 15 14 19 19 20 20 24 24 25 29 29

GFSGBSN_500_spd_012.txt.gz
Wind_Speed
30 28 27 26 25 24 25 27 28 29 30 32 32 35 30 26 25 30 30 32 31 33 37 40 43 45 47 46 48 51 53 53 58 61 60 58 61 61 56 56 52 45 39 38 39 40 35
32 31 29 27 27 26 27 29 29 29 31 31 33 36 32 29 27 32 32 32 31 36 38 40 44 46 45 44 44 51 54 59 59 62 64 61 59 62 60 58 53 44 42 41 44 41 36
38 35 32 30 29 29 29 30 30 30 31 32 34 36 33 30 28 30 31 32 34 36 40 42 44 38 34 35 43 50 57 64 63 59 62 64 61 61 62 58 54 48 46 46 46 41 36
42 41 38 34 32 31 32 32 32 32 31 32 34 36 33 32 31 31 35 34 36 39 40 40 35 28 30 37 44 48 52 51 55 59 66 68 64 67 65 61 55 52 50 51 43 39 34
45 44 43 39 35 33 33 34 34 33 33 33 35 38 35 33 31 33 36 39 41 39 38 34 33 31 34 39 47 51 51 61 62 63 61 71 71 69 64 63 58 56 52 48 43 37 39
45 45 44 43 39 36 35 35 35 32 33 34 37 38 35 32 32 31 35 40 36 36 33 34 33 35 35 39 47 47 46 42 50 57 63 69 71 70 66 62 64 59 53 44 40 39 38
48 45 45 44 43 39 37 36 35 33 33 34 38 38 35 32 30 32 32 32 36 34 34 36 35 35 36 38 44 40 34 38 39 48 58 57 68 72 64 56 57 55 43 41 38 41 39
54 48 43 44 44 41 38 37 35 34 33 34 38 37 35 28 30 29 31 31 37 39 38 33 35 36 35 36 37 33 33 36 31 43 50 56 65 66 58 57 51 50 46 42 42 39 37
54 53 45 45 44 41 40 37 35 34 32 34 38 37 35 26 30 30 32 35 37 38 35 35 37 37 34 34 29 28 32 33 29 47 40 53 63 65 64 41 54 53 47 43 37 35 36
57 53 50 45 44 42 40 38 35 34 32 32 37 36 33 26 27 30 31 34 37 32 35 39 36 35 33 29 21 30 31 33 33 50 25 52 62 66 56 50 44 48 45 41 36 35 37
54 52 53 45 44 42 40 39 35 34 31 31 37 34 30 28 26 27 34 31 33 28 36 37 33 27 29 19 18 26 30 35 43 47 25 55 58 61 49 50 42 43 44 40 37 37 33
57 57 51 45 44 42 41 38 35 34 31 30 34 31 28 28 29 29 31 33 32 29 36 33 33 26 23 15 22 23 28 34 45 44 24 47 51 50 47 39 43 47 43 39 35 34 32
57 58 53 46 44 43 42 39 35 33 31 28 33 28 27 29 29 29 28 32 30 24 26 28 19 22 17 18 22 21 29 39 38 48 48 49 41 50 48 41 45 45 41 37 35 35 29
47 56 53 49 43 45 42 38 34 32 29 27 31 25 26 27 26 24 29 34 24 17 20 27 23 15 16 23 21 22 40 49 32 47 51 55 43 49 53 40 45 46 41 38 35 29 29
46 51 54 49 42 44 41 36 33 31 28 26 28 22 24 23 21 22 27 28 15 15 18 14 12 15 21 24 21 30 44 27 30 53 49 54 49 44 48 47 40 42 42 38 33 29 29
41 50 50 50 43 43 39 33 32 30 26 24 25 20 21 20 16 18 24 16 11 14 14 14 5 12 17 21 19 38 46 33 40 57 44 41 47 43 57 41 39 38 36 34 32 30 28
47 47 56 51 44 42 38 32 31 29 24 23 23 18 19 18 12 16 18 14 8 10 10 12 8 12 22 22 33 43 42 35 46 50 47 43 44 51 41 43 39 44 40 35 32 31 30
48 48 52 48 46 42 36 32 30 28 23 21 20 16 16 14 12 7 14 11 8 10 11 4 12 19 25 23 39 47 44 37 43 48 42 39 40 48 47 45 30 34 36 30 33 31 28
49 48 53 44 45 41 34 32 30 27 22 19 18 13 13 12 4 7 16 12 5 7 6 10 14 21 26 20 34 42 43 40 40 44 42 40 42 43 43 45 43 46 30 26 25 25 28
50 51 48 43 44 39 33 32 30 27 22 18 17 13 11 11 4 3 10 9 2 1 8 11 15 17 14 19 31 36 43 31 36 31 37 40 38 41 41 41 38 31 31 28 28 31 29
52 51 51 48 41 38 34 32 30 27 22 18 16 12 11 11 7 5 8 4 4 3 2 7 12 14 14 17 28 31 37 37 36 34 26 32 35 36 37 36 39 39 39 39 37 32 32
53 51 54 48 46 38 34 32 31 26 23 19 16 13 10 14 9 2 5 2 5 11 8 6 11 14 15 14 19 24 31 36 32 34 31 30 31 31 31 35 38 40 41 41 39 37 32
51 54 52 48 46 40 37 33 31 27 21 19 17 13 11 16 12 7 4 2 9 9 10 12 15 16 19 25 29 23 25 27 25 23 23 27 31 32 34 35 36 37 40 39 38 37 33
49 49 57 53 50 43 36 34 29 27 24 21 18 14 13 16 16 9 9 2 12 13 11 17 13 15 28 35 34 29 30 28 25 25 22 20 22 27 28 36 38 33 33 35 35 33 32
51 47 49 58 56 45 39 35 31 28 25 22 19 16 15 18 19 14 13 5 12 12 14 18 18 14 32 31 32 30 23 30 25 26 21 20 16 17 20 18 22 23 25 27 29 24 25
57 50 47 53 55 53 43 36 32 29 27 24 20 19 17 20 21 18 14 9 11 13 16 17 21 22 31 39 30 24 23 22 27 24 24 24 23 22 23 15 18 20 20 23 25 22 22
54 51 43 49 56 52 44 39 32 30 29 26 22 21 20 22 21 21 18 12 16 14 13 19 21 25 28 27 25 29 28 29 25 26 22 24 29 25 22 19 20 23 21 22 22 17 19
54 54 45 54 49 44 41 38 35 33 30 28 22 23 21 23 25 22 22 17 17 21 17 21 20 25 25 21 15 23 20 22 25 24 22 20 24 23 26 21 21 23 25 25 24 25 25
53 52 49 55 53 50 41 38 36 34 33 27 25 25 23 24 27 23 25 21 17 23 21 22 20 19 24 23 19 23 25 22 21 19 19 25 22 21 23 20 20 18 19 21 26 30 31

GFSGBSN_500_spd_015.txt.gz
Wind_Speed
38 38 35 35 33 31 30 28 27 27 28 29 29 30 30 31 31 35 35 33 32 32 36 38 41 41 40 40 41 43 46 47 49 50 51 49 52 53 52 57 56 52 47 43 43 43 43
40 41 40 38 36 34 33 32 30 29 29 31 31 31 32 33 32 35 35 35 38 36 36 37 38 39 40 43 44 47 50 52 52 52 53 52 54 57 55 56 59 54 46 46 47 47 46
39 42 44 43 41 38 36 35 33 32 31 32 33 32 33 34 34 36 37 37 37 37 36 36 39 40 44 42 45 48 49 51 51 50 51 53 54 61 60 58 58 57 51 49 50 49 47
44 43 45 47 46 43 41 38 37 35 34 34 34 33 32 34 35 37 40 37 38 39 39 41 44 45 44 42 43 45 46 48 47 47 50 54 57 61 64 62 61 59 57 53 51 49 46
50 49 48 48 48 49 43 43 41 39 37 35 36 35 33 34 36 39 41 37 38 39 41 45 46 47 44 38 43 47 47 46 48 49 52 60 64 66 65 60 59 59 60 53 54 51 46
53 56 55 52 48 49 49 43 44 42 40 38 37 36 34 34 36 39 42 38 36 36 39 39 43 46 43 40 44 46 47 47 47 49 54 61 60 67 67 62 64 58 59 57 54 54 47
51 55 60 56 53 49 49 46 44 45 42 40 37 36 35 34 36 38 44 36 38 38 34 39 44 43 44 42 44 45 47 48 50 53 55 57 65 62 65 58 59 52 57 57 52 50 48
58 54 60 61 55 52 48 48 45 45 43 40 38 36 35 33 36 38 40 39 39 40 42 42 46 43 41 41 44 47 49 48 48 48 47 53 65 71 59 63 60 59 49 53 50 52 47
67 63 60 61 57 54 50 47 46 44 42 40 37 36 35 33 35 37 37 38 39 41 44 45 43 42 39 42 44 45 44 45 40 38 36 40 38 50 61 63 59 59 56 50 51 55 43
65 67 65 63 57 55 56 46 43 43 42 39 36 35 34 33 34 35 35 36 42 47 46 47 45 39 39 40 42 43 39 36 31 29 31 35 41 50 56 63 54 53 52 50 54 50 43
48 63 65 62 57 54 52 47 45 44 41 37 35 33 33 32 34 34 34 38 45 42 47 46 41 35 36 35 36 36 28 28 25 28 31 36 40 48 57 53 53 47 53 52 54 48 44
39 59 56 57 56 53 53 50 43 43 38 35 32 31 32 32 33 35 35 39 44 41 48 44 38 37 39 33 31 33 21 27 26 32 31 45 35 49 60 44 54 49 44 46 52 49 42
59 50 52 51 55 53 51 49 42 41 36 33 31 30 29 31 33 33 33 38 39 41 40 31 30 30 31 26 26 20 19 26 31 33 39 29 45 52 57 59 51 38 55 55 46 48 40
52 47 47 48 53 56 51 47 42 40 34 32 29 28 27 30 31 30 32 33 36 31 20 21 28 28 26 18 17 21 20 26 30 26 18 28 47 53 61 60 51 42 47 44 49 46 37
41 45 44 45 49 58 54 48 41 37 33 30 27 25 25 26 30 27 29 30 29 24 18 18 23 19 14 12 16 18 18 26 29 27 10 48 46 48 56 48 46 49 41 42 44 41 32
47 34 44 41 46 50 53 49 40 35 32 28 24 23 24 22 27 26 25 26 24 21 19 14 23 9 5 13 16 14 22 31 39 33 32 39 36 47 42 44 44 44 47 42 39 35 30
41 50 46 42 40 46 50 48 36 34 31 26 22 22 21 22 23 23 24 21 22 19 19 15 14 9 6 12 10 17 38 32 36 37 38 30 43 47 40 43 50 43 42 39 39 35 28
43 39 52 43 37 43 49 45 35 34 30 25 21 21 20 21 20 20 15 18 19 17 20 13 12 10 8 8 16 25 27 32 42 42 38 26 16 50 50 46 42 38 37 39 34 33 31
61 45 47 46 40 45 47 41 35 34 30 25 21 20 18 18 16 15 12 15 14 13 13 4 9 10 12 13 28 25 21 32 48 45 29 19 30 36 40 46 44 36 29 33 33 33 32
55 48 45 48 44 45 46 40 36 33 31 25 21 20 17 16 16 16 14 15 11 8 8 8 12 14 13 19 32 31 23 30 44 41 27 29 29 35 31 41 37 32 32 33 29 34 31
53 56 43 46 42 46 41 41 37 35 32 26 22 19 15 14 16 18 14 10 10 6 3 5 18 16 11 17 34 35 31 36 30 30 29 33 33 36 38 36 39 37 27 23 28 19 24
50 55 48 45 45 47 40 42 38 37 33 26 22 20 16 14 17 18 9 8 8 12 4 2 7 11 13 17 21 29 26 31 29 33 30 28 28 29 30 29 29 33 34 31 31 28 26
50 53 48 47 52 47 44 42 39 36 30 25 24 21 16 14 18 17 7 4 4 10 11 7 5 8 14 20 22 29 29 22 23 24 20 19 28 28 28 27 29 31 31 36 32 31 32
51 53 53 52 49 43 44 39 39 36 31 28 24 21 17 16 17 17 8 5 9 9 14 10 12 10 17 23 25 27 30 30 28 26 25 18 22 25 29 29 30 29 30 32 36 36 36
54 55 54 55 53 49 46 41 38 35 33 28 26 21 18 17 16 18 14 9 10 12 17 14 16 20 19 28 31 26 25 23 23 26 25 23 23 23 27 29 29 26 26 30 33 30 36
55 51 58 55 54 51 50 45 40 37 33 30 27 22 19 19 16 21 18 10 8 12 16 16 18 15 24 29 36 29 30 28 32 23 24 22 22 20 19 20 17 21 23 26 30 25 27
56 59 55 51 52 50 46 41 39 36 33 32 27 23 20 20 18 20 21 14 10 13 17 16 21 17 27 33 33 28 27 27 25 20 23 22 20 19 15 17 12 15 21 22 21 18 21
61 56 52 51 50 51 50 48 41 35 36 33 29 24 22 21 19 21 21 16 13 16 15 15 18 20 23 33 30 29 24 18 21 20 23 20 20 25 22 23 17 16 19 21 18 22 23
64 54 56 52 44 52 51 46 43 38 37 34 30 25 22 20 20 24 21 20 15 17 19 16 21 18 23 28 32 33 30 29 29 26 24 27 21 22 25 19 21 16 17 20 21 24 27

GFSGBSN_500_spd_018.txt.gz
Wind_Speed
35 34 34 37 38 37 36 35 35 33 32 31 29 29 29 29 28 29 30 32 32 33 35 37 37 35 34 34 31 41 43 42 42 42 43 43 43 43 44 46 47 48 46 47 41 46 47
39 36 36 36 39 41 39 39 38 36 35 35 32 31 31 31 30 30 31 31 33 34 35 39 42 40 39 36 35 39 39 40 42 43 45 46 47 47 48 50 50 49 48 47 46 44 50
40 40 39 37 39 42 44 42 41 39 37 36 37 35 35 32 32 32 33 32 34 35 36 39 42 42 42 32 38 39 43 42 44 46 48 50 53 54 54 53 53 53 53 51 49 48 49
33 41 43 43 43 43 45 47 46 44 42 38 38 39 38 36 35 34 34 32 35 35 38 42 41 44 43 40 43 43 47 48 47 48 50 53 54 54 55 56 55 57 57 52 44 52 47
39 37 38 43 49 49 48 47 48 48 47 44 40 41 40 40 38 36 36 35 35 35 36 42 41 42 43 43 46 49 47 48 50 50 50 51 52 51 51 52 53 56 59 53 49 50 51
48 48 48 47 47 49 53 52 50 49 49 48 44 42 42 41 40 38 37 37 36 38 36 38 41 42 42 42 43 45 46 48 49 49 50 50 50 49 48 51 52 52 57 56 54 49 51
57 58 58 57 56 53 50 55 54 51 49 48 49 42 42 42 41 38 37 39 37 39 38 39 41 40 45 42 44 46 48 50 49 48 48 51 54 51 51 53 50 50 52 53 53 54 53
63 64 67 68 66 62 56 53 55 53 50 48 49 43 42 42 40 37 38 37 37 41 43 40 38 40 45 47 46 46 47 46 44 45 49 53 54 48 51 53 54 57 56 52 50 51 51
72 75 77 76 75 70 64 58 54 55 52 48 47 44 44 41 37 38 36 38 36 40 46 43 40 43 42 45 45 45 43 42 43 46 51 55 47 51 56 57 59 58 57 52 42 44 50
75 71 71 73 74 72 64 62 56 53 51 49 45 43 44 38 36 37 36 37 36 42 46 45 45 38 40 42 39 34 39 41 44 43 45 51 48 53 58 63 62 62 57 54 42 34 51
70 66 59 53 54 58 62 63 59 52 51 53 42 42 43 36 34 35 34 36 36 42 47 42 44 44 36 31 31 31 36 40 42 43 47 43 38 39 45 50 60 63 55 49 42 40 48
63 61 52 56 45 47 55 54 54 51 50 50 42 40 40 34 32 33 34 35 37 41 47 44 40 28 24 25 30 33 36 36 38 35 34 30 30 35 35 41 56 53 53 53 50 34 45
52 50 48 56 52 41 40 41 47 48 49 48 43 38 37 31 32 31 32 34 38 37 39 39 35 25 25 31 33 33 33 35 37 33 29 25 25 31 38 38 57 57 53 36 53 49 48
45 45 46 51 54 39 45 40 46 47 48 46 39 39 33 29 28 30 32 34 35 34 33 32 27 27 25 33 28 22 26 28 24 20 19 24 26 30 31 47 53 58 58 41 42 53 44
37 40 42 46 59 35 45 46 49 45 46 44 39 38 29 27 27 29 31 32 29 30 30 24 25 23 27 21 14 15 21 17 14 15 15 22 22 31 43 51 57 65 45 29 34 51 44
33 34 34 41 52 35 47 42 49 45 44 44 38 34 26 26 26 28 28 27 27 27 27 22 24 22 23 15 7 11 13 12 18 25 20 9 16 36 53 47 42 38 35 34 35 34 42
30 28 33 38 47 47 44 41 45 45 44 42 37 33 26 25 25 26 23 21 20 24 23 22 26 21 17 10 7 9 8 13 20 27 15 18 21 27 51 48 28 40 39 42 26 35 30
25 27 44 37 43 44 38 42 41 45 45 39 36 32 26 24 25 20 19 18 16 20 19 24 20 8 4 7 6 2 6 15 20 20 25 22 14 28 44 38 33 36 38 34 37 30 30
25 34 48 28 45 44 31 35 39 40 45 38 35 31 25 23 21 19 17 12 13 16 16 16 9 7 7 5 5 10 14 18 25 16 18 16 17 25 40 29 41 30 34 33 32 32 28
26 35 50 35 46 41 34 30 27 34 39 39 35 30 23 23 19 18 15 10 11 13 9 9 6 14 15 16 15 15 17 20 24 24 10 17 25 20 40 31 21 27 31 37 36 32 29
29 45 43 45 49 45 39 32 27 43 39 37 35 28 23 20 20 19 18 16 13 11 3 7 11 16 15 18 22 17 10 10 22 29 17 13 15 14 22 39 26 22 15 19 30 25 26
34 50 45 53 53 47 38 31 34 43 40 39 33 27 24 20 21 17 16 10 11 14 10 8 8 16 17 18 21 15 12 15 22 23 15 21 20 20 16 14 30 25 24 21 23 25 24
31 56 43 52 50 50 39 38 35 50 41 37 31 28 25 20 21 16 14 8 9 8 11 7 9 12 18 18 22 18 10 15 9 18 13 14 17 18 18 14 17 23 24 25 20 19 19
34 60 43 52 49 43 32 38 30 49 39 36 31 29 26 20 21 13 13 6 3 6 13 10 8 10 14 18 20 21 17 18 18 13 11 11 12 14 16 17 19 21 22 22 24 26 25
38 56 54 54 47 43 38 31 26 44 39 35 33 30 23 20 19 13 13 7 5 7 14 17 11 12 10 21 23 26 25 23 21 20 18 16 13 9 16 19 19 20 19 20 24 23 29
46 60 59 56 46 42 40 40 35 44 40 35 34 29 24 23 20 15 15 8 7 6 11 18 15 16 15 20 25 26 28 29 26 23 22 21 18 21 21 21 18 17 17 17 19 22 25
48 63 65 57 49 41 45 49 46 40 37 36 34 29 25 22 19 16 15 10 9 7 11 14 16 16 21 20 24 24 24 24 23 20 21 20 22 18 16 14 14 12 16 17 16 18 23
44 56 61 56 49 45 48 37 41 40 38 35 33 29 26 22 20 16 15 15 11 9 12 16 19 20 15 23 27 30 22 17 17 17 21 18 16 14 13 12 13 16 11 14 14 18 20
46 56 58 56 51 50 51 44 47 44 39 35 33 29 26 22 21 17 17 14 14 10 13 11 15 16 15 24 22 27 22 20 18 18 20 14 15 16 17 18 13 14 13 12 17 20 20

GFSGBSN_500_spd_021.txt.gz
Wind_Speed
31 33 37 36 34 32 35 37 37 36 35 36 33 32 30 29 29 28 29 29 28 28 29 30 30 31 31 33 33 36 30 31 33 36 39 40 43 43 42 43 43 40 39 38 35 37 40
31 30 34 38 38 35 34 37 39 40 39 37 37 36 34 33 31 30 30 30 29 29 30 30 31 32 34 30 35 42 37 32 34 36 38 41 41 43 44 45 44 42 40 40 39 37 39
36 32 29 34 41 39 38 37 39 41 42 41 39 37 37 35 35 33 32 32 32 31 31 31 31 33 34 33 37 40 44 38 39 36 36 39 42 43 43 44 44 44 44 42 42 42 40
42 40 37 34 33 41 43 41 41 41 42 44 43 41 39 38 36 35 34 34 34 33 33 34 33 35 33 37 39 40 46 43 41 41 39 42 44 44 44 45 46 47 48 46 47 45 44
46 44 45 45 42 40 40 42 45 46 45 44 45 46 44 42 40 38 36 36 35 36 35 36 36 37 35 36 38 40 43 46 47 46 45 46 47 45 46 47 48 50 51 50 47 46 47
51 52 53 53 53 51 48 47 46 45 48 49 47 45 46 45 45 42 39 36 37 39 38 37 38 39 37 35 37 39 40 42 46 45 45 46 46 45 48 50 49 44 42 46 49 43 50
54 58 59 59 59 60 59 56 53 51 48 49 52 49 45 46 46 44 41 38 39 41 39 39 38 38 37 34 37 38 40 42 43 46 46 44 47 51 45 40 40 44 45 49 48 50 48
60 62 64 64 66 67 68 65 62 58 54 50 50 51 48 46 45 43 42 40 40 41 42 38 39 37 37 37 37 39 40 41 44 46 49 51 50 45 43 45 46 47 48 47 46 45 44
70 70 71 70 71 72 72 71 69 62 59 55 50 50 50 47 44 43 43 39 42 41 44 40 35 37 35 37 41 35 40 43 45 50 52 53 53 42 45 47 50 51 50 47 47 43 42
75 73 70 65 63 64 68 67 62 65 58 57 52 48 49 48 44 41 43 41 41 40 44 42 38 29 31 38 41 38 43 42 46 45 44 49 45 47 47 49 50 51 48 50 50 46 42
72 70 66 61 57 54 58 59 58 49 50 55 52 48 48 48 46 41 41 37 38 40 44 40 37 37 37 39 41 32 36 38 38 37 43 43 43 43 47 43 46 46 47 50 51 47 46
66 62 57 53 50 47 52 53 43 43 47 51 51 48 45 48 44 40 38 38 36 39 42 41 36 37 40 42 38 37 31 33 33 35 41 39 43 45 44 46 50 48 52 51 48 48 55
58 55 50 46 43 43 46 46 45 47 43 41 46 45 44 45 42 38 36 36 37 34 34 35 34 39 43 37 33 33 37 37 37 35 41 40 41 39 39 42 47 49 50 56 53 53 57
55 47 39 35 34 36 44 49 41 43 43 40 41 42 43 40 42 37 35 35 33 30 31 30 34 41 35 32 33 32 29 29 26 24 33 35 35 32 26 30 34 39 41 55 59 57 56
46 34 27 23 25 29 40 56 40 40 40 40 34 40 41 39 37 34 35 32 25 26 26 29 35 36 29 30 30 22 21 20 20 25 26 23 16 21 20 22 36 31 47 45 55 50 46
37 24 14 4 16 20 35 53 42 35 37 39 41 40 40 39 33 34 35 24 20 22 20 30 31 27 29 24 22 18 11 8 10 14 19 18 15 12 11 17 30 34 45 56 68 24 47
28 15 7 5 12 18 35 38 33 36 38 38 38 39 38 35 33 36 26 17 18 17 22 28 22 24 23 15 11 5 6 8 7 13 16 15 9 11 13 17 29 42 53 54 32 17 31
23 9 15 17 25 25 35 29 34 39 41 42 31 40 36 33 36 28 21 17 15 14 22 21 19 17 13 5 5 6 3 4 9 17 19 8 0 18 16 27 45 26 34 33 28 12 32
17 10 15 28 33 34 35 36 33 36 36 36 42 37 35 36 32 26 18 14 12 19 21 12 13 11 7 2 4 3 5 8 14 7 3 12 17 15 31 33 35 24 31 31 30 35 31
14 10 16 38 36 40 50 42 34 39 38 38 39 39 35 36 30 26 18 14 12 15 14 6 8 15 9 5 2 4 4 10 13 6 13 21 20 17 25 20 25 15 30 30 21 32 28
11 15 24 35 42 41 38 33 26 35 35 41 37 39 35 33 28 23 20 13 17 15 8 4 10 16 11 7 5 7 4 8 10 8 2 8 15 7 17 26 13 15 30 22 22 25 24
8 19 31 38 51 47 36 28 33 42 37 36 37 41 35 28 22 20 15 10 17 16 11 7 13 16 16 11 9 8 4 9 3 10 15 16 23 14 13 25 14 8 23 18 28 28 23
10 23 39 33 51 45 47 35 31 29 35 31 40 38 34 29 24 18 13 12 11 15 15 10 10 16 16 14 14 12 8 7 7 6 11 11 12 14 18 11 19 12 9 10 27 19 20
12 27 42 38 56 44 42 37 32 34 32 32 38 34 33 27 23 17 11 15 9 14 11 15 13 13 17 18 18 12 12 11 5 7 9 11 12 11 11 11 16 15 14 12 17 7 11
13 32 48 49 54 48 42 32 34 31 27 42 37 33 31 24 21 17 12 18 10 8 11 18 14 13 12 15 23 21 15 16 16 9 9 9 10 10 10 13 13 12 15 16 17 19 19
14 31 48 55 53 47 43 34 35 31 25 42 36 37 32 24 20 17 13 10 7 2 7 20 16 14 12 13 17 23 23 19 22 14 10 11 9 6 7 8 10 10 12 15 16 19 20
14 33 53 55 58 53 42 38 37 31 24 40 37 36 29 24 21 16 15 10 4 3 5 17 22 15 15 13 13 15 23 26 21 14 13 11 9 6 5 6 9 13 13 13 14 16 19
12 35 54 57 57 45 40 44 36 26 26 45 40 33 28 23 21 16 15 17 6 3 5 18 21 20 17 18 16 17 16 20 19 15 13 12 12 9 9 8 12 14 15 13 14 15 14
12 39 52 56 52 44 43 43 33 28 35 44 36 32 27 23 20 13 15 17 12 6 9 20 19 18 16 15 17 22 18 14 12 14 13 13 9 12 11 12 12 10 11 7 11 13 13

GFSGBSN_500_spd_024.txt.gz
Wind_Speed
43 39 35 32 28 31 38 36 34 35 36 35 33 31 30 29 29 27 26 25 25 27 27 28 27 26 27 28 30 31 24 27 32 33 34 37 46 51 46 43 44 40 39 37 34 34 36
37 39 35 34 30 28 34 38 37 35 37 38 37 36 33 32 33 32 30 29 27 26 27 27 27 28 30 30 33 34 32 27 31 36 35 35 37 44 47 42 44 42 41 40 39 37 38
37 36 38 36 36 32 29 36 40 39 36 38 41 40 39 36 35 35 34 32 31 28 27 28 28 29 30 32 32 33 35 33 31 35 39 38 38 40 40 42 44 42 41 41 41 40 39
45 42 39 42 40 38 36 33 35 43 41 40 39 42 41 41 39 36 35 34 32 31 30 29 29 30 30 32 35 33 35 35 35 35 39 41 42 42 40 42 43 43 43 42 41 42 43
48 44 45 44 47 48 44 40 39 38 44 46 44 42 42 41 42 41 39 37 35 33 32 32 31 32 33 33 36 36 36 36 36 37 39 44 45 45 44 44 44 45 45 44 43 43 45
52 54 54 52 50 51 52 51 49 47 45 44 48 47 46 44 43 43 42 41 38 37 35 35 33 34 36 35 35 36 36 36 37 38 39 41 49 50 49 47 45 44 46 44 46 43 49
51 53 55 58 60 60 58 56 55 55 53 52 50 48 49 49 48 45 42 42 41 40 39 38 37 35 35 35 37 38 37 37 37 38 37 40 47 48 43 45 47 49 49 50 49 50 52
61 61 60 60 62 65 66 65 63 58 56 56 56 54 50 48 49 47 44 42 43 42 40 40 37 38 39 38 36 38 39 40 40 38 43 44 45 43 44 47 49 50 50 48 49 50 52
73 74 74 71 65 60 61 67 68 60 61 57 58 58 56 52 49 46 46 44 41 42 42 38 40 39 39 40 39 35 39 41 40 42 43 43 44 45 47 49 52 51 50 47 49 46 50
80 80 76 71 65 58 55 55 58 56 50 51 54 54 58 56 50 46 45 43 40 39 43 41 44 40 35 35 40 42 43 41 40 40 44 49 48 49 50 52 49 52 46 48 48 49 51
78 69 64 60 56 50 46 48 52 49 44 45 46 42 55 54 50 45 45 42 42 40 44 44 39 34 34 40 44 41 41 41 41 41 45 44 43 46 49 41 42 45 46 48 50 50 53
68 61 52 48 46 43 41 40 47 51 50 36 42 41 46 54 49 46 43 41 41 41 43 39 35 38 39 41 42 39 38 39 38 40 43 43 45 46 44 42 44 46 46 49 51 50 57
59 52 48 42 37 34 31 35 43 49 62 47 37 35 37 42 45 45 43 41 40 43 38 34 36 37 40 41 41 39 36 34 36 40 44 45 42 42 41 42 43 44 46 48 51 56 59
52 50 41 28 17 13 15 25 34 42 46 47 35 37 34 41 41 42 42 39 40 38 31 31 36 37 38 38 36 32 34 33 33 35 36 37 40 37 35 39 37 35 38 46 48 51 52
54 45 24 3 7 7 13 18 30 35 43 41 39 24 37 36 38 40 42 38 35 30 27 32 34 36 34 32 30 32 28 27 25 25 22 24 25 29 32 33 34 34 41 31 43 47 49
53 34 3 13 15 14 8 11 28 47 45 41 36 34 34 35 36 41 41 37 29 23 27 30 30 35 30 25 24 21 17 15 14 10 14 14 18 21 29 32 34 32 30 35 41 43 48
50 26 14 14 12 8 5 18 26 50 49 39 40 46 34 33 37 40 41 30 25 24 28 27 27 28 23 21 13 10 9 8 8 8 11 12 15 23 25 29 30 34 34 37 37 38 43
46 21 19 15 15 14 18 25 40 49 48 44 44 27 41 40 40 33 34 26 25 25 26 25 25 25 20 12 8 8 6 8 11 11 11 11 18 18 15 18 22 21 23 33 40 43 42
44 20 16 18 25 23 22 25 46 47 41 43 45 36 33 37 41 34 28 26 22 24 21 21 22 19 17 8 6 10 9 9 16 17 14 7 4 8 5 8 11 19 22 25 31 46 26
41 18 10 18 27 29 28 38 45 44 42 36 37 30 32 36 34 29 29 22 22 21 16 17 16 18 12 9 7 5 6 10 18 15 10 11 9 9 4 13 14 17 28 35 32 26 6
38 14 13 32 31 29 39 44 48 46 44 43 41 41 31 32 28 29 25 22 21 19 14 16 17 15 15 10 5 5 9 13 9 10 7 10 10 9 12 16 15 8 17 16 20 19 5
33 5 20 38 34 33 37 37 35 29 37 38 39 33 30 30 32 29 26 20 23 22 17 15 18 13 17 8 9 8 10 13 7 6 7 11 19 15 13 11 11 12 8 13 17 13 26
28 6 29 36 37 33 36 37 33 32 39 36 39 28 28 32 30 26 20 22 19 21 21 19 15 14 18 13 9 10 14 10 6 4 9 20 24 24 6 6 8 5 8 13 24 29 28
25 16 37 35 37 45 37 34 30 41 36 36 31 32 31 33 27 22 21 21 18 17 15 19 15 16 16 17 14 14 11 15 5 3 13 14 20 21 18 12 8 11 16 20 17 15 15
23 20 40 40 43 48 39 32 33 41 29 34 29 31 32 29 26 24 22 20 18 12 15 18 17 19 19 19 18 15 14 11 4 8 13 13 12 11 14 13 16 13 14 21 18 14 13
21 19 45 45 49 44 41 32 30 33 32 29 26 23 32 25 28 23 22 18 17 10 13 21 18 15 15 20 21 19 15 12 7 4 6 8 8 7 7 11 12 11 10 9 11 11 10
19 27 43 46 51 43 41 35 28 35 30 29 29 30 30 29 25 22 19 16 9 7 11 24 19 18 16 15 19 21 18 14 11 11 5 3 3 3 4 5 7 8 9 8 11 12 15
17 27 45 45 52 48 42 33 30 33 29 23 21 30 27 28 24 21 16 19 6 5 9 19 25 19 17 15 17 19 22 21 18 16 11 8 8 6 5 5 7 8 11 13 13 14 12
15 22 48 52 54 56 45 37 36 35 29 21 27 34 30 27 23 22 13 16 9 5 11 15 27 22 17 14 14 13 14 17 21 20 16 14 11 8 8 8 8 7 7 9 10 11 12

GFSGBSN_500_spd_027.txt.gz
Wind_Speed
36 38 38 37 35 34 32 28 29 35 37 35 36 37 36 33 31 28 26 25 25 25 24 25 25 25 26 25 26 24 25 26 28 28 30 30 30 32 36 48 52 52 45 43 41 37 35
38 38 39 39 38 35 35 32 30 31 39 37 35 38 39 36 34 31 29 27 26 25 24 24 24 24 25 25 26 24 24 26 27 30 31 31 33 35 35 36 43 51 51 47 43 41 39
38 38 37 34 35 36 36 36 36 31 33 41 38 37 40 40 38 35 33 31 29 28 27 25 25 24 25 25 23 24 25 25 28 30 32 35 34 35 36 36 39 40 48 50 48 44 42
41 39 40 42 39 37 37 37 41 38 35 36 42 40 39 40 41 39 37 35 33 31 30 28 28 27 26 27 24 25 26 28 30 32 33 35 37 39 38 40 41 41 44 46 45 44 44
43 44 45 45 45 45 44 41 40 43 43 40 38 45 43 41 40 42 41 39 37 34 31 31 30 28 27 29 28 27 30 32 32 31 33 35 37 39 39 42 44 44 42 44 46 46 47
49 51 52 53 53 52 49 49 47 45 45 46 44 42 47 47 44 42 41 40 40 38 36 34 32 31 31 30 31 31 30 32 32 32 34 37 38 40 41 40 43 43 45 46 48 48 48
59 61 62 63 63 62 59 56 52 54 51 48 48 50 47 46 49 47 44 41 41 40 39 39 37 34 34 32 33 33 33 32 33 34 38 41 42 42 36 38 43 50 52 52 52 51 50
67 71 73 73 73 71 69 65 59 57 58 54 52 52 53 53 49 50 49 46 44 43 41 40 39 37 36 34 33 34 34 35 36 39 43 44 43 41 40 42 45 49 52 55 55 52 55
70 73 79 79 78 79 72 62 60 56 60 58 54 53 55 57 55 51 46 47 49 45 43 40 40 38 38 38 36 34 37 37 39 42 44 43 42 43 45 45 46 48 50 52 54 52 56
77 85 80 72 67 63 60 56 48 54 57 56 51 47 54 58 59 55 48 48 47 46 45 42 40 40 39 40 41 41 40 41 43 45 47 48 44 43 45 47 48 47 50 54 55 56 57
87 83 70 61 55 50 48 45 42 47 53 53 48 45 46 55 57 54 49 53 47 42 43 42 41 40 38 39 39 39 40 42 43 45 47 45 44 47 49 47 49 52 51 55 56 57 58
88 73 60 55 51 45 39 38 37 39 49 50 54 49 48 46 50 53 55 51 46 44 44 38 36 35 36 37 37 40 43 44 45 46 46 45 47 47 45 45 49 50 51 52 53 57 66
81 64 58 53 40 28 18 19 26 33 44 53 51 38 43 42 38 39 51 50 47 47 41 39 37 37 36 37 38 38 40 43 44 43 45 47 47 48 47 47 48 48 47 50 52 56 65
68 60 57 42 16 8 13 17 14 27 39 53 56 45 42 33 39 42 43 47 49 45 41 38 35 33 34 34 34 38 39 38 39 42 43 45 45 43 43 45 41 42 41 48 52 56 58
63 59 50 17 6 8 13 12 12 13 38 56 57 45 37 42 43 33 41 46 43 39 38 34 32 35 32 31 34 33 33 31 28 21 20 24 27 27 29 36 40 38 39 32 41 44 49
60 57 39 4 9 12 8 6 9 8 38 64 56 49 33 36 34 36 33 39 39 37 31 30 34 32 27 32 29 29 24 16 13 14 20 18 20 21 23 28 30 36 35 36 37 38 42
59 55 34 15 13 7 6 7 11 5 38 63 50 39 40 42 41 38 36 36 33 29 28 33 29 26 29 27 25 20 15 13 15 16 20 23 20 17 25 22 27 36 45 44 40 41 44
59 52 34 17 20 13 15 18 19 9 44 50 38 43 41 40 41 32 31 28 27 27 30 26 24 27 26 24 22 16 18 15 17 18 22 20 24 20 26 27 32 31 31 35 34 33 34
58 51 31 15 18 17 17 26 21 21 45 59 41 33 32 38 32 31 28 25 26 30 25 25 24 22 22 23 13 18 17 19 12 18 23 25 17 18 11 22 22 16 30 34 41 41 35
57 49 30 11 11 17 18 23 24 36 52 43 36 28 29 39 35 24 22 25 28 24 24 23 18 18 20 13 16 13 17 14 11 17 20 18 14 13 13 6 8 11 10 14 17 21 14
57 45 24 8 19 22 19 30 35 45 43 38 26 23 18 33 36 28 28 25 23 23 23 17 15 18 15 16 14 11 11 11 13 15 8 11 14 13 15 10 11 9 10 9 8 9 9
56 43 18 10 19 21 25 37 41 47 42 30 30 24 26 25 26 28 29 24 22 22 17 16 16 14 14 16 14 11 8 10 10 4 5 10 16 7 16 7 5 9 14 9 12 6 4
55 41 11 20 16 27 34 44 45 40 41 32 28 30 23 24 26 28 22 19 19 19 19 21 18 11 14 19 10 11 6 9 8 9 6 12 19 18 9 5 4 8 9 5 2 8 18
53 36 10 23 27 34 36 42 40 40 39 36 24 19 28 22 23 22 20 19 18 17 20 24 23 15 18 18 13 9 12 10 11 3 9 14 16 17 15 8 11 20 24 21 22 20 27
49 30 15 28 28 29 34 40 34 36 32 35 28 28 27 22 21 26 20 20 16 18 21 15 18 19 17 19 17 12 14 6 1 5 10 11 11 9 12 11 17 16 18 21 24 23 29
48 24 22 36 32 35 38 34 26 28 39 32 29 27 21 24 20 25 23 22 19 17 19 17 15 22 21 21 19 16 14 9 5 9 11 10 8 10 9 10 9 8 12 15 15 17 15
49 21 22 41 36 35 32 25 25 37 34 22 20 22 20 26 25 24 23 20 16 17 13 13 20 19 23 23 21 19 15 11 8 5 8 6 4 6 5 4 6 5 4 3 3 3 6
52 21 20 46 44 40 38 28 28 36 33 31 20 18 20 26 23 25 21 18 15 12 10 13 23 18 18 23 22 21 20 16 13 12 6 3 3 2 2 2 3 4 5 6 5 5 4
52 18 21 43 48 43 41 33 31 32 33 30 27 21 21 27 22 23 22 16 12 6 10 13 24 20 18 15 14 16 14 17 16 15 12 6 7 6 5 5 3 5 8 8 6 6 5

GFSGBSN_500_spd_030.txt.gz
Wind_Speed
33 33 33 32 32 30 29 32 28 34 31 32 34 37 35 35 36 34 34 32 29 27 27 28 30 31 30 29 29 28 29 28 26 25 26 26 25 26 26 28 30 35 42 45 43 40 38
33 35 36 35 34 35 33 32 33 30 37 32 32 36 37 36 37 37 36 34 32 29 27 25 26 27 28 27 27 23 24 25 23 23 23 25 26 28 28 27 29 33 35 38 47 47 44
37 37 38 39 42 40 39 37 34 35 30 38 33 33 39 37 36 40 38 37 34 32 29 26 25 25 25 24 24 23 22 22 21 22 24 26 27 29 30 30 31 31 36 38 37 40 49
43 43 44 44 44 44 44 42 41 38 38 36 41 37 36 43 38 39 40 40 38 34 31 28 26 25 25 24 22 21 21 21 23 23 23 25 27 29 31 33 34 35 36 37 37 38 44
50 52 52 52 52 52 51 50 47 44 40 43 42 43 40 41 43 39 40 42 41 38 35 32 29 27 26 25 23 22 23 23 23 23 24 26 28 30 33 35 36 36 36 37 41 41 43
54 56 57 60 62 62 60 58 57 53 46 43 48 48 45 44 46 45 42 41 42 41 38 35 32 30 29 27 26 26 25 25 24 23 26 28 30 31 33 35 37 39 41 42 44 46 48
58 61 64 66 70 73 71 68 66 58 54 47 48 55 53 49 48 49 47 43 40 41 40 39 35 34 32 31 29 27 27 27 27 28 28 30 33 34 35 38 40 43 44 45 45 49 52
63 67 69 74 75 74 71 70 67 60 54 51 51 59 55 54 51 50 47 47 43 42 40 40 38 37 35 34 32 31 30 30 30 31 32 34 34 36 39 43 44 45 47 48 46 46 53
66 70 73 80 78 70 62 53 53 55 51 50 56 59 59 49 51 55 49 47 49 46 43 41 38 37 37 36 35 33 34 34 34 36 37 38 38 40 43 45 47 48 49 50 50 49 50
71 76 80 86 73 61 55 51 44 42 41 44 58 61 62 39 55 55 56 51 47 46 47 43 42 38 37 35 35 36 36 37 38 39 40 41 40 44 47 49 52 52 51 52 53 52 50
76 82 88 81 65 61 51 41 36 35 38 38 53 60 64 66 52 55 49 48 50 47 45 43 43 40 38 37 36 37 38 39 39 38 39 40 43 45 47 48 52 52 52 54 55 56 55
80 87 88 72 64 52 36 24 21 24 32 35 48 55 62 51 47 46 42 50 52 49 49 40 38 36 36 36 37 37 38 37 36 37 40 41 45 49 49 48 52 54 55 57 57 58 62
83 89 83 66 60 27 13 19 21 15 22 31 41 50 54 52 52 45 36 49 48 52 48 41 36 34 33 34 35 34 33 33 34 38 41 44 46 47 49 50 51 52 53 54 58 61 66
84 89 77 63 44 6 7 16 12 20 8 20 34 48 61 45 46 44 46 44 48 51 46 38 40 35 31 33 35 34 31 30 35 40 42 42 38 32 33 36 45 51 43 45 51 56 59
85 88 74 61 25 5 1 5 8 6 5 13 36 55 56 44 45 45 41 35 40 44 40 37 37 32 33 35 36 32 29 32 34 35 31 25 26 26 28 31 33 36 45 41 42 45 48
85 87 70 58 21 11 8 6 7 4 8 25 46 64 41 38 39 44 34 30 27 33 36 36 34 35 35 38 34 28 29 30 28 19 22 23 24 24 29 33 29 28 30 35 45 45 48
86 86 68 57 31 18 16 6 3 11 3 32 56 44 35 45 37 39 37 27 29 26 32 34 34 34 33 32 27 26 26 26 16 18 20 24 23 25 39 35 36 35 35 35 37 45 50
85 84 65 54 33 17 15 2 9 8 11 37 64 38 37 40 32 33 27 23 19 26 29 29 31 30 29 26 25 25 22 18 15 20 22 25 33 34 32 30 27 31 38 40 41 42 45
84 82 61 49 28 4 9 14 4 7 10 41 52 50 26 33 33 33 32 26 23 26 25 27 28 28 25 23 22 21 16 15 13 21 22 24 26 28 23 24 25 21 27 26 39 42 44
82 79 56 42 22 3 16 17 8 6 19 51 51 37 21 28 34 32 26 22 24 25 23 24 24 23 21 18 19 12 11 10 16 17 17 20 18 20 23 25 28 31 24 21 22 25 25
81 77 51 34 15 12 21 17 9 2 27 38 34 30 26 23 33 31 26 23 22 21 21 23 21 16 18 16 12 9 9 12 10 13 17 13 18 21 19 23 24 28 23 19 19 5 4
81 73 47 22 5 13 14 13 11 11 38 37 25 24 27 20 27 26 25 24 17 20 20 19 15 18 16 9 11 12 11 9 7 15 11 16 10 15 18 12 18 19 18 18 19 8 10
81 69 40 11 3 12 13 13 16 40 31 29 20 21 18 18 27 28 24 21 18 18 14 15 19 18 10 8 12 12 10 5 2 8 6 4 13 14 14 17 19 21 11 8 12 11 13
79 66 32 9 3 9 20 27 40 43 33 23 15 19 17 16 23 24 19 15 14 13 13 12 16 17 12 8 14 11 11 4 4 3 2 5 10 14 15 18 24 24 18 12 16 16 22
77 64 24 6 12 21 30 36 38 35 29 21 18 22 13 16 18 21 20 15 18 14 13 10 14 16 18 13 17 13 12 5 4 3 4 6 9 12 14 18 23 27 25 21 17 22 20
74 61 17 24 27 27 30 35 39 31 30 25 16 13 19 17 16 19 19 18 18 13 11 11 15 16 14 18 22 17 13 7 4 6 5 5 6 9 11 14 16 19 20 22 21 25 19
72 61 20 24 37 33 30 33 28 30 30 27 21 17 17 16 16 15 21 18 22 14 10 13 16 16 20 23 23 20 16 13 10 7 6 3 5 6 7 7 8 10 13 14 14 12 13
70 60 26 22 39 33 29 32 28 29 32 30 21 21 20 15 17 13 21 22 18 11 12 14 14 12 20 24 23 21 18 16 14 12 6 2 1 3 4 5 6 4 5 8 10 13 10
69 61 28 14 39 37 34 34 32 28 29 30 21 19 26 16 17 19 22 18 14 9 11 12 11 16 18 22 23 21 20 20 18 18 14 7 4 4 3 2 4 6 4 1 3 4 8

GFSGBSN_500_spd_033.txt.gz
Wind_Speed
33 33 33 34 35 35 34 34 33 30 31 27 32 35 32 33 39 37 35 35 33 32 31 30 30 32 34 33 35 37 40 37 36 35 35 35 32 28 27 26 23 23 23 25 30 33 33
37 37 37 37 38 39 40 37 36 34 31 31 31 35 36 36 35 38 36 36 35 34 32 30 29 29 31 32 33 32 35 36 34 32 32 31 29 28 26 25 24 24 24 26 25 27 33
40 42 43 42 42 42 43 43 43 40 38 33 32 34 39 38 32 40 37 37 37 36 34 31 28 27 27 28 31 32 33 35 33 30 29 28 27 26 25 26 25 26 28 27 26 27 27
45 48 48 49 50 50 49 47 48 48 46 42 37 34 37 41 38 36 41 38 40 37 35 32 29 27 26 25 27 27 30 31 30 28 28 25 23 22 21 24 26 28 28 27 28 30 30
48 50 50 53 54 56 57 58 57 56 54 50 46 41 39 42 43 37 42 39 40 40 37 34 31 28 27 25 24 23 24 26 26 26 25 22 21 22 24 25 26 25 28 29 32 33 34
49 53 57 59 59 59 64 71 73 69 64 53 49 47 45 44 48 43 40 44 39 40 39 35 33 31 30 27 26 24 24 25 23 23 23 22 23 25 25 24 26 28 29 31 33 34 38
52 57 60 61 64 70 73 75 73 70 67 53 50 51 53 51 51 49 47 42 42 37 38 38 37 34 32 31 29 26 26 24 23 22 22 24 24 22 25 28 29 32 35 39 42 43 42
56 59 61 62 68 75 79 77 64 53 50 48 42 57 61 58 53 50 53 45 44 41 40 41 39 37 36 34 30 29 26 24 23 23 23 25 25 27 28 30 34 38 42 45 47 47 51
59 62 64 69 76 84 78 64 58 50 44 42 38 56 65 61 64 52 55 51 43 47 44 40 38 39 38 36 34 31 28 27 26 25 26 27 30 31 34 38 42 44 46 48 50 51 53
63 65 69 77 84 85 69 61 43 31 28 30 34 46 61 60 59 57 53 53 44 46 48 43 40 38 38 35 34 32 31 30 28 29 31 32 33 37 40 42 43 46 47 49 52 55 56
65 68 73 82 89 76 65 43 20 13 21 23 25 37 53 61 57 50 41 35 38 45 45 47 45 39 37 36 32 31 30 30 29 31 33 34 35 37 40 41 45 48 50 53 55 57 58
67 70 77 85 87 65 49 23 15 17 19 22 15 33 46 58 62 42 41 38 37 45 47 41 43 41 38 36 33 32 32 31 32 33 35 35 38 37 38 42 46 50 52 55 57 58 64
68 71 80 87 83 58 34 22 13 8 18 16 10 23 38 50 52 46 41 45 50 49 45 42 34 35 35 34 33 32 31 31 32 33 33 33 33 36 39 43 46 46 43 48 55 60 65
69 73 82 89 78 53 28 25 23 19 16 4 14 13 34 50 57 40 52 40 48 46 40 37 37 35 29 29 28 27 28 29 29 29 29 31 31 35 35 38 37 34 34 36 40 47 55
70 76 85 90 72 48 23 15 14 8 15 16 11 15 34 56 62 43 37 45 41 37 31 30 37 36 30 29 27 26 27 27 23 26 29 31 32 31 29 29 27 30 39 40 48 47 50
69 77 86 90 65 41 17 7 12 8 23 13 7 23 38 52 57 37 35 39 37 27 24 30 34 34 33 33 31 29 28 23 25 26 27 30 27 22 24 25 31 38 36 40 44 50 54
70 77 87 90 59 35 8 5 5 12 16 16 9 32 55 47 47 42 33 36 26 23 22 29 33 35 35 34 32 31 23 24 24 26 28 22 21 18 24 29 33 34 36 40 40 42 47
70 78 88 85 53 28 4 8 6 12 7 10 16 44 52 28 37 36 35 37 26 21 20 29 32 33 32 32 31 25 17 24 25 27 20 22 23 20 19 24 29 34 33 34 41 39 49
70 79 89 77 43 22 16 15 9 11 11 8 28 42 34 32 35 33 38 29 21 20 21 26 30 32 32 30 23 18 21 27 24 19 16 17 18 20 19 26 31 37 36 38 38 36 42
69 79 87 66 35 14 19 17 16 12 3 27 38 29 27 27 27 32 33 29 20 21 24 26 24 24 23 18 17 20 23 25 17 15 10 13 15 21 26 24 27 36 39 42 37 36 29
69 78 84 54 28 8 16 14 12 5 18 41 34 22 24 26 27 31 30 25 17 20 21 20 16 17 17 17 19 20 23 15 10 5 9 10 16 16 12 19 23 26 26 26 30 24 22
67 76 80 45 19 10 11 13 9 13 18 30 25 27 21 25 24 25 22 20 18 21 22 16 15 14 16 16 18 19 16 9 4 4 6 13 8 7 12 15 22 19 19 13 12 3 14
65 73 76 41 13 4 10 4 8 19 32 32 17 13 15 20 26 26 23 21 17 16 17 17 15 14 14 14 15 16 11 10 4 1 5 4 7 6 11 13 23 20 13 11 13 4 7
62 70 73 39 8 6 8 7 25 35 28 20 15 15 14 14 18 22 22 24 14 15 16 12 11 12 15 11 12 13 15 12 5 2 2 4 7 10 14 20 28 18 12 11 7 14 14
61 66 69 36 5 4 10 35 35 26 21 16 16 16 11 13 21 23 22 17 14 18 16 10 8 8 9 14 12 16 18 11 6 7 3 2 5 8 14 22 22 22 19 18 12 13 12
61 63 66 38 4 14 30 38 27 25 24 24 20 17 14 14 19 21 19 15 16 17 15 12 6 10 8 14 17 17 18 13 9 8 4 0 4 8 11 14 17 18 18 15 15 10 13
61 62 64 47 19 20 28 34 36 23 17 16 19 15 13 16 13 18 15 12 15 17 14 13 9 10 10 14 21 20 20 16 15 11 8 2 1 5 6 9 10 10 10 12 8 12 11
62 61 65 52 19 30 31 37 29 23 23 19 14 9 14 12 13 11 16 15 13 20 14 8 11 12 14 21 26 23 22 19 16 13 7 5 2 4 5 5 6 6 5 4 5 7 9
62 62 65 54 11 41 34 37 34 31 28 24 20 16 13 12 11 13 9 17 17 16 9 9 12 9 12 22 25 27 23 21 18 17 11 7 4 6 7 5 4 6 5 4 4 1 2

GFSGBSN_500_spd_036.txt.gz
Wind_Speed
46 37 33 34 35 34 34 33 34 33 33 33 32 32 32 30 33 32 32 34 36 36 37 34 33 33 32 34 36 36 40 40 41 42 43 42 37 39 40 39 35 32 28 26 25 26 27
50 44 38 38 38 37 39 39 39 38 37 38 36 36 34 34 33 35 33 33 39 37 38 34 33 32 31 32 34 35 37 38 39 41 41 41 38 39 40 38 36 31 27 25 25 25 27
51 49 47 46 44 45 44 42 41 42 42 41 41 40 38 37 37 40 35 35 39 37 38 35 33 31 31 29 32 33 37 38 38 40 40 39 38 39 38 37 35 31 28 27 25 25 25
52 49 47 45 46 47 46 48 48 48 49 49 47 46 43 43 40 40 41 38 38 39 39 37 34 31 30 27 29 32 34 35 36 36 37 35 35 36 36 35 34 33 30 28 27 27 28
55 51 47 48 49 53 54 52 55 59 63 63 57 52 49 46 47 45 43 40 39 41 39 38 35 31 30 26 27 28 30 32 33 34 35 34 35 34 32 32 32 30 29 28 29 30 29
60 54 50 50 51 53 57 64 69 72 73 70 65 54 51 51 53 50 48 43 42 41 39 38 35 33 32 27 26 24 24 26 29 30 31 31 31 31 30 29 28 28 27 26 25 27 27
63 57 53 54 56 56 63 70 75 80 67 56 53 51 45 55 60 55 42 44 47 39 37 35 36 35 32 29 27 25 24 24 24 25 25 27 28 27 27 26 26 25 27 30 31 32 34
64 59 57 58 59 64 72 79 81 65 57 47 40 40 40 56 64 57 51 51 46 38 42 40 41 38 35 32 29 27 25 25 24 24 24 25 25 25 24 24 26 27 29 32 36 39 43
68 64 60 62 64 72 80 85 66 49 34 22 20 26 35 52 61 59 57 56 40 41 42 43 39 40 38 35 31 28 26 25 25 25 25 24 24 24 26 27 28 30 33 37 41 45 48
70 67 66 67 70 78 86 72 52 29 16 14 17 14 31 43 54 65 56 52 39 34 40 45 40 39 39 37 35 31 29 27 26 26 25 25 26 27 28 29 32 35 38 43 47 51 53
72 70 69 71 76 83 82 58 36 20 11 14 24 22 25 39 45 67 54 48 38 33 43 42 46 39 37 37 33 33 31 29 28 27 27 27 26 29 31 33 36 39 43 45 49 52 56
74 73 72 74 82 88 72 48 21 17 8 15 15 11 15 30 45 67 55 44 37 43 43 38 44 41 36 35 34 32 30 29 28 27 26 27 28 30 33 35 38 41 43 45 49 52 57
75 73 73 77 86 88 61 37 10 16 14 17 9 10 9 29 55 73 53 47 40 38 40 41 34 42 38 34 33 31 30 28 27 27 27 29 29 30 31 34 37 39 42 46 47 50 54
76 76 74 81 90 81 50 15 10 5 4 20 17 11 7 31 62 58 38 42 46 41 37 34 34 34 39 38 34 32 30 29 28 29 29 28 26 27 29 34 36 36 38 37 42 42 43
78 78 76 84 92 67 40 5 5 10 15 18 23 11 15 45 65 50 52 38 37 41 35 25 30 33 27 34 34 32 29 29 29 27 26 25 23 25 29 30 32 33 34 36 40 45 46
78 78 77 85 88 56 33 9 7 12 17 17 17 7 32 58 70 45 40 32 32 35 29 30 28 30 30 27 26 27 27 26 25 24 24 22 24 24 22 24 28 32 32 36 39 44 49
77 77 78 85 80 49 24 8 6 11 17 17 7 24 41 55 50 40 40 43 29 23 24 23 24 27 32 30 27 27 26 25 24 22 21 23 24 18 18 26 30 30 31 36 41 43 47
76 76 77 85 70 41 14 10 8 14 16 8 15 18 57 67 42 50 36 37 25 27 22 19 23 28 31 31 29 29 27 28 22 20 23 23 23 14 21 23 27 30 33 37 43 44 49
75 74 76 82 59 29 12 15 15 17 11 26 20 21 53 66 36 43 39 24 28 27 20 21 25 29 30 32 31 29 29 25 20 22 21 21 14 15 16 21 28 30 26 36 43 44 48
73 72 74 78 46 19 11 19 14 7 18 24 17 35 39 46 28 33 31 33 28 18 17 16 26 30 30 29 29 25 22 21 22 18 19 14 12 13 16 17 21 25 28 34 39 44 37
71 70 70 73 36 13 16 17 17 24 24 27 33 37 36 31 32 32 28 28 23 16 17 19 22 26 27 25 22 20 23 22 18 16 13 9 10 10 11 11 14 19 24 28 31 28 29
68 68 67 69 33 11 17 16 12 32 32 26 28 30 30 40 39 27 32 22 21 16 17 19 20 19 18 19 20 20 22 17 16 14 12 8 5 5 9 11 12 11 17 18 23 27 21
66 65 64 65 31 9 10 12 33 28 26 26 25 24 24 27 31 32 29 21 14 17 19 19 16 17 19 19 18 19 18 17 16 14 8 5 2 2 7 6 5 12 14 15 21 14 14
63 64 61 62 26 10 8 23 26 25 20 19 16 18 21 24 29 25 24 21 16 18 21 18 17 15 15 15 14 16 17 18 16 12 5 4 0 4 6 9 8 15 14 18 14 10 9
60 62 58 60 22 6 11 28 27 20 19 19 19 14 15 20 20 20 22 18 19 13 19 16 13 11 8 10 12 15 20 19 15 12 9 6 5 4 5 8 9 13 13 14 15 11 5
58 61 57 56 21 4 24 29 28 15 14 20 17 15 15 22 20 20 23 17 13 19 19 16 10 11 10 12 16 19 22 19 15 14 11 7 5 4 4 6 8 7 7 11 7 8 9
56 59 57 54 30 19 27 30 23 18 18 19 15 12 13 20 20 22 17 13 16 20 17 11 10 7 8 12 20 21 24 22 17 15 11 8 4 3 4 5 7 7 7 10 10 11 7
54 56 57 53 42 23 30 29 26 25 19 20 13 10 15 16 17 20 18 15 13 19 20 15 9 10 11 13 20 24 26 21 19 16 11 7 3 2 2 2 4 5 7 9 9 8 10
52 55 56 55 47 15 39 36 35 28 17 15 14 8 15 11 15 17 19 16 12 12 16 11 10 11 9 17 25 29 26 23 21 17 12 8 6 2 4 3 3 2 3 4 7 9 7

GFSGBSN_500_spd_039.txt.gz
Wind_Speed
50 51 52 49 44 41 39 39 37 37 38 39 40 39 37 37 36 35 34 33 31 36 39 37 36 36 36 37 38 38 42 44 45 45 44 41 40 43 45 45 40 37 38 39 36 33 32
53 54 55 55 50 45 44 44 43 42 40 40 41 43 44 40 40 38 37 36 32 32 38 36 36 35 36 36 33 36 38 42 44 45 46 42 41 44 46 46 40 39 39 38 35 33 34
54 54 54 55 52 48 48 48 48 48 46 44 45 47 47 48 44 42 41 39 37 31 37 37 36 36 36 36 33 33 36 39 41 43 44 41 42 41 44 46 43 40 39 39 36 34 33
56 55 57 59 57 54 52 51 51 49 48 52 54 54 55 54 51 47 44 42 40 36 34 36 37 36 37 34 32 33 35 37 39 40 42 39 40 40 42 43 41 41 40 40 39 35 33
57 58 61 63 61 58 56 54 53 57 62 69 68 69 67 60 56 53 48 45 42 42 37 36 37 38 37 34 32 30 33 35 36 36 37 36 38 39 40 40 41 42 40 40 40 37 37
59 61 64 67 65 62 60 58 60 66 72 79 77 67 55 53 53 55 52 47 39 44 42 38 38 38 36 34 31 29 30 33 35 35 35 35 35 37 38 39 38 41 43 41 40 38 35
60 64 67 71 71 68 66 65 70 79 77 64 52 45 37 38 45 53 56 44 44 47 47 39 38 36 36 33 30 28 28 30 32 32 33 32 33 31 34 36 37 37 36 35 34 34 34
62 66 71 74 75 73 73 75 81 76 56 40 31 21 20 26 42 49 56 56 49 49 40 35 39 38 39 35 31 30 28 27 27 26 28 27 26 29 28 28 29 30 30 31 31 33 35
63 69 74 78 80 78 79 86 79 54 36 19 9 15 18 17 40 44 57 60 49 41 43 39 41 40 40 37 34 31 29 27 25 24 24 25 23 22 22 23 25 26 28 30 33 35 37
65 71 76 82 83 81 86 86 63 37 21 11 8 15 26 19 36 39 57 58 48 43 38 40 40 40 40 39 36 33 30 28 25 23 23 22 20 21 22 22 25 27 30 32 36 40 42
68 72 78 84 86 86 92 72 47 28 12 12 16 21 18 17 23 39 66 51 56 44 44 43 41 42 39 41 36 34 30 28 26 24 23 23 21 21 22 25 27 30 32 36 40 44 47
68 73 79 86 89 89 84 58 39 12 8 15 16 14 13 9 19 45 72 54 50 44 38 43 41 42 39 40 37 34 32 29 26 25 23 23 22 23 25 27 29 32 36 39 43 47 51
69 74 80 87 89 93 72 51 9 9 5 8 15 13 9 8 29 55 75 50 49 46 39 34 39 37 39 35 37 35 31 28 27 25 24 24 23 25 27 29 32 35 35 39 43 46 48
70 75 81 87 89 93 61 37 4 7 9 14 17 14 7 10 36 61 59 45 47 44 41 32 30 32 40 34 35 34 31 28 26 26 24 25 27 27 26 30 32 32 35 35 43 46 49
69 74 80 87 88 88 53 13 7 13 16 19 20 10 3 22 39 68 58 44 39 42 35 31 30 26 36 38 32 29 28 28 27 26 27 27 28 27 27 27 30 31 34 37 42 44 49
68 73 80 85 87 80 42 6 13 18 20 21 17 4 10 29 38 62 42 30 41 40 35 28 21 27 23 33 31 29 29 28 28 28 29 26 27 26 24 27 29 33 32 34 35 42 46
66 71 78 83 85 68 33 16 20 24 20 13 18 9 12 28 43 55 36 29 33 35 33 29 20 25 24 23 31 31 30 30 29 28 27 25 24 21 23 27 29 30 31 31 37 45 48
64 70 76 79 81 58 33 25 21 18 13 18 9 4 19 37 43 41 33 30 32 30 26 23 22 21 23 25 24 26 29 28 27 27 24 22 21 19 22 24 28 30 27 34 40 39 46
61 67 73 76 76 49 35 29 13 11 20 15 5 6 29 44 42 30 31 31 27 23 23 22 21 24 25 26 26 24 26 26 26 25 22 21 18 16 20 24 27 22 27 28 35 42 44
59 65 70 73 70 42 32 24 16 16 15 9 7 23 44 41 30 34 27 33 21 20 22 20 21 22 25 28 30 28 29 27 25 24 20 18 14 17 19 22 23 16 20 24 32 36 37
56 62 66 69 66 35 24 16 9 9 12 10 16 38 35 28 34 33 28 24 23 21 17 17 21 24 26 27 27 29 29 25 21 19 16 14 14 17 19 18 18 19 23 24 25 28 32
55 59 62 66 63 32 11 9 8 14 21 23 37 33 30 38 33 27 21 22 26 14 15 17 20 25 27 28 27 25 23 20 21 17 14 14 17 14 15 14 16 16 21 21 18 19 23
53 57 59 62 60 26 5 10 7 14 19 20 34 23 21 27 28 25 24 24 21 10 8 14 16 19 24 25 23 20 19 21 17 16 16 16 12 10 12 12 9 12 10 11 17 17 18
49 53 57 58 56 26 8 15 9 15 16 20 23 25 15 18 21 20 24 18 14 10 9 13 18 19 20 20 19 20 21 17 15 16 16 14 11 9 6 5 6 7 11 14 18 20 16
45 51 54 54 51 33 17 17 13 15 12 14 17 19 23 22 20 18 22 12 9 13 17 18 18 17 17 18 17 18 16 15 17 19 16 11 11 8 4 3 4 6 9 15 18 19 19
43 49 54 54 48 37 18 18 17 15 10 13 16 15 18 21 21 21 18 14 15 15 18 16 15 14 13 13 15 14 15 19 20 20 16 12 12 6 5 4 4 6 8 12 16 13 16
40 48 53 53 49 44 12 28 17 14 15 11 13 15 21 19 17 18 17 17 14 13 20 21 13 12 12 11 13 15 18 21 22 20 16 13 10 6 4 3 5 6 9 9 12 13 17
41 46 51 52 51 45 14 34 26 18 19 13 13 14 20 24 18 21 19 15 14 16 23 20 12 11 9 10 13 18 22 27 23 21 16 14 9 3 2 3 6 7 9 10 11 12 13
40 45 49 51 52 48 32 35 40 30 23 20 14 15 18 21 21 21 17 16 11 10 21 15 12 11 10 12 15 23 26 27 24 21 18 14 8 3 2 3 5 8 9 10 10 11 11

GFSGBSN_500_spd_042.txt.gz
Wind_Speed
54 50 50 49 51 51 52 53 53 52 48 45 44 44 45 45 44 42 40 37 36 34 34 36 38 40 41 40 40 39 42 44 45 47 47 47 46 46 45 46 45 44 45 43 40 38 30
54 52 51 49 51 52 53 53 56 57 53 51 48 49 46 48 48 47 44 41 38 37 34 35 38 41 41 39 39 38 39 41 43 45 46 47 47 47 47 47 45 44 44 44 41 35 32
54 53 54 53 54 57 59 61 61 61 58 52 48 45 48 49 50 51 49 45 42 40 36 37 38 41 40 38 37 38 38 38 39 43 45 47 46 47 46 45 44 41 40 43 44 37 36
57 56 56 57 60 61 65 67 68 64 63 61 58 59 57 57 56 56 53 52 45 43 41 38 38 40 38 36 35 35 35 36 36 38 42 46 45 45 46 45 43 41 43 44 43 41 38
57 58 59 61 64 67 71 75 75 72 69 76 75 75 74 70 68 67 61 56 49 45 42 36 38 38 38 36 34 33 33 33 33 36 38 42 43 43 45 44 42 41 42 42 44 43 40
58 60 63 66 68 72 77 81 80 82 83 75 62 48 44 41 39 45 60 60 49 40 39 40 41 38 34 34 33 32 31 30 31 33 35 38 38 41 41 41 38 37 40 43 43 45 41
59 62 65 67 71 76 82 86 85 86 73 53 34 26 22 18 22 33 40 49 49 47 41 43 37 38 34 33 35 32 29 28 29 31 33 36 35 35 32 36 36 38 39 38 39 41 41
60 64 67 71 75 79 86 88 93 76 58 37 14 6 11 20 22 25 40 49 57 43 44 42 38 40 36 36 33 30 29 27 26 28 30 30 28 30 31 33 32 33 32 33 34 37 42
61 65 69 73 78 84 91 93 83 66 45 24 7 8 7 16 18 17 39 52 65 39 47 42 37 38 39 35 34 31 29 26 25 27 27 28 28 28 28 28 26 28 29 29 31 32 33
62 65 70 75 80 87 93 93 74 51 32 10 7 8 10 17 7 16 35 58 51 35 40 44 41 39 36 37 34 32 31 28 26 24 25 26 24 24 23 22 23 24 24 24 26 28 30
64 66 72 75 81 89 93 84 62 34 23 6 9 12 11 13 11 8 35 69 39 40 43 44 41 34 35 39 35 33 31 29 25 24 23 21 22 21 20 21 21 21 20 23 26 29 32
64 67 72 76 83 91 94 70 43 24 20 15 12 11 14 15 9 16 43 73 38 42 33 41 41 36 36 39 35 34 32 28 26 24 21 21 19 18 19 19 19 20 22 25 28 32 36
64 66 71 77 84 90 90 57 30 21 23 17 17 20 16 8 7 23 48 57 44 41 22 43 39 34 34 35 34 34 30 28 26 23 22 21 18 19 19 19 20 22 24 29 33 36 37
63 64 70 76 83 88 81 43 35 31 31 28 22 19 9 2 15 32 51 47 45 27 21 35 32 35 33 36 34 34 32 30 27 24 21 21 20 19 19 20 21 24 27 28 35 39 41
61 63 69 75 81 84 67 44 36 36 36 29 20 7 2 7 19 43 51 42 22 34 19 26 31 34 30 34 31 33 31 28 27 24 23 21 19 19 19 21 24 24 27 31 35 37 43
59 62 67 72 78 81 67 46 37 35 31 16 16 11 6 14 26 43 49 25 19 28 26 24 18 28 25 33 27 29 28 28 26 24 23 20 20 21 21 22 25 28 28 31 33 39 42
57 60 65 70 75 77 62 43 27 27 26 16 22 9 11 16 31 50 36 9 18 25 30 22 19 22 21 29 28 26 27 26 26 24 22 22 22 21 20 23 25 26 26 29 35 33 35
55 58 62 68 72 74 57 36 22 26 26 16 20 9 28 33 49 40 18 20 26 30 24 21 18 25 22 30 33 27 25 25 24 23 23 23 23 18 21 23 24 24 26 29 30 30 37
52 55 59 66 70 70 53 29 26 34 27 19 13 13 36 43 40 19 18 20 30 31 20 20 20 25 22 21 27 30 26 25 24 24 23 20 17 18 21 22 22 23 24 26 32 31 28
49 51 56 62 66 67 44 27 33 34 20 17 18 34 39 39 24 20 27 29 25 25 20 19 18 20 22 22 21 23 25 25 24 22 21 18 17 19 22 22 18 17 22 25 31 29 33
46 48 52 58 62 64 35 27 34 32 22 22 32 43 36 29 24 23 27 25 19 21 19 19 18 20 21 22 23 22 21 22 21 20 18 17 17 19 21 19 18 18 20 23 24 28 32
43 44 48 53 56 57 37 23 29 25 20 37 33 27 27 25 28 24 22 24 14 18 15 14 15 17 20 20 20 22 23 22 20 19 14 14 16 16 19 16 16 17 20 18 20 20 24
40 41 45 49 52 52 43 15 22 10 17 23 16 18 22 23 24 22 23 18 14 11 8 12 15 16 18 19 21 22 21 20 16 14 14 14 16 14 17 14 14 11 12 12 15 20 23
38 38 42 46 47 47 40 14 10 5 9 17 15 16 16 13 12 18 22 17 12 8 6 11 13 16 19 20 20 20 19 16 14 14 12 13 13 14 14 12 10 7 7 10 15 21 21
36 35 39 42 45 45 39 15 8 3 16 15 14 8 12 15 12 14 13 11 8 6 6 7 13 14 15 17 17 17 16 15 13 12 14 13 14 14 10 9 8 6 9 10 14 16 21
34 34 36 38 41 43 40 17 12 8 9 12 19 17 14 13 13 10 11 8 8 6 12 14 14 13 13 13 14 16 16 15 14 14 15 14 14 11 10 8 8 8 8 10 11 15 19
32 33 34 36 39 40 41 28 19 18 17 10 15 14 13 17 18 18 14 16 13 10 13 15 14 12 12 11 11 14 16 15 16 17 16 15 12 9 8 6 7 9 7 8 11 13 15
32 31 33 36 38 41 42 37 20 24 24 17 14 17 15 16 15 16 16 16 11 9 10 16 15 11 11 10 10 14 15 15 18 18 17 15 10 9 7 6 7 6 7 9 12 13 13
30 31 33 37 39 43 46 42 15 35 26 24 17 19 24 22 15 14 15 14 12 11 13 20 16 11 11 11 12 14 16 19 21 20 18 16 12 10 6 4 3 8 9 9 11 12 11

GFSGBSN_500_spd_045.txt.gz
Wind_Speed
57 58 56 51 50 51 51 53 52 53 53 58 59 53 51 49 46 46 47 46 45 42 39 36 37 34 39 40 41 43 39 43 49 50 48 49 49 49 50 49 49 48 46 45 43 43 42
58 58 60 56 55 56 56 58 58 60 65 67 59 55 52 49 50 50 49 49 47 45 41 38 36 34 39 39 39 41 42 42 42 47 49 48 49 49 49 49 50 49 47 46 43 41 43
57 59 62 59 59 60 62 64 65 69 75 71 73 65 64 62 54 54 53 51 48 45 42 39 35 35 35 40 39 38 39 40 41 42 45 47 47 48 48 47 48 48 46 43 42 39 41
59 60 63 62 62 65 68 70 73 80 80 78 69 68 60 57 57 62 57 56 52 47 41 39 36 36 33 39 41 37 39 38 39 39 41 43 46 48 48 47 47 46 45 44 38 42 41
59 63 65 63 65 69 73 76 81 85 86 72 62 48 41 40 39 43 59 60 56 50 40 32 37 37 36 37 38 38 38 36 36 36 37 40 32 43 44 46 46 46 44 42 41 42 43
59 65 66 65 68 73 75 80 87 90 76 60 45 34 26 21 18 23 32 59 61 51 41 38 45 38 35 33 37 37 37 36 38 35 35 39 42 42 41 42 41 39 44 45 44 45 45
61 65 68 67 70 75 79 86 90 84 58 42 35 16 5 10 18 22 18 34 55 56 45 52 42 35 34 33 37 36 36 33 33 34 35 37 36 34 29 33 37 41 43 42 42 43 44
61 66 69 69 74 77 82 90 92 68 47 37 24 1 3 8 12 17 24 26 47 53 52 43 42 38 34 32 35 35 36 33 31 32 34 35 33 27 30 34 36 39 38 37 38 42 44
63 68 70 71 75 79 86 91 86 62 44 41 17 4 6 10 11 16 18 19 45 53 44 45 43 39 33 32 33 35 32 30 30 30 28 28 26 29 31 31 26 31 34 33 34 35 36
62 68 69 71 75 81 87 90 78 49 42 35 23 9 14 13 20 18 7 26 55 59 35 49 44 38 36 35 34 33 33 32 29 27 27 27 26 27 26 25 25 27 27 26 25 26 29
61 67 67 71 74 81 87 85 64 44 41 34 21 18 14 17 13 10 8 39 50 38 36 44 44 37 34 35 35 34 33 30 27 24 22 22 22 23 22 24 24 23 21 19 23 24 25
60 66 65 69 72 79 84 77 59 47 43 37 29 23 18 17 11 9 19 48 33 38 29 36 44 39 34 34 35 35 31 29 25 24 22 23 19 20 20 20 19 17 17 19 21 22 24
58 65 65 66 71 78 83 72 54 41 44 35 28 25 16 8 3 10 35 50 40 27 35 42 44 35 30 29 32 34 29 26 25 22 20 20 21 21 19 18 17 16 17 19 22 23 24
56 62 63 64 69 77 80 68 47 38 35 34 30 20 11 6 5 23 41 50 22 32 36 38 38 35 28 29 32 29 28 27 25 23 22 21 22 20 18 17 17 16 17 20 23 24 26
54 60 60 61 68 75 77 66 43 37 39 30 32 21 11 6 15 34 53 28 28 29 35 38 37 30 28 30 31 29 29 25 24 22 22 22 21 19 18 18 17 15 19 22 24 27 29
53 55 57 59 65 72 73 60 51 42 41 30 31 20 6 15 48 56 34 27 22 25 29 32 30 29 26 26 31 27 27 26 24 23 23 20 19 19 18 17 18 20 20 22 23 27 29
52 52 53 56 63 68 69 56 52 48 33 21 21 14 17 41 50 34 29 25 19 36 30 27 22 22 23 23 28 24 26 26 25 24 22 20 19 17 18 20 20 19 18 21 23 26 31
49 49 50 53 60 64 64 51 56 50 27 15 15 23 59 51 35 27 21 23 23 33 30 27 25 28 24 25 26 24 26 25 25 23 21 20 19 18 19 17 17 16 18 21 25 27 21
45 47 47 49 56 61 59 48 51 47 22 28 30 36 49 34 22 29 26 25 23 20 22 20 19 21 22 28 30 24 23 25 24 23 21 18 18 18 16 15 15 16 19 22 22 24 18
44 43 44 45 51 56 54 41 46 28 33 40 41 44 25 30 26 26 20 25 19 19 18 16 15 20 17 25 28 23 22 22 22 20 19 18 16 14 14 14 15 16 19 20 21 21 23
41 40 41 42 46 51 50 36 37 26 41 45 42 27 22 22 23 27 25 25 18 19 15 13 12 17 15 17 24 26 25 22 20 19 17 15 13 13 16 17 14 15 15 17 18 19 20
39 38 38 38 41 45 45 31 25 26 33 33 21 18 21 29 26 24 20 17 16 13 10 9 10 11 16 15 16 17 19 20 19 18 16 14 14 16 17 16 13 13 12 15 13 14 18
35 35 34 34 36 39 41 28 16 11 18 18 16 16 17 19 21 20 21 18 16 11 9 8 8 10 12 14 16 18 19 17 17 16 14 14 15 14 15 11 11 10 9 8 11 15 16
31 32 32 32 33 34 35 28 9 4 12 18 15 16 14 15 19 16 14 13 11 8 5 6 8 8 10 13 15 16 17 16 15 14 14 14 14 12 11 9 9 7 6 7 10 10 14
28 30 30 30 30 32 32 30 10 4 11 15 10 9 12 10 12 14 15 13 8 7 3 5 11 13 13 14 16 16 15 15 13 12 14 13 12 10 10 10 6 5 7 9 10 12 13
24 29 29 30 29 30 31 30 27 10 15 19 17 17 13 13 11 14 11 8 3 2 4 6 8 11 12 13 14 14 14 13 13 13 13 13 10 8 9 9 6 7 6 8 8 10 12
22 28 29 30 29 30 31 31 27 15 19 24 24 18 19 19 18 15 11 10 9 6 8 8 11 11 10 11 12 12 13 13 13 14 14 13 10 7 9 7 7 6 6 5 5 6 9
24 28 29 31 31 31 33 34 35 26 21 28 26 22 22 17 16 18 15 13 10 7 7 10 13 13 11 11 10 10 11 13 13 14 15 14 11 9 8 8 8 4 5 6 5 5 6
25 28 29 31 33 34 36 38 42 36 22 35 30 24 23 18 17 16 15 13 13 11 9 10 15 16 13 12 11 10 11 14 16 17 16 14 12 12 8 6 4 2 4 5 4 7 8

GFSGBSN_500_spd_048.txt.gz
Wind_Speed
46 44 51 56 60 62 62 60 59 61 61 64 68 71 70 70 64 57 53 48 50 48 47 45 41 39 38 35 39 40 41 47 52 52 51 51 49 49 50 48 48 47 45 43 41 41 42
46 45 52 57 62 65 65 65 65 67 69 74 78 80 75 70 71 62 61 59 53 51 47 44 43 40 39 34 40 40 41 44 45 50 49 50 49 49 49 51 52 50 49 48 46 43 42
46 48 54 59 64 67 67 68 71 73 79 83 82 70 66 58 50 48 53 64 57 52 48 43 42 43 38 38 36 41 41 40 47 44 48 47 48 50 49 49 50 53 51 49 46 43 43
44 46 54 60 66 70 71 73 74 80 85 82 67 57 49 38 32 33 34 53 61 54 49 45 43 44 38 39 36 38 41 41 43 39 40 46 48 48 49 50 49 50 51 50 45 47 46
43 48 56 62 68 69 73 75 79 85 85 71 56 47 39 24 18 15 16 33 55 56 49 47 41 43 38 37 34 37 40 37 37 41 35 36 43 46 47 49 49 50 49 47 45 46 46
44 49 57 62 68 71 75 76 83 88 77 65 51 39 20 5 6 11 14 16 37 57 51 49 45 37 37 34 35 34 39 36 34 37 37 33 29 32 45 47 48 46 46 46 44 47 46
45 52 57 64 69 73 74 79 85 83 68 60 51 39 4 5 8 8 15 7 26 51 52 51 43 39 37 36 35 34 37 38 35 36 33 34 34 41 34 38 42 46 47 48 45 44 44
48 54 58 65 70 73 74 81 87 76 62 53 44 28 16 12 13 17 17 8 20 51 51 46 44 41 36 32 31 33 36 36 36 34 38 32 33 33 35 35 33 40 44 41 40 42 44
51 55 58 65 70 71 74 81 84 68 57 51 41 25 14 14 14 20 22 16 25 53 52 44 44 41 41 33 31 31 33 34 33 32 30 31 29 30 34 37 35 35 34 32 35 38 40
51 55 58 64 70 69 74 82 81 63 53 48 41 31 22 17 17 19 17 9 38 61 59 48 46 38 33 33 30 33 34 35 34 29 30 32 30 31 30 30 30 30 30 30 28 32 36
53 54 57 63 68 67 74 81 78 62 51 45 39 33 17 18 14 12 8 21 50 64 58 49 46 39 36 31 30 33 34 34 32 30 28 30 29 29 29 27 27 25 23 22 24 26 29
51 51 56 62 64 66 73 80 74 63 52 46 37 31 18 11 8 4 7 35 58 55 37 48 45 41 36 32 30 31 34 33 32 32 32 30 26 26 27 26 24 21 20 22 21 21 24
50 51 53 60 61 64 71 79 72 67 52 43 35 27 18 10 5 11 31 43 50 30 40 48 45 41 32 30 31 31 31 31 29 28 27 24 23 23 23 23 21 18 19 19 19 19 18
53 52 54 60 58 61 69 78 73 68 51 35 32 17 13 10 28 47 48 36 29 42 38 45 40 35 30 29 30 28 30 28 27 22 21 23 24 24 23 21 20 19 18 18 17 18 20
51 49 52 57 55 58 66 75 73 71 44 29 25 15 17 37 47 46 34 32 36 36 37 47 39 32 30 28 26 28 30 26 25 22 23 24 23 21 20 18 17 16 17 16 18 20 21
46 48 49 54 51 56 64 71 69 56 32 23 23 36 44 50 41 34 31 35 27 31 34 40 38 31 25 25 23 32 28 26 23 23 24 22 21 20 18 17 16 17 15 15 17 21 21
45 44 45 53 48 53 61 66 62 41 27 31 46 49 45 40 32 29 31 28 28 32 37 33 28 24 22 22 25 25 26 23 24 24 22 21 20 17 16 17 16 14 15 16 17 19 22
47 45 42 48 45 49 58 61 51 26 54 50 38 34 33 30 29 39 34 28 29 27 28 26 22 22 19 21 27 22 23 23 22 22 19 17 16 17 17 15 14 13 14 13 16 19 20
44 39 38 42 41 45 53 55 39 36 44 36 31 28 25 28 32 33 27 33 30 27 24 23 21 22 21 25 28 22 22 23 21 19 17 17 18 17 16 15 13 13 13 17 19 17 15
39 38 34 37 36 39 46 47 29 36 31 31 25 25 24 27 27 22 23 27 27 24 20 17 15 17 18 21 24 20 20 20 19 20 19 18 16 15 13 12 12 15 17 17 17 16 13
39 34 30 32 31 32 37 35 20 14 16 19 21 21 18 19 19 20 20 22 20 19 17 14 13 11 13 19 23 19 20 19 20 19 17 16 14 14 13 13 14 15 16 16 14 14 8
34 34 26 27 27 25 28 22 14 14 18 13 8 6 6 10 12 20 19 19 17 15 14 11 12 10 10 17 23 22 19 18 18 17 15 14 13 13 14 15 13 13 13 13 9 8 9
30 32 26 24 24 21 21 22 10 4 13 8 5 4 6 7 11 14 12 12 12 11 8 7 6 6 10 10 13 15 18 19 18 16 16 14 14 16 17 13 12 10 9 7 6 8 9
28 30 26 23 21 19 18 17 15 4 13 15 9 10 14 17 14 12 11 12 11 8 6 5 3 4 7 10 12 13 14 15 16 16 16 16 18 18 15 12 9 7 5 4 7 9 12
28 30 26 22 21 19 20 17 14 9 14 17 17 13 17 18 17 14 15 13 10 8 6 7 9 10 10 12 15 16 16 17 17 16 17 19 17 15 13 10 7 6 6 5 6 10 11
31 32 29 22 21 21 21 21 18 13 10 27 22 19 17 15 18 17 18 14 12 8 5 5 7 11 14 14 14 14 16 15 17 16 17 16 14 12 12 9 6 7 5 4 5 8 10
34 33 29 25 22 23 23 25 23 21 17 18 34 30 27 24 18 18 16 14 10 8 6 5 7 9 10 11 11 11 13 15 16 17 17 14 12 12 11 8 8 8 6 5 5 6 9
30 31 29 27 26 26 27 29 29 29 30 23 34 39 34 27 25 24 22 18 15 12 9 8 9 10 11 11 10 10 10 13 15 17 17 14 14 13 10 11 9 8 6 6 5 6 5
29 28 32 26 28 29 30 33 35 38 43 33 29 44 40 30 27 26 26 22 18 13 11 10 10 12 13 12 11 10 10 12 16 16 15 15 17 15 14 10 8 8 6 5 6 3 2

GFSGBSN_500_spd_051.txt.gz
Wind_Speed
55 55 53 50 47 52 58 61 67 69 69 71 76 80 78 67 65 61 56 61 67 61 55 53 50 46 46 39 39 39 42 45 48 54 55 54 53 49 49 49 46 42 41 38 36 39 43
56 55 55 51 49 55 61 64 69 72 73 78 82 75 68 64 55 48 40 40 52 64 59 54 50 47 46 39 41 39 44 40 43 49 53 52 52 51 49 49 49 47 44 40 38 41 44
58 56 55 51 53 56 62 66 72 76 77 83 77 69 64 53 44 33 28 28 43 59 61 55 50 49 49 40 39 41 38 41 40 40 47 47 48 50 49 48 49 51 47 45 43 42 42
63 56 58 54 56 58 63 69 75 76 82 83 68 63 56 45 25 16 15 17 30 50 59 54 49 49 49 35 37 39 36 39 39 39 40 46 45 47 47 49 48 50 49 47 43 43 44
56 57 60 56 57 59 64 70 75 79 84 72 64 55 45 33 10 10 12 14 17 33 56 53 49 47 45 36 37 40 37 37 38 38 39 38 45 46 47 49 49 49 49 48 45 47 47
58 58 59 57 58 60 65 71 75 81 81 68 56 49 39 24 13 10 13 18 9 29 53 51 49 47 42 37 36 37 37 37 35 33 39 40 36 44 45 47 47 46 46 43 43 45 46
56 59 59 59 58 61 67 72 76 82 75 65 49 44 35 17 17 15 16 18 10 31 53 51 50 45 38 38 36 36 36 36 38 37 36 37 34 29 42 42 43 46 47 45 44 44 45
60 62 62 60 59 61 69 72 77 84 71 58 44 39 35 24 20 18 13 17 13 36 52 51 50 47 36 40 34 34 34 36 39 33 38 41 37 34 26 34 41 44 45 44 42 44 45
59 63 67 56 57 62 68 70 79 84 69 51 39 37 36 24 19 19 18 14 7 44 51 48 50 44 32 32 36 30 31 34 35 34 34 32 38 36 34 24 25 33 39 40 40 42 44
59 69 64 55 55 62 67 71 80 82 70 45 35 36 33 22 13 16 17 9 17 52 52 49 46 38 34 39 35 32 30 31 32 33 29 31 27 28 28 31 30 26 28 29 32 40 41
63 67 62 55 55 63 64 71 81 83 70 40 32 35 26 19 12 13 11 6 43 50 48 48 46 37 31 33 30 33 33 33 31 29 29 31 28 32 28 31 39 32 30 28 28 31 33
65 65 62 55 53 60 62 71 81 80 64 36 32 30 20 15 9 5 1 36 55 54 35 42 35 36 33 36 30 28 31 32 32 33 30 28 27 27 29 28 28 27 28 24 24 25 29
59 64 63 56 58 55 60 70 78 72 53 34 25 19 17 11 8 17 30 58 61 20 46 41 38 37 35 32 30 27 28 31 31 33 28 26 26 25 27 28 25 23 23 23 22 23 22
69 61 58 54 52 52 59 69 72 54 33 26 25 26 31 33 33 38 45 42 38 35 31 41 36 32 31 27 25 26 27 25 25 23 22 21 23 25 24 24 24 25 25 22 20 18 17
56 59 55 52 47 50 56 66 52 36 35 46 49 48 52 49 45 37 29 33 25 37 39 43 36 31 32 27 24 27 24 26 23 19 21 24 26 25 23 24 24 23 20 18 17 18 17
57 57 51 50 42 46 51 61 31 41 38 39 37 35 37 36 40 31 41 24 28 31 36 31 32 34 25 24 25 23 26 24 23 22 23 23 22 22 23 23 22 20 18 17 16 17 16
55 51 46 47 37 40 46 51 23 28 30 23 33 30 31 31 34 32 22 25 26 29 34 28 26 20 20 20 23 21 21 22 22 23 21 20 20 20 20 20 20 18 16 15 14 14 15
54 50 43 42 31 34 39 38 26 17 19 22 21 27 25 22 23 22 20 19 21 32 31 25 22 18 16 19 17 24 22 22 22 21 20 20 20 19 20 17 14 13 12 12 14 14 15
50 44 41 33 26 28 31 31 14 10 14 19 21 23 27 20 17 18 20 21 20 26 22 20 17 15 17 19 23 21 20 21 20 19 18 18 19 18 16 14 12 11 12 13 14 16 16
45 36 36 30 20 23 25 26 17 9 8 11 11 14 19 24 20 18 20 16 18 18 16 15 16 14 13 14 23 17 16 18 17 18 18 18 17 15 12 11 11 12 13 15 15 17 16
42 34 33 28 15 18 18 20 15 10 7 7 7 4 6 11 19 19 17 17 14 13 13 10 9 13 11 12 21 15 15 17 18 17 17 15 14 12 11 11 12 14 16 16 14 16 12
38 29 31 25 16 13 15 12 11 8 7 4 1 7 4 3 5 3 11 12 12 12 11 9 8 7 9 16 21 16 16 16 15 14 15 15 13 12 12 13 14 16 16 14 13 14 12
35 26 26 23 20 10 12 12 10 6 6 5 2 4 5 6 4 6 13 12 7 3 4 5 5 7 8 13 20 17 15 15 15 15 15 14 14 14 15 15 15 14 12 12 12 13 11
30 26 28 25 28 12 10 12 9 8 10 14 13 14 14 12 13 12 12 10 8 5 4 4 6 5 5 9 10 15 19 18 16 15 15 16 16 17 17 16 12 12 12 11 11 8 8
28 28 28 27 28 25 13 13 13 11 11 16 21 22 18 15 16 19 19 16 14 12 10 8 8 7 9 10 9 13 13 13 16 17 18 19 19 19 18 15 12 11 11 9 7 7 7
29 31 29 29 28 31 23 17 16 16 15 16 23 25 25 22 21 20 20 19 17 16 14 11 9 12 12 13 16 17 15 15 18 19 20 22 22 19 15 13 12 11 11 9 8 8 8
30 34 32 29 26 31 30 19 22 21 19 19 23 31 29 27 28 28 23 22 20 16 13 10 9 9 10 12 13 14 17 19 18 19 21 19 16 16 15 14 13 12 10 10 10 8 7
34 34 30 28 24 28 33 23 27 28 28 27 27 31 43 36 33 28 24 27 21 17 13 11 10 11 12 10 10 11 13 17 19 20 21 17 15 17 15 14 13 11 11 11 11 10 9
33 32 28 28 26 29 34 29 31 34 34 37 39 35 34 51 44 34 27 28 25 19 14 14 12 12 13 14 12 11 12 13 16 19 20 16 17 17 15 14 13 11 12 11 12 11 9

GFSGBSN_500_spd_054.txt.gz
Wind_Speed
57 60 58 59 59 60 61 58 56 59 62 67 71 74 80 73 64 62 55 49 42 50 61 66 61 58 56 52 44 42 46 47 47 50 53 53 54 52 49 47 45 43 42 41 38 41 44
60 60 61 59 60 62 63 59 60 62 67 72 74 80 71 59 55 52 44 29 25 33 45 59 61 59 56 52 45 40 43 42 42 39 49 51 52 52 50 47 46 46 44 40 36 35 38
60 59 60 60 64 67 61 59 60 65 73 75 79 75 59 46 49 41 22 17 22 22 34 53 61 58 56 52 45 41 41 39 38 36 40 48 47 50 51 48 47 48 47 44 38 35 37
59 58 59 59 68 66 61 59 63 70 75 79 80 66 48 42 38 28 17 15 17 14 24 46 58 55 54 47 43 33 35 43 38 39 41 42 44 47 49 49 48 48 48 46 40 37 37
55 56 57 67 70 64 60 62 64 74 78 83 76 55 40 38 30 19 19 17 19 20 18 42 54 53 52 44 35 37 36 40 32 38 40 41 44 46 47 49 48 49 47 45 42 41 39
57 62 65 71 70 64 60 65 69 75 82 84 68 46 34 32 30 22 19 19 19 19 18 43 52 53 48 44 42 31 34 37 30 41 37 37 40 45 46 48 49 48 47 42 41 43 42
62 61 64 68 72 63 62 67 71 77 85 84 55 36 28 29 31 26 18 17 19 17 23 48 50 49 44 44 34 34 35 37 29 36 33 36 35 36 44 44 44 45 46 44 42 42 44
63 68 69 71 71 63 64 68 70 81 88 80 43 28 27 29 26 21 16 16 16 11 34 49 47 45 45 41 42 39 36 36 30 28 30 28 31 31 38 43 42 43 43 41 40 40 41
66 66 67 69 67 60 66 65 74 83 79 69 34 27 27 22 23 19 12 16 10 8 46 46 44 43 45 26 27 30 34 35 28 34 35 39 32 28 23 34 38 39 38 37 37 39 42
67 65 64 67 67 58 59 65 74 74 63 58 36 28 23 11 19 14 15 10 1 34 47 45 44 41 38 34 32 26 31 32 27 26 32 33 36 19 22 25 25 28 38 36 37 39 41
69 65 62 66 62 58 56 65 70 60 56 53 39 26 20 13 8 7 7 7 32 45 47 48 47 45 30 39 32 30 31 30 27 21 29 28 28 35 33 31 25 28 27 30 30 33 38
72 60 60 63 57 56 54 62 66 46 52 57 45 34 21 14 9 8 22 39 45 39 33 45 46 36 24 35 33 29 33 31 30 31 30 26 25 35 30 26 30 29 25 21 22 27 31
73 58 56 60 53 52 51 58 58 41 49 55 55 52 42 34 37 44 47 49 26 28 43 40 37 20 29 30 32 29 29 30 28 28 31 26 22 26 30 26 24 23 28 27 23 24 26
71 56 54 56 48 44 46 53 46 41 44 46 45 46 45 43 52 51 26 20 28 41 40 42 30 31 31 25 24 26 25 27 25 23 22 21 24 22 25 29 25 22 24 24 25 23 21
67 55 53 51 44 37 41 47 40 37 38 40 44 39 35 32 41 29 29 40 42 35 31 30 27 22 27 25 22 23 23 24 23 23 26 20 21 23 21 22 25 25 24 21 20 21 20
65 54 52 46 37 34 36 40 38 33 28 35 35 39 33 20 23 24 21 29 29 30 31 30 23 26 24 21 21 21 23 22 24 20 22 24 21 20 20 19 22 22 20 20 19 20 17
62 52 49 40 30 29 30 34 34 24 26 26 29 25 27 22 15 16 13 17 19 22 20 18 18 16 15 14 17 17 16 19 20 16 17 18 18 18 19 18 20 21 20 21 19 16 13
59 48 46 34 28 25 24 27 30 18 23 26 29 20 16 16 11 13 15 15 19 22 15 14 16 14 13 15 18 16 19 15 15 15 14 15 16 18 19 19 20 18 16 14 14 13 12
54 45 43 31 25 24 18 20 24 21 20 17 23 23 20 15 16 16 13 12 17 15 14 16 11 10 13 17 19 20 18 16 15 13 14 15 16 17 17 17 16 15 15 14 13 13 12
48 44 38 28 24 23 13 14 16 19 18 19 12 18 19 17 13 13 15 19 16 12 13 9 6 6 9 11 11 19 16 15 13 15 16 17 16 15 14 13 13 13 13 13 13 14 13
44 41 35 26 22 20 12 10 9 13 15 15 9 9 11 15 13 11 11 9 8 7 6 6 7 7 7 10 17 14 13 16 16 15 16 14 13 13 13 13 13 13 13 14 14 15 12
41 38 33 25 23 18 21 7 8 6 9 13 1 3 5 2 6 8 8 7 9 10 7 4 4 5 6 9 23 16 13 15 16 16 15 14 13 13 13 12 12 13 14 13 14 14 13
38 36 30 24 23 23 22 16 7 7 5 7 6 3 6 5 8 3 3 2 2 3 4 5 4 3 6 8 19 17 11 11 14 14 14 14 13 12 12 12 13 14 14 13 14 13 11
38 35 29 25 23 20 21 23 12 11 9 10 11 14 11 11 12 12 9 10 6 4 2 1 5 5 4 8 18 17 16 12 11 12 13 13 13 13 13 14 14 13 13 13 13 12 11
38 32 28 29 26 25 23 25 24 14 15 14 15 17 21 20 17 16 19 19 16 14 10 7 6 6 7 9 11 16 18 18 18 17 15 16 15 16 17 16 15 13 13 14 13 12 12
33 31 30 31 29 27 26 26 29 24 16 19 18 20 22 23 21 19 21 23 22 19 18 14 13 13 12 12 13 15 15 16 20 21 19 19 19 20 19 16 15 13 13 15 14 12 11
32 32 35 36 31 28 26 26 27 30 23 20 24 24 25 29 28 27 26 28 28 24 20 18 16 13 12 12 14 14 16 17 18 19 22 22 22 21 20 16 15 14 15 16 15 12 10
34 36 39 39 31 28 27 28 27 28 31 26 26 29 30 30 36 35 33 31 28 26 23 18 15 13 9 9 10 14 15 18 19 19 20 21 20 19 17 16 17 17 17 16 13 13 10
35 39 39 37 31 29 31 29 30 29 32 33 34 35 36 36 38 42 38 34 32 30 25 20 14 12 12 12 11 10 12 15 19 20 21 18 19 17 17 18 17 17 16 15 13 13 12

GFSGBSN_500_spd_057.txt.gz
Wind_Speed
59 62 64 61 59 62 66 69 61 56 59 63 67 71 73 76 74 59 49 48 55 51 38 39 57 61 66 64 54 50 48 46 49 47 47 50 52 51 48 47 46 47 52 50 48 48 45
60 65 65 63 61 64 70 68 61 59 64 69 73 78 82 74 52 42 36 41 32 22 24 26 34 54 64 63 55 38 45 44 45 46 47 48 48 49 50 47 46 45 45 44 41 44 46
62 68 65 62 64 64 70 68 58 62 66 73 80 85 72 49 40 29 32 27 17 13 10 18 25 50 61 61 54 53 43 38 42 43 45 47 45 47 48 48 46 47 45 43 37 36 39
66 68 66 64 65 65 67 64 62 65 71 80 80 77 52 37 28 26 25 22 19 16 17 13 19 47 55 57 53 46 34 38 38 40 42 48 41 46 49 50 49 47 48 47 39 36 36
68 68 71 67 61 66 69 62 64 68 75 78 70 63 36 24 21 23 24 23 20 20 21 14 15 43 54 55 47 44 39 37 37 36 39 39 41 47 49 49 49 49 47 44 41 39 37
70 73 76 66 64 65 65 62 64 71 75 74 75 51 26 22 20 22 21 19 17 17 20 11 23 47 52 48 45 47 28 33 37 33 37 35 34 42 55 55 47 49 47 45 42 41 40
72 74 74 65 64 65 60 64 65 70 74 75 73 39 23 17 21 17 15 11 15 15 16 22 32 49 48 47 45 42 26 29 33 32 33 35 32 34 44 51 52 47 45 44 40 39 40
74 73 75 63 63 66 60 60 66 70 71 78 65 36 25 21 15 17 17 13 14 12 3 29 45 46 49 47 41 44 35 32 29 26 31 29 28 31 40 43 43 45 43 43 41 40 39
75 72 72 63 63 63 56 59 64 69 72 78 59 33 23 14 10 12 14 14 7 1 24 43 45 50 52 50 30 31 37 30 30 29 33 28 27 29 33 44 42 41 42 41 40 40 40
77 73 69 61 62 58 53 58 60 65 67 75 54 38 22 14 9 12 11 6 15 34 44 44 42 46 46 40 33 32 31 30 25 26 30 25 30 27 28 35 38 37 37 36 36 38 39
75 74 71 60 58 54 49 53 55 58 64 64 51 49 39 25 18 13 16 32 44 42 45 39 40 47 45 35 31 31 33 38 34 27 28 29 20 25 23 30 28 34 36 37 35 36 37
72 70 68 58 55 48 45 50 49 51 56 51 59 63 64 51 50 46 39 43 42 44 40 39 41 32 27 33 29 35 35 34 27 17 26 21 24 28 29 25 23 27 29 33 36 36 36
71 71 62 56 53 42 42 45 44 47 46 38 47 45 62 42 36 37 31 40 43 49 44 37 29 28 26 25 26 25 33 31 27 18 20 22 22 24 30 25 23 29 30 27 30 34 33
73 69 58 53 51 39 37 40 39 43 39 35 40 43 53 48 23 27 29 35 42 42 42 41 23 29 36 30 27 25 26 30 26 23 23 22 22 20 25 27 27 27 27 27 27 23 21
71 64 54 49 47 36 32 34 35 35 35 30 27 33 39 41 29 28 28 33 38 35 26 23 30 27 30 24 21 22 22 20 21 21 21 25 21 19 21 29 26 25 22 22 22 22 20
69 60 51 46 42 32 28 29 30 29 32 32 24 27 28 30 26 25 23 27 33 23 21 19 18 21 18 18 18 18 19 19 20 17 18 23 21 21 22 23 28 26 24 21 19 20 17
66 57 49 44 40 30 24 23 25 24 28 29 24 21 24 22 19 15 19 24 22 19 17 16 16 12 12 11 13 15 15 16 18 15 16 20 17 17 18 19 20 23 23 22 20 18 17
64 55 45 42 37 28 21 18 21 22 23 22 23 19 20 20 18 15 11 14 16 14 12 10 12 12 12 13 14 13 16 15 16 14 13 16 18 18 17 18 19 20 20 17 16 15 15
62 53 43 40 34 26 19 17 17 18 19 16 18 22 13 19 16 11 12 14 12 8 11 11 8 5 7 11 12 13 14 12 17 15 13 13 15 16 16 16 17 17 18 19 17 16 15
62 49 40 37 32 26 21 17 15 14 15 16 10 15 17 12 17 16 16 12 8 8 9 6 5 4 5 8 11 11 11 14 12 11 12 13 14 14 15 15 15 16 16 15 14 13 14
61 48 38 34 30 25 21 18 17 10 12 11 7 6 9 12 9 11 8 7 7 6 3 2 3 4 5 8 11 14 18 15 13 13 12 13 13 14 16 15 15 15 15 13 12 13 12
60 47 36 32 30 24 21 20 16 12 11 11 8 5 2 2 7 5 6 6 9 7 3 1 5 5 6 8 11 18 14 15 14 14 15 14 14 15 15 16 16 14 12 11 12 11 13
59 49 34 30 28 24 22 19 17 17 15 13 12 9 8 6 7 9 7 3 4 1 2 2 3 5 6 6 16 15 11 13 14 13 13 14 13 14 14 15 14 12 11 11 11 12 13
58 48 32 29 28 23 25 23 21 19 19 17 17 18 16 13 13 13 13 10 11 8 4 3 4 4 6 9 18 18 12 11 13 14 13 14 14 14 14 13 12 11 11 12 13 13 12
57 49 33 33 31 30 26 26 24 23 23 23 21 22 22 21 18 17 16 18 16 14 13 9 8 5 6 10 18 17 18 16 14 12 14 15 15 15 14 14 13 13 13 14 14 12 12
56 51 35 32 35 36 33 30 26 27 26 26 27 24 25 26 24 21 19 19 24 22 20 18 15 12 11 10 13 17 20 19 19 19 18 16 16 16 16 16 15 15 15 16 13 13 13
55 49 37 33 34 38 35 31 27 26 28 30 28 28 27 28 28 28 25 23 23 24 24 23 22 18 16 15 15 16 16 17 18 20 23 21 20 19 19 17 18 16 16 16 15 14 13
51 49 37 34 36 40 37 31 29 28 27 31 31 30 30 27 33 32 31 31 27 26 28 26 24 21 18 15 15 16 17 17 18 19 20 23 24 24 23 20 21 19 18 16 16 15 12
49 46 36 34 38 38 36 32 30 30 31 31 34 32 33 36 32 35 37 34 34 33 31 30 27 21 17 14 13 12 12 14 17 18 21 20 20 21 21 21 19 18 18 17 16 16 13

GFSGBSN_500_spd_060.txt.gz
Wind_Speed
61 65 73 71 73 60 56 59 63 54 55 59 63 66 65 63 61 51 42 41 43 40 38 43 52 59 67 65 70 66 61 56 56 52 50 56 56 57 55 51 50 54 57 52 48 45 45
63 67 74 74 72 60 60 62 60 57 60 65 70 67 69 58 43 31 33 31 23 25 32 30 33 39 60 69 54 64 56 50 55 51 50 55 51 54 55 52 48 50 53 56 51 45 46
64 68 75 78 71 60 63 65 57 59 64 69 71 71 59 36 18 21 17 17 18 19 16 14 10 23 28 43 60 59 58 39 49 49 48 49 51 53 54 52 50 49 49 51 55 52 46
66 72 78 79 70 62 66 60 57 63 68 73 75 65 43 22 14 10 11 19 19 17 16 15 9 16 21 44 56 51 53 49 46 43 47 49 49 51 53 53 51 49 49 48 46 47 48
68 73 77 75 67 63 65 56 59 66 71 78 67 55 34 19 13 13 13 18 17 14 15 15 10 15 24 50 54 51 41 44 41 40 44 43 47 50 53 54 53 51 47 45 41 41 41
70 74 77 73 63 61 60 55 60 66 73 75 65 47 27 19 13 10 14 10 6 9 10 14 12 16 40 52 57 47 42 41 38 39 40 39 45 47 53 53 51 49 47 45 44 41 39
71 73 78 67 59 60 54 54 60 65 72 70 69 49 26 20 16 16 15 14 12 8 9 6 19 26 49 53 54 56 38 30 35 37 35 35 40 38 52 50 51 49 48 45 43 41 42
71 74 74 61 57 58 50 51 58 63 69 72 67 52 33 19 11 11 11 20 13 7 3 18 22 45 49 48 49 41 32 26 37 33 31 32 34 32 40 52 50 48 49 48 43 41 41
72 75 69 57 54 55 47 48 54 58 63 70 72 64 58 29 8 10 19 12 12 24 28 36 43 50 47 55 49 37 36 20 27 28 28 30 32 31 33 47 52 48 45 45 43 42 40
71 77 64 54 52 51 44 44 51 53 56 64 66 56 61 43 25 20 25 38 52 53 42 37 43 47 49 48 36 35 27 27 23 26 31 29 29 28 30 41 50 47 46 45 43 42 42
72 76 63 52 50 47 40 41 46 49 50 54 61 53 53 41 38 41 45 55 49 40 36 36 45 50 42 43 40 34 24 24 20 26 26 22 28 25 27 33 40 39 39 40 41 40 40
71 74 60 50 48 43 36 38 42 45 47 43 49 47 43 35 37 43 46 42 35 41 43 40 46 40 40 38 39 32 32 22 19 19 27 23 21 31 29 23 32 33 36 36 36 38 40
70 73 60 49 46 39 32 34 37 40 41 37 41 41 35 32 35 39 38 38 38 43 42 41 34 31 24 34 30 32 34 21 25 18 25 15 23 31 32 22 26 29 35 33 34 38 40
68 71 62 48 44 37 30 30 32 35 35 31 31 34 28 30 31 36 37 34 44 31 29 36 25 28 26 27 22 24 25 22 16 12 19 18 13 22 41 27 30 31 34 39 40 39 38
65 67 65 51 45 40 27 25 27 28 30 26 25 29 25 23 26 28 31 32 28 19 21 20 19 23 21 19 20 23 26 24 17 18 23 18 16 15 22 25 26 30 28 31 30 32 28
61 64 64 52 43 39 28 21 23 24 24 23 20 20 17 21 20 21 21 20 22 22 21 20 19 18 17 17 16 18 19 21 18 14 16 16 17 14 19 24 25 23 24 23 24 24 23
59 62 64 51 40 37 30 21 21 20 20 21 18 17 15 15 18 14 13 10 14 16 18 17 21 15 14 12 13 13 12 12 13 12 12 15 19 18 18 20 25 27 26 25 22 20 21
58 59 62 52 39 37 30 24 19 16 16 14 16 12 12 11 12 16 11 9 10 12 13 14 13 12 12 13 13 15 15 15 15 14 13 16 16 15 18 19 21 26 26 26 26 22 20
58 59 58 50 40 38 30 23 17 14 13 11 12 7 10 8 6 9 9 7 6 6 9 12 10 8 7 7 8 10 14 14 16 16 14 18 20 18 17 18 21 19 22 23 24 25 24
56 60 56 48 41 32 30 20 20 16 13 10 5 8 5 10 12 6 5 3 4 9 8 6 4 4 5 7 8 9 10 12 15 15 15 15 15 16 16 17 19 18 20 22 22 20 20
56 59 55 47 43 30 32 24 19 18 12 14 6 2 1 5 5 4 3 2 2 2 2 2 4 4 5 7 10 11 11 12 13 15 13 14 13 14 15 16 16 16 17 18 19 20 19
58 60 54 47 39 32 30 30 20 17 16 17 14 9 9 6 4 1 1 3 4 3 4 5 8 8 8 8 10 15 16 16 14 15 13 14 15 16 16 15 16 17 18 19 18 17 18
59 61 52 44 39 31 29 31 30 21 20 19 18 16 15 15 14 11 8 7 6 4 3 4 5 7 9 8 9 13 16 15 15 14 14 16 15 16 18 18 18 17 15 15 16 15 15
60 59 50 43 40 30 26 30 33 28 23 24 22 23 22 20 19 18 16 14 11 11 9 7 7 8 9 12 10 18 14 16 17 16 15 16 16 16 17 17 17 16 15 15 14 14 15
58 55 50 44 41 31 27 30 36 31 26 26 28 26 27 25 25 23 21 19 18 16 14 11 10 9 8 11 13 21 14 12 16 17 15 17 17 17 17 17 16 15 14 13 13 14 15
55 53 51 47 42 36 29 29 37 34 27 25 30 29 29 32 28 27 27 26 23 22 22 19 16 15 12 9 11 19 18 18 16 15 17 17 17 17 17 17 16 15 14 14 14 14 14
54 55 51 47 41 39 32 28 36 35 29 28 29 30 29 31 34 31 29 26 26 24 26 27 23 20 17 14 14 15 19 22 22 21 21 19 18 18 18 18 17 16 16 15 15 13 15
57 56 55 49 43 39 36 31 37 34 31 31 31 32 29 32 34 35 34 30 29 29 27 26 25 23 21 17 16 19 20 20 19 21 23 24 25 23 23 21 21 19 18 17 17 16 17
57 61 60 54 40 39 34 33 38 35 36 33 30 32 32 31 35 35 36 37 36 33 33 29 28 26 23 20 16 17 18 20 23 23 23 22 22 23 25 24 24 21 21 20 18 17 17

GFSGBSN_500_spd_063.txt.gz
Wind_Speed
58 63 69 75 72 62 57 57 52 54 60 65 70 70 63 52 42 35 27 26 29 32 37 40 45 51 59 64 64 67 66 62 59 55 52 51 51 52 56 57 54 53 56 57 56 43 44
59 65 72 78 67 60 57 53 52 58 64 70 73 67 55 40 25 19 18 18 17 21 20 23 25 31 42 48 61 71 70 67 61 58 55 52 49 48 53 57 57 53 58 58 54 48 45
61 67 74 77 62 59 58 51 55 60 65 72 72 64 48 31 17 14 11 4 10 14 15 18 18 22 28 37 52 56 70 73 68 56 55 52 50 49 51 54 56 58 58 56 55 46 43
61 68 76 71 59 58 55 52 56 61 65 73 74 70 47 24 15 10 8 8 12 14 16 18 19 15 17 29 47 51 50 54 53 46 52 50 48 48 51 55 55 57 55 55 56 51 45
62 69 76 68 59 59 51 52 57 58 63 74 72 71 52 23 15 9 7 13 13 11 10 13 16 11 17 20 30 51 47 46 51 52 46 48 49 48 53 52 56 58 56 48 51 50 49
62 69 75 65 60 58 50 51 54 57 62 68 70 70 54 29 16 18 12 13 15 7 6 6 10 11 12 17 39 56 41 48 47 44 50 47 47 45 46 54 53 52 53 48 46 45 45
61 67 72 61 58 57 48 49 50 52 57 63 68 67 55 33 19 14 14 15 11 5 4 3 9 10 21 36 47 50 49 47 41 32 47 48 44 39 44 42 46 53 50 50 46 43 41
60 66 71 61 57 57 46 48 50 46 51 59 62 60 54 42 26 19 19 13 8 4 9 15 17 44 53 42 46 42 39 38 35 37 37 40 39 36 36 45 49 52 51 49 47 42 41
59 65 69 61 56 55 44 45 46 44 50 52 53 52 46 54 51 47 41 34 39 33 28 29 44 51 37 31 39 45 48 39 34 35 37 36 30 33 34 42 48 51 50 49 45 42 42
59 64 67 59 53 53 42 39 42 40 43 45 45 45 40 45 45 41 39 42 37 36 41 45 46 34 32 41 48 42 41 39 36 35 33 32 30 34 31 35 48 50 51 51 45 43 43
57 63 67 57 50 51 41 36 36 37 37 40 38 38 36 37 36 34 30 32 32 40 38 35 38 40 38 38 36 27 29 27 34 33 31 25 28 31 32 33 43 50 47 47 45 43 45
56 59 64 61 49 49 41 33 34 33 31 34 31 29 32 38 39 38 30 30 38 41 38 38 39 47 28 24 31 14 22 21 25 21 23 23 28 33 27 31 38 48 45 42 43 43 44
55 58 62 63 47 47 42 32 33 30 27 28 26 26 27 33 38 40 31 30 38 47 40 30 28 25 28 27 17 23 20 18 18 14 23 15 24 28 27 25 28 38 41 38 39 41 42
54 57 60 64 47 43 41 32 30 28 24 22 24 20 23 26 31 33 32 19 29 29 29 25 22 19 21 24 19 29 25 16 14 11 21 18 22 28 28 22 22 31 39 35 36 39 44
53 56 58 60 56 41 41 29 24 26 22 20 18 18 12 21 22 22 26 17 21 21 16 16 14 11 18 16 16 11 11 6 12 10 21 17 18 31 33 27 19 26 30 35 34 35 36
53 55 57 59 60 40 37 31 22 21 20 18 16 12 10 8 15 17 20 14 12 13 12 14 16 13 12 10 13 12 11 9 7 11 12 12 10 15 22 30 24 33 29 28 34 33 32
51 53 55 58 59 44 35 33 22 18 17 16 12 11 8 5 3 6 10 9 8 6 6 9 12 12 10 10 10 10 10 14 8 5 7 12 11 12 15 28 25 27 28 26 26 29 27
48 52 55 56 57 48 33 33 25 17 14 12 10 8 7 4 2 1 3 3 5 4 5 8 7 6 6 8 12 13 12 9 10 11 11 12 15 16 14 17 23 24 24 24 23 24 25
47 52 55 56 58 52 35 31 28 20 16 12 8 6 7 4 4 2 2 1 3 1 3 7 6 6 5 6 7 11 12 13 14 16 15 13 15 16 17 18 19 20 24 27 27 26 24
46 51 55 57 58 54 38 28 30 25 19 14 10 7 4 1 2 6 5 3 2 3 5 4 5 6 7 7 7 8 11 13 14 14 13 13 16 18 19 18 19 21 23 23 26 27 24
45 51 55 57 59 52 41 31 28 28 21 18 17 11 10 9 5 5 6 6 6 7 6 6 6 7 8 9 10 11 10 10 12 16 15 14 14 15 18 19 19 20 19 19 19 23 27
46 49 54 59 58 52 40 34 29 27 28 19 20 19 15 15 15 10 7 7 9 8 8 9 10 11 11 11 11 13 14 15 14 14 16 17 18 17 17 18 16 18 19 19 23 23 24
45 49 54 59 57 51 44 37 29 26 30 24 21 23 23 20 22 21 16 13 11 10 9 8 9 10 12 12 13 14 17 19 16 16 18 16 16 16 16 17 16 16 18 20 20 23 24
47 50 55 57 54 50 45 41 33 27 26 33 22 25 26 28 26 27 27 23 19 17 14 14 12 11 11 13 14 13 13 15 18 18 17 17 17 18 17 18 18 17 17 19 20 20 18
52 54 58 55 52 51 46 42 38 33 30 33 29 22 28 29 31 30 30 30 29 26 21 19 16 13 12 10 13 14 18 15 17 19 19 18 19 19 18 19 17 20 19 17 17 17 18
55 55 53 54 56 57 52 50 45 40 30 33 33 26 25 30 32 33 34 33 32 29 26 26 23 19 16 13 10 13 20 16 14 17 18 18 18 18 19 18 19 16 17 17 17 17 18
50 45 48 52 54 56 55 52 37 35 35 33 33 28 28 28 32 33 35 36 33 33 31 28 30 26 22 19 16 13 16 23 22 18 16 18 19 18 19 19 18 17 17 18 18 15 16
43 49 51 49 50 57 54 50 36 34 35 36 34 32 32 28 33 32 33 37 37 34 32 30 29 30 28 25 20 18 18 20 21 24 25 24 22 20 21 21 22 19 19 18 16 15 18
41 47 45 44 48 54 51 46 35 35 34 35 32 35 32 27 29 33 30 38 38 40 38 33 32 28 30 27 23 20 19 20 24 23 22 24 27 27 27 26 24 23 21 20 19 19 19

GFSGBSN_500_spd_066.txt.gz
Wind_Speed
58 63 69 74 75 66 64 62 56 59 63 65 67 71 70 58 34 23 17 20 19 19 19 26 39 47 53 59 60 62 59 59 55 55 50 46 45 46 45 47 51 52 49 51 52 51 42
58 63 69 75 75 65 64 60 57 60 62 64 67 72 68 48 26 18 16 8 9 11 10 16 23 25 35 49 56 66 62 61 54 53 49 47 45 44 44 46 50 51 57 51 55 51 43
58 63 69 75 74 66 65 58 56 61 61 62 68 73 67 45 21 12 10 3 8 13 10 12 14 17 18 31 48 58 63 62 58 45 49 47 45 46 44 45 48 51 56 57 52 49 45
58 63 68 75 74 66 65 56 56 59 58 62 67 71 65 45 22 13 8 6 12 13 13 12 16 15 18 23 33 48 59 63 60 57 50 48 46 46 44 43 45 49 53 56 53 50 49
56 62 68 75 74 64 66 55 55 58 56 60 63 65 63 49 26 16 15 8 11 12 9 8 11 13 15 18 21 38 54 59 60 53 49 48 47 43 43 43 44 48 53 53 52 49 48
55 62 67 73 72 61 64 54 53 54 53 55 59 59 58 58 40 20 16 14 13 8 4 2 3 8 12 14 21 41 43 50 57 53 48 44 46 43 45 44 44 40 43 49 50 48 48
54 60 66 71 74 60 61 52 52 52 50 50 55 55 53 50 53 50 35 12 7 8 5 4 5 5 7 13 22 40 37 41 44 45 53 42 40 42 40 38 38 38 43 45 47 48 48
53 58 63 68 72 59 60 51 50 52 48 46 51 52 51 47 45 42 40 34 24 16 11 8 7 11 14 31 50 41 35 37 42 45 44 40 45 44 39 36 36 41 41 46 45 48 44
52 57 61 65 70 59 57 53 48 48 45 42 44 48 49 43 43 37 33 29 27 30 38 44 39 40 38 40 42 30 40 38 45 43 46 40 33 37 37 36 33 38 42 45 47 46 41
48 55 60 64 67 63 55 52 49 47 42 40 38 42 46 45 38 38 37 35 37 38 38 31 31 24 38 32 24 26 34 46 47 30 33 46 36 34 34 37 33 38 43 40 46 42 41
45 51 56 61 65 65 52 52 46 46 39 38 34 37 41 42 35 37 36 34 30 28 38 37 28 25 31 25 25 27 36 34 30 25 27 34 41 36 35 35 29 37 41 43 41 43 44
44 49 55 58 61 63 52 50 44 42 39 32 29 31 40 36 35 35 32 25 26 32 38 34 35 34 29 29 24 31 32 34 22 23 28 30 32 31 28 30 36 31 36 39 38 43 44
42 47 52 56 59 61 54 45 45 38 37 28 25 19 29 30 32 30 30 28 24 34 29 29 21 24 15 15 14 24 28 15 22 22 24 24 26 28 26 19 26 26 30 37 38 42 42
39 44 49 54 56 59 59 47 45 37 34 31 24 15 18 23 17 20 22 20 16 15 17 17 16 16 19 21 19 18 15 20 17 19 23 19 16 25 27 29 26 31 27 36 38 40 40
37 40 47 52 55 57 58 46 40 38 31 29 23 18 10 15 16 15 14 12 15 14 11 10 11 4 5 6 19 10 16 12 10 10 15 18 16 25 30 26 23 24 28 30 34 36 39
35 37 44 50 53 56 57 48 37 37 30 25 23 18 13 7 8 9 8 10 6 8 11 7 6 5 5 1 2 6 7 5 14 15 16 12 8 22 25 29 31 25 19 27 32 33 36
32 36 41 47 51 55 57 52 37 33 30 26 23 20 15 9 2 0 3 6 9 9 4 1 3 2 3 3 4 2 1 3 5 11 12 8 11 14 19 24 25 18 32 23 24 30 31
33 35 40 46 50 53 56 54 39 32 33 26 22 21 17 13 7 3 5 6 6 6 4 1 1 1 2 2 5 7 7 6 4 6 6 10 10 8 8 17 23 19 28 29 29 23 26
34 36 39 44 48 52 55 56 43 36 29 30 22 21 19 14 10 6 5 5 7 8 4 5 5 4 3 3 4 6 8 8 9 10 10 11 12 14 15 13 19 22 21 21 21 22 22
37 39 41 45 47 51 54 56 47 39 31 27 26 21 20 17 13 11 9 9 10 9 8 7 7 8 8 7 7 8 9 11 12 11 13 13 12 16 18 14 16 18 21 22 23 25 21
38 41 42 44 48 51 54 53 50 40 34 26 30 25 21 21 19 15 13 13 12 10 10 10 10 11 11 10 10 10 10 10 11 12 13 13 13 16 19 20 21 20 21 21 19 20 27
41 42 44 47 48 51 53 50 49 42 33 29 28 29 24 23 22 22 18 15 15 15 16 15 14 14 15 14 14 12 13 13 13 13 14 16 15 16 18 21 22 23 24 22 20 22 23
43 44 45 48 48 52 53 53 49 46 43 37 31 31 27 26 26 26 27 24 19 16 16 14 12 12 12 14 16 16 16 16 16 16 16 15 14 15 15 17 19 19 21 21 22 23 25
44 44 47 48 50 52 55 57 56 50 51 44 34 31 36 27 27 31 26 31 28 23 21 19 17 15 13 13 15 16 16 17 19 19 18 16 16 16 14 17 18 17 16 17 19 21 19
43 46 47 49 52 51 54 56 59 56 49 42 32 33 37 28 27 30 32 30 32 32 29 26 23 21 18 15 14 14 16 15 14 15 17 17 16 17 19 16 15 16 15 14 16 17 18
42 46 50 51 50 50 50 48 52 49 45 39 33 34 36 34 26 28 31 35 31 36 35 33 31 28 25 22 18 15 13 14 18 14 15 18 18 17 17 17 18 14 16 16 15 17 18
41 47 49 48 46 45 50 51 52 47 42 42 37 40 36 34 30 30 33 33 38 35 36 34 33 31 30 30 24 19 16 14 20 15 13 15 16 17 18 17 17 14 17 18 18 14 16
36 44 46 43 42 47 51 48 48 50 46 49 44 44 42 35 28 32 34 33 37 37 36 36 35 34 32 32 30 24 20 17 16 22 20 19 18 16 17 16 17 15 17 17 16 15 16
40 46 42 43 40 50 52 48 50 54 52 54 53 48 45 41 29 33 35 32 35 37 34 38 36 31 32 31 30 31 26 22 21 20 21 23 25 24 23 21 19 19 19 19 19 19 17

GFSGBSN_500_spd_069.txt.gz
Wind_Speed
55 59 64 70 73 77 78 72 70 64 65 65 67 70 73 72 49 21 16 16 7 9 7 11 13 24 47 46 47 56 57 54 48 47 45 44 44 44 47 42 45 44 48 49 44 49 45
53 57 65 68 73 77 77 72 70 63 65 62 67 72 73 69 52 21 12 10 5 8 9 7 10 10 18 35 44 53 55 52 49 48 45 45 44 43 42 43 43 46 46 50 52 47 47
52 57 65 68 73 77 78 70 67 64 65 61 65 70 71 68 55 25 12 10 11 12 11 7 6 9 17 27 39 42 53 52 50 48 43 38 44 44 42 41 42 47 47 48 51 48 44
51 54 61 66 71 76 78 69 67 64 63 60 64 66 67 64 54 39 16 11 10 13 11 8 8 12 15 19 32 40 49 53 50 47 46 38 42 44 42 39 41 41 46 49 44 48 44
48 54 60 64 70 74 77 67 66 62 60 58 61 63 62 62 56 41 17 9 13 12 7 4 5 11 11 14 26 39 45 52 52 46 47 42 39 41 41 40 40 43 41 47 46 44 45
47 52 59 62 68 73 75 66 62 60 57 55 56 57 59 54 53 51 42 23 17 15 12 7 5 9 10 12 17 31 44 49 52 45 38 39 40 42 42 40 36 37 40 35 42 43 41
47 49 55 61 65 71 73 67 62 56 54 52 51 52 47 50 53 56 62 51 38 31 24 14 7 4 7 12 15 32 41 48 52 48 45 42 35 37 34 37 33 33 33 33 31 41 45
42 47 54 58 62 68 72 66 60 55 50 48 46 47 35 45 47 50 55 57 58 48 39 35 22 11 8 14 17 36 42 45 51 41 41 48 38 32 34 33 34 33 30 32 33 38 46
38 44 49 57 61 64 68 65 57 55 47 43 42 41 28 35 42 49 50 50 53 48 40 47 33 31 36 41 32 33 46 38 50 49 47 35 35 31 33 33 33 29 25 30 34 33 43
37 40 47 54 60 63 66 67 57 54 45 41 36 34 32 28 36 42 51 56 48 42 42 34 32 23 23 19 21 32 38 32 37 43 44 40 32 28 28 29 28 25 27 29 33 36 38
35 38 44 49 56 60 64 65 58 51 45 41 30 29 32 27 28 36 38 47 46 42 44 35 26 29 34 29 38 44 38 38 27 32 37 41 37 33 28 27 27 26 27 29 31 34 38
35 37 40 46 52 57 60 62 58 50 45 39 34 23 22 22 22 25 26 28 35 34 38 31 26 27 23 22 20 17 13 41 23 21 33 31 31 25 25 27 31 32 28 28 35 39 38
37 35 37 43 49 53 57 59 57 50 43 39 33 25 20 15 12 15 20 23 23 30 25 25 21 29 21 20 21 26 26 31 24 14 19 25 39 33 27 29 28 30 28 30 32 37 36
38 33 37 40 46 50 54 56 57 51 41 38 32 26 17 13 6 7 17 21 20 25 21 14 21 25 19 25 9 12 18 16 16 15 17 19 30 39 30 24 30 33 37 27 27 32 33
38 36 36 38 44 47 51 55 55 51 44 38 33 27 20 9 2 6 14 15 17 20 19 14 12 14 14 13 22 15 11 15 16 18 19 20 22 25 27 29 21 35 32 26 23 24 30
38 37 36 38 40 44 49 53 56 53 43 36 35 30 22 17 7 8 8 12 15 17 15 12 9 9 11 5 11 11 8 8 9 12 14 15 16 21 25 32 28 28 27 25 28 28 30
37 38 38 38 37 41 47 51 54 54 47 35 30 30 25 19 14 9 12 12 13 12 12 8 8 7 5 4 1 5 5 9 7 11 14 11 10 17 22 28 27 28 24 25 25 27 28
36 39 39 37 37 39 44 49 52 55 51 37 29 29 27 22 18 13 12 14 14 11 10 5 5 4 3 1 1 3 4 7 8 11 13 10 9 9 19 19 26 28 29 25 26 21 24
38 38 39 40 40 40 41 47 52 53 49 41 32 28 27 22 19 18 14 14 12 13 11 9 7 5 4 3 2 3 4 6 6 8 12 13 13 14 14 17 23 26 22 23 31 25 21
41 40 39 43 42 38 39 44 50 52 50 45 35 31 27 27 21 19 18 17 16 15 15 12 10 9 8 8 6 5 6 8 9 10 11 12 13 16 17 16 16 22 24 22 24 29 23
41 42 41 44 42 41 43 41 44 53 54 51 45 30 27 28 24 22 23 22 19 18 17 16 14 12 11 11 10 8 10 9 10 11 13 14 15 16 18 19 20 20 22 25 23 20 24
41 43 46 45 44 43 47 46 48 51 54 55 53 48 35 27 28 22 23 25 24 21 21 20 20 17 16 14 14 12 13 13 13 13 11 14 16 16 17 21 22 23 23 22 21 24 21
42 45 46 45 46 47 50 50 49 52 54 55 54 54 40 33 32 30 24 24 26 28 25 21 22 18 16 13 14 13 15 15 15 17 17 15 14 17 15 17 21 24 24 24 24 25 25
43 46 46 47 48 49 53 54 53 54 53 55 57 55 50 40 35 36 26 25 28 28 30 27 23 21 18 14 14 13 14 16 15 19 21 20 17 15 14 17 20 19 23 24 23 24 24
44 45 47 49 49 52 55 55 54 53 55 57 58 59 53 51 39 37 31 25 24 31 27 33 29 28 24 20 18 15 14 15 17 17 18 19 18 17 17 17 17 15 18 20 20 22 21
43 45 49 49 51 53 56 55 55 55 55 53 58 59 50 50 47 37 31 29 27 26 33 28 35 33 31 28 23 20 16 14 15 15 16 15 17 17 15 16 16 12 15 18 14 15 16
41 42 46 49 53 53 57 57 57 56 57 60 61 60 56 50 52 46 34 26 28 28 29 35 32 36 36 31 30 25 21 17 15 14 19 15 16 16 15 14 14 14 16 16 18 14 14
40 43 46 48 49 52 57 60 58 59 59 61 64 64 62 54 52 48 34 28 29 30 26 30 36 32 35 36 31 28 26 23 18 14 19 18 16 14 14 15 14 15 14 15 14 15 15
43 41 42 42 47 51 53 54 55 56 60 64 65 66 63 55 49 49 31 26 29 30 28 28 35 32 22 35 36 31 26 26 24 18 17 20 21 19 18 17 15 14 16 15 17 17 16

GFSGBSN_500_spd_072.txt.gz
Wind_Speed
44 52 54 61 70 73 74 79 76 69 65 65 67 65 58 59 57 34 19 14 8 10 11 9 8 13 30 49 50 55 54 55 59 53 49 48 46 47 49 46 46 43 49 52 48 49 50
44 52 55 60 67 76 75 76 72 68 64 63 63 56 53 63 70 52 21 13 15 13 15 12 7 8 21 41 48 51 54 49 58 54 51 45 46 43 45 44 44 44 47 51 49 48 49
45 51 54 61 66 72 74 75 70 66 62 60 60 46 54 65 66 62 45 19 14 15 16 14 7 8 15 33 47 51 52 48 54 54 51 43 46 45 42 43 43 43 45 46 47 49 59
44 49 49 59 65 68 72 73 70 63 59 57 52 46 54 63 65 63 53 39 19 17 11 7 4 6 12 23 38 46 50 47 49 56 48 43 40 46 43 42 43 43 39 40 42 48 53
43 46 47 57 65 67 70 72 69 61 56 53 49 44 52 59 56 58 63 49 39 26 22 10 3 7 9 18 34 35 42 44 46 54 41 41 36 45 45 44 43 45 37 34 36 45 46
41 43 47 52 60 67 69 70 67 60 54 50 49 41 50 62 55 51 57 61 54 51 33 22 3 4 7 14 33 35 35 42 46 52 36 39 36 42 44 41 39 38 44 35 37 38 41
39 44 47 48 55 63 66 68 68 58 52 47 45 37 46 52 58 48 54 60 54 52 49 38 12 6 7 14 26 43 36 40 48 60 43 32 32 32 39 39 36 34 33 34 30 35 39
37 42 46 49 52 61 64 65 66 58 51 44 41 32 37 43 47 48 46 51 53 47 50 42 32 13 7 12 22 40 38 39 45 49 48 41 29 28 33 36 32 31 32 31 35 33 33
36 40 47 48 50 57 58 63 66 58 51 43 36 29 29 35 39 43 47 43 49 43 45 45 37 32 18 15 25 39 40 39 39 43 40 39 33 26 32 32 33 31 28 29 28 33 33
33 39 45 43 51 52 55 59 63 61 50 42 35 28 21 27 29 35 41 38 43 43 43 41 40 32 23 22 31 38 44 43 39 36 39 37 38 26 28 30 30 30 30 28 28 30 32
34 38 44 46 49 48 51 56 59 61 55 44 35 29 19 16 19 27 34 33 34 41 45 33 38 30 27 37 31 21 41 52 45 38 43 36 33 32 22 25 28 25 27 28 25 26 29
35 39 43 46 46 49 48 53 59 60 57 47 39 29 22 17 14 21 29 28 30 31 39 34 30 24 26 33 29 27 21 44 45 26 32 32 30 29 25 24 25 22 25 25 26 29 32
37 42 44 46 44 51 44 50 55 58 60 53 39 32 24 15 15 16 22 24 26 26 24 26 30 23 21 19 21 24 28 28 35 33 26 29 29 26 23 26 29 30 28 29 30 32 32
37 40 43 46 41 50 42 48 51 55 57 57 47 37 25 19 14 16 17 23 25 24 22 20 19 23 25 8 18 23 20 18 21 21 25 27 24 25 27 28 25 25 27 31 32 30 24
35 40 44 45 44 43 43 44 48 52 57 57 52 41 31 24 18 15 21 19 21 23 19 15 14 15 18 16 11 16 17 15 14 12 20 24 26 37 34 28 26 25 28 27 31 24 19
33 38 42 46 44 42 46 42 45 51 55 56 54 46 36 30 21 18 17 19 18 18 18 14 7 7 9 10 11 8 7 11 14 16 18 19 17 30 39 32 28 26 22 30 30 29 28
37 40 43 46 45 44 44 40 43 47 52 57 56 47 41 31 26 19 18 17 18 17 13 10 5 3 3 6 7 7 3 9 10 16 17 16 18 21 28 32 28 28 28 36 35 32 29
41 44 45 45 45 44 41 38 42 46 48 52 56 51 44 34 29 25 19 18 17 15 11 9 5 3 2 4 6 6 5 7 5 16 16 14 14 18 24 26 28 29 24 27 31 28 24
45 46 44 47 41 43 41 37 40 43 43 49 54 52 49 44 35 29 24 20 18 18 15 13 11 8 6 5 5 7 10 9 9 10 12 12 11 12 14 21 27 30 30 30 28 27 26
44 49 48 48 42 40 41 40 42 44 45 47 52 55 51 47 42 34 30 23 22 20 20 17 15 13 11 8 8 7 9 11 12 13 15 16 17 17 16 17 21 25 28 32 31 29 22
46 49 48 47 42 40 39 41 42 44 48 50 52 58 59 53 49 47 35 28 23 23 22 20 19 18 16 14 11 12 13 12 13 15 16 16 17 19 20 21 22 22 23 28 31 24 23
49 49 48 42 40 40 38 43 40 45 51 56 57 59 60 59 55 55 44 32 27 24 26 25 21 22 22 19 17 16 15 15 15 16 17 19 18 21 22 23 25 27 27 22 24 28 27
52 51 48 40 38 39 37 42 43 45 49 54 58 59 60 60 59 57 53 47 36 27 29 28 26 22 24 23 21 20 19 18 17 19 20 20 19 20 22 24 25 28 24 27 27 27 28
53 55 46 36 37 37 38 42 42 46 49 55 58 61 60 60 62 61 63 52 42 29 26 30 30 28 25 23 22 19 19 19 19 20 20 21 21 20 18 23 25 19 22 25 26 27 30
58 58 41 37 37 36 39 41 42 46 51 54 58 59 59 61 66 69 67 50 41 31 28 25 32 30 31 26 26 23 18 18 17 22 21 20 24 25 24 22 19 18 20 22 24 23 23
59 57 39 38 39 39 41 43 45 48 52 53 56 58 59 64 72 74 67 58 51 43 30 28 27 33 30 34 30 28 23 19 18 16 20 20 20 22 22 21 19 15 17 18 20 19 17
61 54 42 40 39 37 39 47 52 52 53 53 55 58 59 64 67 69 76 65 57 41 30 31 27 27 29 32 37 33 28 25 21 17 16 18 18 18 21 19 15 15 18 16 17 17 16
60 44 42 43 41 41 44 49 50 53 48 51 57 59 65 68 64 69 77 67 53 35 29 27 27 25 30 31 33 39 33 29 26 21 19 17 21 16 19 18 18 17 16 15 17 17 19
48 43 43 41 42 44 44 49 50 46 48 54 56 59 65 71 70 71 75 66 56 31 25 26 26 25 28 29 32 35 40 31 27 27 24 18 19 21 18 16 16 17 16 17 17 18 17

GFSGBSN_500_spd_075.txt.gz
Wind_Speed
39 42 48 53 57 65 71 69 75 77 70 60 55 56 49 66 71 71 70 45 22 21 19 17 12 9 17 38 55 57 56 59 56 59 58 52 51 48 47 51 47 50 54 47 47 42 51
37 39 47 52 54 61 70 67 74 76 68 56 49 51 50 61 68 69 68 62 49 26 21 19 12 6 13 32 51 55 53 56 53 53 57 54 50 48 48 49 44 48 53 50 48 41 46
34 37 45 51 55 57 68 67 74 74 68 53 44 44 44 54 62 66 66 66 60 47 32 15 9 3 9 22 41 48 52 55 51 53 55 54 51 49 46 48 46 45 51 52 50 44 49
34 37 43 49 55 55 64 65 72 74 65 52 42 41 46 53 59 61 61 63 59 54 40 23 8 3 3 20 37 46 50 52 45 53 56 44 46 49 47 48 47 44 47 51 54 56 47
31 35 40 49 51 54 59 63 69 72 66 51 42 37 43 51 56 59 58 58 59 55 44 26 12 9 1 17 35 40 44 48 44 52 53 45 40 48 47 45 48 46 43 36 39 48 47
30 35 39 47 51 57 56 60 67 70 65 51 40 35 38 45 52 56 56 56 55 56 49 36 15 9 4 15 34 35 38 42 45 56 36 41 39 46 46 44 42 45 41 35 29 36 41
31 35 40 45 51 55 55 58 65 69 69 56 42 31 34 38 46 50 52 55 53 55 49 40 28 8 6 17 27 34 36 41 47 57 48 40 37 39 44 42 39 38 42 36 28 34 36
30 33 39 45 49 52 53 53 61 65 68 59 47 37 29 32 38 45 48 48 52 49 50 46 37 14 8 20 29 33 37 40 46 51 42 41 36 26 35 37 34 31 34 35 32 29 33
28 32 39 44 48 52 55 50 57 61 66 65 52 42 34 30 33 38 42 45 44 50 49 46 44 24 7 22 32 34 38 39 44 48 44 35 32 29 33 35 33 32 31 29 32 36 30
29 33 39 42 47 51 52 52 52 59 63 64 59 48 40 33 30 32 38 41 40 41 47 42 41 40 14 20 33 35 40 41 51 39 40 38 33 26 32 34 32 32 29 29 30 30 36
28 34 37 41 45 48 49 53 48 56 59 62 61 55 44 38 32 31 31 35 38 35 41 39 36 38 32 15 32 34 40 42 50 46 37 34 27 20 27 29 32 30 29 30 30 30 29
28 34 36 39 42 46 48 52 48 53 56 62 63 56 45 39 32 31 31 30 32 33 29 34 34 33 29 23 17 31 38 37 41 39 31 29 30 28 21 27 29 28 29 29 28 26 28
29 34 34 34 40 44 48 49 48 49 54 58 63 61 52 41 34 28 29 28 30 30 28 25 28 24 25 17 18 30 36 33 28 32 30 35 30 33 26 21 25 27 27 29 29 31 31
28 28 28 35 40 44 46 46 47 46 51 55 59 60 57 50 39 32 26 27 27 24 23 20 19 23 18 15 16 22 31 32 26 26 33 31 33 28 31 25 22 25 26 28 30 30 31
25 28 32 36 41 42 46 45 45 45 48 52 54 56 59 56 48 36 28 25 23 23 19 16 11 13 15 15 12 18 24 25 16 19 28 20 24 26 25 26 24 27 30 31 31 32 31
25 28 30 34 39 43 44 44 43 44 45 50 51 55 55 56 51 42 32 26 23 20 16 13 7 3 9 10 10 7 13 16 14 15 21 22 23 23 24 30 28 28 26 29 29 30 28
25 28 32 36 39 42 43 43 42 42 43 46 48 52 54 54 51 49 41 30 23 20 15 12 7 5 2 7 7 6 9 16 19 20 19 18 24 26 29 36 33 30 28 25 26 30 28
25 29 34 38 41 43 43 45 44 43 40 43 46 51 54 55 53 49 49 42 28 21 18 14 10 8 7 7 10 10 8 15 15 17 22 24 24 25 22 25 38 39 32 32 30 30 30
26 28 33 39 41 46 47 46 46 42 39 41 46 50 54 55 56 51 50 52 38 27 22 19 16 12 12 10 10 13 13 13 15 13 22 23 23 22 23 24 28 30 36 34 29 26 25
34 34 38 42 44 45 49 48 46 40 41 39 46 48 52 55 57 54 55 59 45 30 22 24 20 18 15 16 14 13 14 15 16 16 20 23 20 20 19 18 23 29 34 31 32 34 30
36 37 40 40 44 43 49 49 45 40 40 40 45 50 52 55 58 57 56 61 56 32 25 22 25 22 20 19 18 17 17 17 18 20 20 21 20 21 22 21 21 21 24 30 34 30 32
36 38 41 40 44 45 50 48 43 39 40 43 45 49 52 55 58 60 61 59 56 41 27 27 25 30 25 23 23 21 21 20 21 21 22 22 22 25 24 25 25 26 27 28 27 28 31
32 37 41 42 45 45 48 48 42 40 41 45 48 51 57 60 59 62 63 59 57 51 32 27 26 30 32 28 28 26 25 24 23 24 24 24 23 24 24 26 27 30 24 29 28 28 25
38 41 44 44 48 48 49 45 41 42 44 47 50 55 58 57 58 63 63 64 57 56 46 35 26 27 33 36 30 29 28 26 26 27 27 26 26 26 25 24 28 22 21 25 27 28 30
42 45 48 48 50 51 51 43 39 40 43 48 54 54 61 59 60 63 62 66 65 64 56 33 32 28 33 37 35 31 29 27 24 24 26 26 27 27 28 26 26 19 20 23 25 22 27
44 44 48 52 49 53 49 41 39 39 45 48 52 56 60 61 62 62 64 69 70 72 57 38 28 27 31 31 35 36 32 28 25 23 22 23 26 27 26 27 26 20 21 22 22 18 23
44 46 49 53 52 52 44 39 37 39 44 48 51 54 59 54 56 62 69 73 76 73 53 33 23 23 29 27 34 29 35 33 29 24 21 20 20 23 23 23 18 18 21 21 21 20 20
47 48 52 54 53 48 42 39 37 39 44 49 51 53 58 55 55 63 73 76 79 66 45 26 16 18 26 25 28 31 29 36 32 27 23 22 20 18 21 19 14 21 18 20 20 18 19
50 53 56 56 54 45 44 40 37 42 48 48 52 53 58 60 59 65 72 79 76 68 34 15 14 18 25 30 34 35 39 30 36 31 28 24 22 19 22 19 19 20 20 19 19 19 19

GFSGBSN_500_spd_078.txt.gz
Wind_Speed
32 36 36 40 45 51 58 63 66 72 77 80 78 65 53 57 62 65 69 68 68 66 51 15 11 8 9 23 53 50 51 60 55 54 56 51 49 50 45 46 46 46 47 44 38 39 50
32 34 36 39 45 50 56 63 65 69 74 79 76 65 56 53 60 62 66 67 69 66 55 31 10 7 5 13 49 51 51 56 51 48 55 50 50 51 46 44 44 48 46 45 44 41 38
32 33 33 37 44 50 56 63 63 68 73 77 76 64 53 51 56 61 63 66 68 66 57 39 20 11 5 7 28 52 49 53 47 45 42 45 49 52 47 45 44 46 44 44 45 44 42
29 30 33 39 43 49 55 60 61 66 71 74 73 65 52 49 51 58 62 64 65 65 58 43 25 18 11 4 26 39 50 49 42 44 44 43 46 49 48 46 44 38 44 43 46 53 42
27 29 33 38 44 48 53 57 59 61 67 73 75 69 58 49 49 51 58 61 61 64 59 45 25 19 8 9 28 34 49 47 47 49 45 36 45 49 48 46 44 42 43 42 48 52 47
28 29 33 37 44 48 50 53 58 59 63 70 73 73 62 49 48 48 50 58 58 61 59 53 26 15 9 12 25 30 46 44 45 43 41 41 43 50 48 46 44 42 42 39 43 46 46
28 30 33 38 42 47 49 50 54 60 61 66 71 71 66 52 47 47 47 52 55 56 58 56 39 14 8 17 23 28 41 40 43 42 39 37 39 45 45 43 41 38 40 37 36 36 42
29 29 33 37 42 44 45 50 51 56 56 62 69 70 66 55 48 45 44 45 52 51 54 53 47 18 8 15 24 30 34 40 40 40 46 37 37 41 41 40 37 35 37 39 33 32 33
28 29 31 36 40 39 42 48 50 55 52 57 64 69 67 59 50 45 44 42 45 49 51 51 48 24 10 17 26 29 34 38 36 45 37 32 40 32 38 38 34 31 31 36 34 33 31
27 29 30 34 37 36 39 45 47 52 52 53 60 66 67 63 55 46 43 41 41 42 45 44 44 34 13 22 27 27 35 34 42 38 40 31 36 27 28 33 34 31 30 32 38 38 35
26 28 29 33 32 34 36 43 45 49 49 51 55 61 63 63 59 46 42 40 39 37 38 38 38 41 17 19 25 24 33 34 46 41 34 26 32 28 25 28 33 31 31 32 31 34 36
25 27 28 29 29 34 35 40 43 44 48 46 52 56 60 61 59 55 43 39 35 33 31 32 31 34 23 16 22 25 30 36 44 37 25 29 27 29 23 28 31 32 31 31 29 29 27
26 24 25 25 28 31 35 39 41 44 46 44 48 52 58 59 58 58 50 42 35 30 29 27 24 26 25 14 17 27 29 38 43 37 32 30 31 22 20 26 30 30 30 29 29 29 27
25 23 24 25 26 28 33 38 41 43 45 43 44 50 53 55 59 56 57 48 36 30 26 24 18 16 19 12 16 25 27 42 37 34 28 28 27 25 19 19 20 23 27 29 31 31 29
24 24 24 24 26 28 32 38 42 43 45 41 40 47 51 54 57 57 56 55 41 27 22 21 16 12 11 12 15 22 23 29 30 33 22 26 23 23 25 24 22 23 30 31 30 29 28
24 26 24 22 27 28 31 38 42 44 45 42 41 45 51 52 54 56 55 56 43 28 20 17 14 9 5 7 9 24 24 24 23 23 27 30 26 27 27 26 30 28 25 30 31 33 33
25 25 23 23 26 29 33 38 41 43 47 43 44 45 50 52 53 56 56 56 51 41 21 16 11 9 7 6 7 14 23 22 20 19 18 24 23 21 27 30 28 30 28 31 33 35 33
25 24 23 24 28 31 32 36 40 44 47 45 43 44 49 51 52 58 57 55 52 48 31 18 14 10 11 11 13 12 15 23 25 24 22 24 25 23 28 30 29 33 37 35 35 33 29
25 24 24 28 30 30 30 35 39 43 47 44 44 44 48 52 53 58 56 52 50 48 40 34 22 17 17 16 17 18 20 19 24 25 24 26 30 28 29 32 31 30 37 35 31 29 28
27 26 28 30 27 27 30 35 38 42 47 44 43 46 48 51 54 54 57 51 47 47 43 39 38 26 21 21 23 22 20 23 23 26 25 24 29 28 27 27 27 26 26 35 40 40 38
28 28 30 30 26 28 29 33 37 43 46 46 43 46 48 51 54 55 56 54 51 49 51 42 35 26 23 25 26 26 25 24 26 28 26 25 26 26 27 27 27 24 26 29 33 35 35
29 29 30 31 27 28 30 34 39 42 45 46 42 45 47 52 55 56 57 57 54 52 55 52 40 31 25 26 31 30 30 27 26 26 28 27 27 31 30 30 28 26 25 26 28 29 35
31 31 32 36 34 31 33 35 37 41 44 43 41 43 46 50 53 55 57 57 57 59 58 60 51 41 31 26 34 34 34 32 29 27 27 28 27 27 27 28 29 30 21 26 27 26 27
33 32 32 35 36 36 35 35 37 40 41 40 40 42 43 48 51 53 57 61 60 61 62 62 62 60 33 30 29 33 35 35 35 31 29 28 28 27 26 25 31 23 21 27 28 25 29
33 37 38 36 39 39 36 38 37 40 41 38 39 41 41 47 48 50 56 61 62 64 66 70 64 57 37 30 31 31 37 35 34 32 30 29 30 29 29 27 28 24 21 23 28 22 27
39 35 35 39 38 41 40 41 41 40 41 38 40 40 42 45 45 52 57 61 66 69 70 69 63 47 30 25 32 32 33 34 32 32 30 29 28 30 29 27 27 23 24 25 25 21 24
40 41 39 38 38 41 42 43 43 42 39 38 38 41 43 43 46 55 58 63 68 73 75 66 50 35 19 17 24 30 34 29 33 30 27 27 27 27 26 27 22 20 25 28 26 23 20
43 40 39 39 42 43 45 43 44 41 40 37 37 39 41 42 46 54 58 61 68 74 76 60 38 23 14 12 17 21 22 28 24 32 27 27 27 24 20 20 14 18 21 24 24 23 21
44 42 44 45 45 44 45 41 42 39 38 35 37 38 40 42 43 51 56 62 68 75 75 50 30 18 12 13 21 22 28 29 26 31 30 28 26 25 22 16 18 18 17 21 20 20 19

GFSGBSN_500_spd_081.txt.gz
Wind_Speed
29 30 32 28 35 43 47 50 57 58 62 66 71 76 81 72 66 63 60 63 67 69 66 50 27 7 7 28 47 40 33 37 58 52 48 48 54 56 49 47 44 45 44 47 49 50 47
29 30 31 28 35 42 46 49 54 56 62 65 70 74 79 75 68 63 61 60 65 68 63 47 29 16 6 21 51 39 42 40 54 45 41 43 43 58 47 44 45 43 45 45 45 46 45
28 30 29 30 34 40 45 48 51 54 58 63 69 74 77 75 68 63 59 59 62 65 64 53 27 19 6 10 49 44 44 42 50 44 38 51 40 51 51 44 41 43 43 46 46 44 44
29 30 31 29 33 38 43 45 48 54 55 60 66 72 75 74 69 63 60 57 60 62 64 58 30 20 11 5 35 49 41 43 43 43 39 48 45 52 47 50 39 41 41 40 45 42 39
28 29 31 31 33 37 41 42 45 51 54 57 61 67 73 72 71 62 59 55 56 58 63 59 35 20 13 9 20 56 37 39 38 36 35 23 45 49 47 47 46 28 39 42 41 44 44
26 30 31 32 32 36 39 40 42 46 53 54 59 63 69 70 71 64 59 54 53 54 60 59 39 20 12 23 19 45 38 35 36 36 38 32 28 48 44 44 39 38 36 38 40 42 44
27 29 30 31 31 34 38 35 40 44 49 52 55 60 64 68 71 68 59 53 50 51 57 59 44 21 17 15 16 31 36 35 34 33 38 39 26 35 38 41 40 39 36 35 36 39 40
26 27 29 29 30 33 33 33 37 42 46 49 53 56 61 65 69 71 63 55 47 46 52 55 42 22 15 15 17 35 36 39 34 31 36 33 24 32 37 39 38 35 35 36 35 35 39
25 26 28 28 28 30 32 34 36 39 42 47 50 53 56 61 67 70 68 57 46 44 47 50 42 24 19 19 20 32 30 33 34 31 28 30 27 26 35 34 35 34 33 31 31 34 37
23 24 27 27 27 26 30 31 34 36 39 43 47 50 54 58 64 68 67 59 49 42 43 43 41 25 22 18 19 29 27 29 26 33 26 25 26 28 31 33 32 31 29 28 28 31 35
23 23 26 25 24 23 27 30 32 36 39 41 47 45 51 56 61 64 64 61 53 43 39 37 39 26 18 19 26 18 24 23 29 31 31 21 26 27 23 28 33 31 28 27 26 29 33
22 21 24 23 20 21 23 26 32 35 39 39 44 46 46 53 57 62 61 61 52 43 34 32 32 28 16 18 12 18 25 23 33 28 31 26 24 28 22 25 32 32 30 28 26 25 33
20 20 22 19 17 18 20 24 30 35 39 40 41 44 46 51 54 60 61 57 56 45 34 27 25 26 15 10 11 19 26 29 33 23 26 22 23 27 23 23 30 31 28 27 27 30 30
20 20 20 18 16 16 19 23 28 32 37 40 41 42 45 47 53 57 59 56 53 53 34 22 19 19 19 6 10 20 22 27 38 29 29 26 25 23 27 23 22 28 29 29 30 30 28
22 21 21 19 17 17 19 23 25 30 35 40 39 41 46 46 51 55 58 58 53 47 41 25 17 12 13 10 8 17 22 26 37 38 31 26 25 23 19 20 25 27 31 30 28 29 28
24 23 23 20 18 18 19 24 23 26 32 38 39 40 43 45 48 52 56 56 50 42 42 38 22 10 6 7 0 13 21 27 32 37 36 28 26 28 25 22 22 24 23 28 31 31 31
25 25 23 21 19 18 20 23 23 25 30 35 39 39 42 43 45 49 53 53 49 42 40 39 32 16 7 6 5 12 16 24 35 34 32 33 27 28 30 30 25 25 27 26 27 31 33
27 28 24 22 20 19 20 21 23 26 29 33 36 38 39 40 42 47 50 50 50 44 40 40 31 27 16 13 13 15 22 25 29 26 23 26 30 33 28 28 30 32 29 32 33 31 30
31 30 26 22 22 22 22 21 23 25 28 31 34 36 37 38 40 44 47 48 49 49 43 40 35 35 26 21 23 24 25 29 34 35 32 29 27 29 31 28 27 28 28 28 33 37 32
32 31 27 23 23 24 21 21 21 25 29 31 33 35 36 37 39 43 47 47 50 52 49 44 41 42 38 24 28 31 28 27 30 30 31 34 34 33 33 32 29 29 33 34 35 39 40
35 30 27 24 24 22 21 21 23 26 28 31 31 33 36 37 37 42 46 46 49 52 53 54 51 50 49 29 27 32 34 31 29 29 30 30 29 30 34 36 34 31 29 31 32 31 40
32 30 28 25 24 23 24 25 22 25 25 29 32 33 35 36 38 40 46 47 51 53 55 57 61 60 54 41 27 32 38 34 32 31 32 32 29 26 26 29 31 30 28 26 24 24 28
38 34 28 27 26 27 25 24 25 27 28 30 34 35 35 38 37 40 45 47 51 54 55 61 66 70 60 50 33 28 33 34 34 32 31 31 31 29 28 30 31 30 23 27 28 24 22
38 38 30 27 28 29 27 27 29 28 31 31 35 36 35 37 37 41 44 46 51 55 57 62 70 75 67 48 28 26 29 32 34 35 33 30 29 29 30 28 34 29 21 25 27 23 26
41 35 32 29 31 32 33 31 30 28 31 30 34 35 37 37 37 40 42 47 51 55 59 66 71 72 61 41 23 17 25 27 30 27 35 32 29 29 30 28 30 23 20 23 26 20 26
43 39 36 34 34 34 30 31 30 31 32 31 33 33 36 38 38 40 43 46 50 55 60 66 72 69 52 34 21 12 31 25 24 32 25 33 30 29 30 28 28 23 22 22 25 24 24
50 35 38 38 38 38 36 35 33 35 31 31 32 31 33 37 37 40 44 47 49 56 61 66 70 59 41 28 16 7 32 29 15 21 30 25 28 26 27 27 27 20 20 24 25 25 24
48 39 35 34 37 36 35 35 37 39 32 32 35 31 32 34 36 40 45 46 50 56 63 67 66 46 31 21 11 6 19 33 24 22 24 22 25 23 23 24 22 17 25 24 23 22 23
47 44 42 36 34 37 37 39 41 40 37 37 37 32 30 29 37 42 45 45 49 55 60 66 55 33 23 19 11 8 14 17 24 26 14 25 25 22 21 20 19 17 19 18 17 17 18

GFSGBSN_500_spd_084.txt.gz
Wind_Speed
29 29 29 32 34 34 34 39 41 42 47 52 56 61 67 74 78 78 72 67 61 61 64 58 39 19 6 17 47 46 30 32 43 57 50 52 50 54 57 51 51 48 52 46 52 51 50
29 28 29 30 35 35 36 38 40 40 45 51 54 58 64 72 76 79 74 66 61 61 64 58 36 23 3 17 46 38 28 33 36 54 50 35 44 50 59 43 47 51 48 48 53 52 48
27 27 29 31 32 35 36 37 39 38 43 47 52 56 62 68 73 77 74 65 62 62 64 58 34 24 9 10 43 44 34 28 30 50 47 37 43 41 54 49 50 48 48 49 44 51 50
26 27 28 29 30 34 34 36 32 37 40 43 49 53 58 64 70 75 75 68 61 61 65 56 34 25 12 9 39 39 30 33 31 46 44 36 38 46 52 49 46 45 50 47 36 47 51
24 25 26 28 30 32 32 34 32 37 38 40 47 51 56 61 68 72 74 68 60 61 63 55 37 24 14 10 43 44 32 33 31 46 46 33 34 45 52 47 47 38 47 46 39 41 43
22 23 24 27 29 30 30 32 33 33 36 38 43 48 53 59 64 68 70 68 61 58 60 54 38 24 25 16 42 37 30 29 30 44 37 31 32 33 54 42 43 31 41 42 42 38 41
21 22 21 24 27 29 29 30 29 28 33 36 40 46 51 55 61 66 69 65 59 55 55 54 40 26 18 13 47 35 26 25 27 43 32 24 28 34 39 39 50 36 27 40 39 40 42
21 22 19 19 23 27 27 27 28 29 31 33 37 42 47 51 57 63 66 64 56 53 50 50 40 31 25 16 43 36 27 23 29 36 30 19 24 37 40 44 43 41 34 31 34 37 36
22 22 19 16 19 23 23 24 25 26 29 30 34 39 43 49 54 59 62 63 55 50 46 47 36 30 26 22 30 26 28 25 33 37 28 15 19 18 38 40 37 37 36 34 34 32 32
23 22 20 14 17 19 18 20 21 24 26 30 31 35 40 46 51 56 60 60 56 50 44 44 32 25 23 24 26 21 23 22 25 28 34 25 19 19 27 34 36 35 32 32 30 29 29
24 23 21 15 15 15 16 17 19 23 24 30 29 33 37 43 47 51 55 55 56 50 44 37 32 22 19 21 19 16 21 21 26 22 26 25 23 20 22 27 27 28 30 30 29 27 29
26 24 23 17 15 13 13 14 17 20 23 28 29 31 35 39 43 48 52 52 54 51 41 34 29 16 16 14 10 13 19 18 22 24 22 22 22 26 21 24 28 28 28 28 27 28 30
28 26 23 20 17 14 13 14 17 18 20 24 29 30 33 36 40 45 48 50 51 50 45 34 24 22 5 3 7 11 15 21 24 30 29 25 24 24 23 23 23 27 28 29 28 30 30
30 27 25 23 21 15 14 13 16 16 19 24 27 29 30 34 38 41 45 47 49 49 39 30 27 16 13 0 6 15 19 18 27 27 29 29 27 24 26 25 20 23 28 30 30 30 32
30 29 27 25 23 18 16 13 16 15 18 22 25 26 27 31 36 39 43 44 47 48 39 32 25 18 10 7 6 16 23 19 32 28 29 27 24 22 25 26 23 22 31 33 32 30 28
30 30 28 28 26 21 18 14 12 14 17 20 23 25 26 29 33 36 40 42 44 45 42 33 28 23 15 10 8 13 23 27 34 34 29 31 24 26 24 23 26 28 26 30 33 33 30
31 31 30 30 26 21 20 15 13 13 17 19 21 24 25 27 30 33 36 40 41 45 43 39 33 28 24 17 16 17 17 24 32 43 39 31 25 24 26 29 22 20 24 27 29 32 32
34 32 30 29 25 22 21 17 15 14 15 19 21 22 23 24 27 31 33 39 42 44 45 42 40 39 32 29 17 23 22 24 28 37 45 38 35 28 27 31 31 28 25 27 28 30 30
37 33 33 29 27 23 21 18 15 15 15 18 22 22 23 24 26 31 33 35 39 42 45 47 47 47 47 39 29 19 28 29 30 30 39 41 35 36 37 33 34 29 29 29 31 34 33
36 34 32 33 28 24 22 19 16 14 16 17 22 24 25 26 28 31 32 35 37 41 43 47 49 54 55 51 38 21 26 34 36 35 37 40 35 31 30 32 32 33 29 30 33 34 31
40 36 36 30 27 24 24 18 17 17 15 16 21 25 26 27 27 30 31 35 37 42 45 50 52 55 60 62 46 27 25 32 35 36 39 39 39 36 38 35 32 35 31 31 29 30 34
36 37 37 34 28 24 25 16 18 17 17 17 22 24 27 26 30 30 31 34 37 40 46 50 55 58 62 64 48 33 19 27 30 33 32 31 27 31 26 33 37 36 37 35 32 31 32
47 42 44 34 30 25 23 19 20 19 19 20 20 24 27 26 29 30 30 33 37 41 46 52 56 61 65 65 52 32 20 28 22 31 33 31 37 37 33 27 31 35 34 36 32 30 28
48 41 35 31 30 26 24 20 22 22 21 20 21 25 27 28 29 31 31 34 36 42 46 51 56 61 65 65 47 32 16 25 30 27 26 28 33 31 32 31 34 29 25 28 29 27 27
49 47 43 30 30 31 25 21 22 20 19 20 22 24 27 30 32 33 32 32 36 41 45 51 56 62 67 63 43 27 12 19 24 31 39 26 27 26 28 28 32 25 21 21 23 21 23
51 46 42 37 32 30 27 26 24 24 24 25 24 24 29 35 35 35 34 34 36 40 45 51 56 61 64 56 38 23 3 21 20 21 29 23 30 31 30 29 29 22 20 20 22 22 24
55 49 38 35 41 31 32 29 30 27 23 26 28 27 31 36 37 36 33 32 35 39 45 51 56 60 60 45 31 20 6 22 11 14 28 19 18 24 30 29 28 21 22 23 25 25 27
54 51 48 40 44 33 28 30 28 26 27 27 29 28 31 36 37 37 33 31 34 38 44 50 54 58 55 34 26 20 10 26 20 14 15 16 16 19 25 27 24 20 21 25 27 26 25
51 50 47 45 41 41 32 25 26 28 27 27 28 30 35 36 37 37 32 31 32 37 42 48 53 57 48 27 24 19 12 12 28 27 18 17 20 20 20 24 23 19 21 23 25 24 23

GFSGBSN_500_spd_087.txt.gz
Wind_Speed
26 28 25 26 27 30 31 34 34 34 36 41 41 45 50 58 63 69 76 80 78 72 71 59 37 21 4 13 18 40 34 39 29 45 55 55 46 50 55 63 43 48 54 50 52 45 46
26 26 25 25 24 27 30 33 33 33 35 38 39 44 49 55 60 68 74 78 77 73 71 60 39 22 5 12 29 30 39 38 33 39 50 53 43 50 57 55 54 45 36 51 49 46 45
27 25 24 26 22 24 28 32 31 31 34 35 35 42 46 52 57 65 71 75 76 73 69 62 44 29 8 18 36 37 32 37 36 38 46 41 46 38 54 54 52 51 43 41 48 34 46
27 25 26 25 22 22 25 29 29 30 29 32 33 39 44 49 55 62 68 72 73 70 68 64 49 36 13 24 49 28 33 30 35 35 42 41 41 46 40 51 55 52 48 47 41 44 46
27 26 26 24 22 21 22 26 28 26 28 31 30 35 41 45 52 59 64 69 70 68 64 63 52 35 18 32 45 24 28 27 38 36 42 32 30 35 40 48 47 55 47 41 39 44 40
26 27 25 23 20 20 20 24 23 25 27 29 27 31 37 42 49 56 60 65 67 63 60 57 54 34 17 38 28 21 18 23 29 36 36 28 30 31 37 46 45 43 45 47 41 42 44
29 27 26 23 19 19 18 20 21 23 25 26 24 28 34 39 46 52 57 61 61 61 56 56 51 34 26 42 29 15 12 24 22 37 37 20 30 30 32 36 52 41 41 45 44 48 42
31 27 26 24 19 17 17 18 17 19 22 24 24 26 30 36 42 48 53 58 57 59 52 50 46 37 20 31 22 17 14 18 24 38 35 21 17 23 32 34 39 40 38 42 46 50 42
31 29 27 25 20 18 17 16 15 17 20 22 22 24 28 32 38 44 50 55 53 55 50 46 42 37 22 17 16 15 19 24 31 37 26 21 28 24 21 32 39 37 35 34 42 46 45
28 30 28 28 22 20 17 16 15 15 16 19 20 22 25 29 35 40 44 50 51 50 46 43 35 30 28 21 14 20 19 22 35 33 25 25 21 17 19 25 39 43 40 37 27 37 38
37 30 29 29 24 23 19 17 15 15 14 16 19 21 23 27 32 36 40 44 47 47 46 38 31 28 22 18 11 13 16 22 32 35 22 18 18 19 18 32 37 40 44 38 36 32 32
39 30 27 31 28 26 21 19 15 15 13 15 19 21 22 24 29 34 37 41 43 44 38 33 28 22 16 12 7 5 15 19 31 32 31 24 20 15 14 23 35 31 30 32 31 33 35
30 32 28 32 31 30 22 21 17 15 14 15 18 20 20 21 25 30 35 36 38 43 45 34 28 20 15 10 5 4 9 16 23 27 28 30 27 25 22 19 23 25 29 32 32 34 34
37 37 33 32 32 30 25 23 18 14 14 15 18 18 20 19 23 27 30 33 36 38 39 37 28 23 17 13 12 12 17 20 23 28 30 30 28 27 28 29 25 27 31 30 31 30 30
40 39 33 32 34 33 29 25 17 15 13 13 17 18 19 18 21 24 27 30 32 35 34 32 29 23 23 15 15 15 19 25 24 25 28 29 29 24 26 27 27 28 30 32 34 35 36
49 35 37 34 34 34 31 27 18 15 12 11 16 17 18 17 18 23 26 28 30 33 35 36 34 29 25 24 18 17 18 23 28 25 29 29 22 29 26 28 29 26 23 28 33 37 35
43 35 34 34 35 34 34 28 20 18 12 10 15 16 16 17 18 22 24 28 30 32 36 38 37 37 36 31 26 15 20 21 25 32 33 33 34 32 29 27 28 29 30 29 28 33 33
51 47 43 35 36 35 33 26 20 19 14 11 13 15 15 18 20 22 24 25 30 30 34 38 40 44 44 45 37 22 19 22 26 32 43 35 34 34 27 29 29 29 27 26 31 30 31
52 42 33 36 38 35 32 22 21 19 16 11 13 15 16 19 20 22 24 26 28 29 33 37 41 46 49 50 48 32 16 27 32 29 34 42 46 35 31 29 31 32 31 25 24 26 26
56 43 42 39 39 34 32 26 23 21 14 12 10 13 17 19 21 23 24 26 28 29 32 38 42 48 54 56 54 43 24 21 33 30 28 33 36 47 41 37 37 33 32 31 31 33 29
58 46 44 36 37 33 31 26 23 21 14 13 10 12 16 19 22 23 24 28 29 30 33 37 42 48 54 58 61 43 32 21 22 30 37 28 31 32 38 41 34 35 38 36 36 32 33
63 51 44 42 39 31 29 30 25 20 12 11 10 10 14 18 20 23 25 28 30 30 34 38 42 47 54 57 61 52 37 23 22 27 36 37 32 29 32 33 32 36 34 31 35 36 32
62 53 46 41 38 34 30 28 26 19 14 17 10 9 15 18 20 24 25 29 31 31 32 36 43 48 54 57 61 57 42 27 21 28 32 32 26 35 29 32 22 33 32 34 33 32 33
60 54 52 45 41 37 29 30 25 20 18 17 12 11 15 19 23 27 28 31 33 31 33 37 43 47 51 56 59 60 43 26 17 27 27 41 16 26 35 27 37 28 25 25 31 34 35
53 55 51 43 41 37 34 29 23 21 16 13 13 15 18 22 25 29 31 33 34 33 33 36 43 48 51 55 57 52 37 22 9 31 26 29 39 20 23 30 34 37 28 28 29 27 28
58 49 51 46 45 37 33 26 23 19 17 17 18 16 18 22 25 31 34 31 34 34 33 36 42 48 53 55 56 41 30 8 1 29 22 28 25 22 27 27 29 33 28 26 26 20 25
55 50 40 43 44 37 25 21 21 20 19 20 17 17 19 22 26 30 30 32 32 31 32 37 42 47 51 54 51 37 23 2 8 14 20 27 30 21 21 23 26 26 20 22 24 25 23
48 46 44 47 38 37 27 28 21 23 22 19 18 19 19 24 27 28 30 31 29 30 31 36 40 47 49 51 45 31 22 10 15 15 14 17 24 16 20 22 28 24 22 23 25 25 23
50 43 47 33 34 33 28 27 26 16 16 19 19 18 20 25 28 28 31 30 27 28 31 35 40 44 48 48 41 26 20 14 11 23 15 15 20 21 20 19 22 22 22 22 24 25 26

GFSGBSN_500_spd_090.txt.gz
Wind_Speed
30 30 28 27 26 26 27 25 28 28 28 29 33 35 39 42 47 54 62 70 78 82 84 82 67 41 3 13 3 26 44 36 48 58 59 30 29 52 60 59 60 56 51 56 58 56 42
30 31 28 29 25 26 26 25 26 26 26 27 31 32 36 39 45 53 60 67 74 78 81 80 69 45 8 15 9 33 43 29 38 55 49 40 31 44 60 57 53 49 53 57 52 51 61
29 30 31 28 26 26 24 26 24 25 24 26 29 29 33 36 41 49 57 63 70 74 77 78 68 45 14 18 20 41 22 22 36 33 48 37 29 33 56 56 60 47 41 50 42 59 56
30 30 30 29 29 26 24 25 23 23 23 25 27 26 30 32 38 46 54 60 66 71 73 74 64 40 16 23 32 33 26 21 34 27 36 40 33 31 35 54 67 46 33 54 59 44 56
31 30 29 30 29 27 24 24 22 22 23 24 26 23 27 29 35 42 49 55 60 67 69 67 61 37 29 25 24 20 17 24 32 29 35 38 38 29 31 48 58 54 39 40 38 40 44
32 30 30 31 29 28 24 23 22 20 22 23 23 22 25 27 31 38 44 51 56 61 66 64 60 36 27 21 22 21 14 20 24 25 36 40 38 37 32 28 42 50 46 40 35 30 44
36 29 33 32 30 28 25 24 21 18 21 21 21 20 22 25 29 34 40 46 50 56 60 62 55 44 14 14 18 18 17 22 25 21 30 34 29 34 36 30 41 47 44 42 40 37 30
38 29 34 31 32 28 26 24 21 18 20 20 20 18 20 23 28 31 36 41 46 53 54 56 49 41 27 12 4 8 9 24 26 25 27 33 21 23 36 36 33 39 40 40 28 37 26
43 35 30 32 32 29 28 24 22 18 19 19 18 17 19 21 25 28 32 37 41 46 49 50 43 39 29 16 13 13 15 21 25 30 25 28 23 23 25 36 33 40 39 41 47 36 40
55 40 32 29 30 29 29 25 25 19 18 18 18 17 19 18 21 26 30 34 37 41 45 46 38 34 30 21 13 14 15 17 27 32 28 21 17 15 18 28 30 29 45 40 45 47 46
49 48 41 29 30 29 29 28 28 21 18 17 18 16 18 18 18 22 26 30 34 35 40 42 38 34 24 21 12 4 6 14 24 30 26 22 22 25 22 18 24 36 34 39 38 37 40
48 54 43 45 31 31 30 32 31 24 19 18 19 19 17 18 18 20 23 27 31 31 29 32 36 29 23 17 13 9 4 11 22 31 29 23 22 22 23 25 28 29 35 40 37 35 39
53 49 52 44 32 31 32 33 34 25 21 17 17 18 17 18 18 18 21 24 27 31 32 28 26 24 20 18 15 10 8 11 20 27 27 26 20 21 19 15 23 30 30 37 44 42 37
52 53 53 45 31 31 33 36 37 27 23 16 17 16 18 17 18 16 19 23 24 28 30 28 25 27 20 18 16 14 12 17 20 26 33 37 31 28 26 20 18 25 30 35 36 41 36
52 54 51 52 40 38 34 37 36 29 24 16 16 15 16 16 16 15 19 21 22 26 29 29 29 29 28 28 27 12 12 17 23 29 33 35 37 35 33 30 29 24 28 28 24 27 32
61 53 54 58 49 39 37 39 37 32 26 16 15 12 14 14 15 16 17 21 22 24 27 30 33 37 39 40 35 25 15 16 21 26 32 31 33 34 34 30 28 29 30 33 31 31 33
65 56 55 57 50 40 43 40 38 33 27 20 16 11 10 11 14 15 16 20 22 24 26 29 33 38 41 44 42 31 15 17 23 27 28 29 28 31 31 35 27 29 30 29 28 30 31
67 60 61 59 57 46 42 42 37 33 26 22 19 12 11 12 14 15 17 19 22 22 24 28 32 36 42 46 43 40 28 20 23 23 24 28 34 34 34 23 25 29 30 29 28 27 28
72 66 65 64 49 43 41 40 37 31 27 21 21 16 13 12 15 17 16 19 22 22 23 26 31 36 42 48 50 43 37 27 22 22 23 27 42 39 38 40 34 33 31 32 31 30 29
76 69 67 67 48 45 43 40 35 28 27 20 21 18 14 12 15 16 15 17 21 25 24 28 32 37 40 46 50 53 43 35 20 26 32 25 32 40 37 31 36 31 32 32 33 33 23
78 72 67 64 44 51 42 39 35 28 23 17 20 19 14 12 13 15 14 19 23 25 26 27 30 35 40 45 50 53 51 42 29 20 30 38 31 33 32 35 40 32 31 33 31 30 32
73 71 73 60 47 45 41 36 34 31 24 18 16 12 12 9 10 12 14 20 25 25 27 28 29 35 40 45 48 53 55 49 31 18 23 35 43 14 25 27 28 26 39 27 33 35 36
74 72 74 54 50 48 42 43 32 30 23 20 17 10 10 9 11 13 17 22 24 26 25 25 29 34 39 45 49 54 58 52 29 24 27 35 41 10 17 23 28 24 24 35 33 30 28
77 77 69 53 51 47 47 37 30 29 23 20 15 11 8 7 10 13 16 22 23 24 26 26 28 33 38 43 49 54 58 55 30 22 14 32 32 28 5 20 28 25 21 21 26 26 28
75 75 62 51 58 54 42 38 28 28 25 23 15 12 9 9 11 13 16 19 22 24 24 27 29 33 38 43 49 53 54 52 31 14 8 23 25 25 8 19 26 26 24 26 20 19 20
66 67 60 52 55 50 42 39 33 27 22 19 12 7 8 10 11 13 16 20 23 24 22 24 27 33 39 44 49 51 53 47 26 2 12 13 20 35 23 20 15 20 24 23 26 23 21
65 61 57 48 49 57 48 39 32 31 25 18 11 10 9 9 13 14 17 21 25 24 25 25 27 33 38 43 48 50 50 35 18 4 16 13 18 21 24 15 16 19 16 16 23 25 25
69 58 51 55 49 46 45 36 28 26 24 16 8 9 9 12 14 19 20 21 22 21 23 24 27 33 38 42 46 49 45 31 17 8 12 15 17 20 31 30 20 17 21 22 23 23 22
67 49 46 52 50 51 43 35 29 21 18 19 12 9 10 13 17 17 17 19 19 20 21 23 25 32 37 40 43 46 43 30 17 13 9 18 15 16 20 18 22 22 19 25 24 23 23

GFSGBSN_500_spd_093.txt.gz
Wind_Speed
32 34 29 29 26 29 28 26 27 28 29 29 29 30 31 33 33 39 46 52 58 66 76 82 84 69 35 2 2 23 29 45 47 44 28 32 43 54 57 54 58 57 60 57 50 52 56
37 32 31 30 28 28 28 27 26 27 28 28 28 30 30 30 31 37 43 49 56 63 72 78 80 73 41 11 4 30 32 42 50 49 30 29 31 50 59 53 51 52 51 55 46 53 52
52 37 32 30 29 28 27 27 28 27 27 28 27 28 28 29 29 34 39 45 52 60 67 75 72 73 41 19 22 32 22 41 46 47 24 21 22 41 53 58 65 47 49 63 55 46 55
49 55 37 29 31 29 27 28 29 27 27 27 26 26 26 27 27 32 35 42 48 55 62 71 67 62 42 24 29 20 22 33 43 49 29 18 17 32 52 61 53 62 49 53 51 58 32
52 47 54 35 29 28 28 28 30 27 26 26 25 24 25 24 25 28 32 38 45 52 58 64 60 50 38 26 29 13 19 30 41 41 27 19 15 17 37 56 54 49 55 46 54 49 52
44 44 51 46 32 31 27 28 30 27 26 24 23 22 23 22 23 25 29 34 40 46 52 57 52 53 36 23 21 17 13 18 30 37 33 25 14 11 20 43 53 45 48 45 48 49 56
40 44 41 53 39 29 29 28 29 28 27 23 24 21 21 21 21 21 26 31 35 40 46 51 55 48 34 25 11 11 16 18 25 24 33 19 22 20 19 30 47 48 50 44 37 35 50
45 42 41 42 49 36 28 28 30 29 28 23 22 20 19 19 19 19 23 29 31 37 41 44 46 43 35 27 16 12 15 17 16 17 25 28 27 29 26 26 28 45 51 51 36 27 32
52 46 42 41 48 36 29 30 32 31 27 24 19 18 18 18 17 18 21 26 29 30 35 39 41 39 32 25 16 12 14 17 16 17 19 28 23 26 30 28 25 23 36 42 47 44 34
60 48 46 43 40 51 34 28 33 33 26 26 18 18 18 17 16 18 20 23 26 27 32 34 34 33 26 24 14 7 8 12 17 18 24 30 25 21 23 27 36 30 29 35 42 34 34
64 54 50 46 38 45 39 26 35 33 28 28 19 18 19 18 17 17 19 19 22 26 27 30 31 31 29 20 17 8 4 8 17 23 25 31 27 23 27 26 33 37 35 34 37 35 38
65 60 53 49 41 38 38 30 34 36 31 32 22 19 19 17 15 16 16 17 19 23 23 27 29 30 26 22 15 11 5 8 16 26 28 29 28 24 22 20 26 30 32 32 39 40 43
71 65 57 55 43 40 38 35 35 37 32 33 24 19 17 15 13 14 14 16 17 20 23 26 27 29 29 24 15 12 10 11 13 23 30 35 29 24 23 25 25 26 32 37 37 41 42
76 69 61 58 40 40 44 37 33 40 34 34 27 19 16 14 12 13 13 15 15 18 20 25 25 27 28 28 20 17 13 15 18 20 29 38 33 29 28 23 24 24 29 34 37 38 37
77 74 66 60 45 45 40 46 27 42 35 33 26 23 15 13 10 10 11 14 14 15 18 23 26 27 29 30 29 23 15 15 20 27 30 33 34 31 25 22 22 21 22 35 35 35 37
75 77 70 63 51 45 43 41 40 39 38 33 28 26 15 11 6 8 9 13 14 15 16 20 24 28 34 37 37 33 26 20 21 24 32 35 35 40 40 37 36 32 27 26 32 33 33
72 80 72 65 50 48 44 44 49 40 39 32 25 27 17 11 6 7 8 12 14 14 16 20 23 28 32 37 40 39 32 26 20 25 25 25 33 35 38 37 34 31 30 31 30 29 28
77 82 74 62 52 48 43 40 37 38 38 32 26 26 20 14 8 6 9 10 12 16 17 19 22 26 31 36 36 40 39 34 22 19 18 17 27 29 29 30 35 36 29 28 29 30 31
79 79 73 66 59 49 41 42 43 42 38 34 26 28 25 17 11 8 9 8 11 15 17 17 20 24 28 34 39 39 43 39 27 19 18 27 23 25 31 29 31 29 36 30 30 29 29
80 78 72 62 62 50 43 46 44 45 40 34 26 28 27 20 13 9 7 7 10 15 16 16 19 22 26 31 37 42 44 44 33 24 17 26 22 30 28 20 33 32 27 26 31 33 28
81 78 71 64 62 50 45 40 50 44 37 31 23 30 28 20 14 8 5 6 10 13 15 17 19 22 26 31 35 41 46 47 46 31 25 26 38 29 26 36 34 33 31 33 35 33 36
81 75 73 63 57 48 41 49 54 45 37 26 24 28 25 18 13 8 6 7 10 11 14 15 17 21 26 31 36 40 46 49 46 37 30 23 36 40 28 22 32 33 35 27 28 34 32
83 76 71 61 59 54 49 56 50 43 29 25 24 25 20 18 11 7 5 6 10 11 14 15 17 20 25 31 35 39 45 50 47 39 25 16 29 36 31 17 17 28 26 27 32 25 29
81 75 69 61 52 51 47 54 46 40 33 30 28 26 23 19 11 5 4 4 8 13 17 15 16 18 25 30 34 39 45 50 49 38 20 13 27 22 32 1 9 19 21 16 21 30 35
79 76 73 67 60 48 52 43 36 39 35 25 26 26 24 18 11 6 3 5 10 14 17 15 17 20 24 28 34 39 44 46 46 45 22 10 23 28 25 7 13 13 13 18 19 16 27
79 75 69 61 57 56 57 43 42 34 34 21 25 20 24 16 12 7 2 7 11 13 16 16 16 18 24 29 33 37 42 48 48 37 15 10 4 13 26 18 5 8 14 21 20 21 20
75 72 67 59 54 64 47 43 44 40 26 21 29 23 18 15 9 3 5 10 14 13 13 14 15 19 23 28 33 37 41 46 42 31 16 8 8 6 26 26 19 10 14 13 18 23 25
72 69 64 65 64 50 47 48 45 36 26 27 26 23 20 14 8 3 6 10 11 11 13 14 16 19 23 27 32 36 39 41 39 28 17 10 9 12 16 18 21 24 15 17 18 19 20
71 68 65 64 62 49 53 51 44 38 32 24 21 23 18 13 8 2 4 9 8 13 13 13 16 19 23 27 32 35 37 41 39 23 14 12 9 10 14 19 19 24 30 29 23 21 22

GFSGBSN_500_spd_096.txt.gz
Wind_Speed
45 45 44 42 46 33 32 32 31 30 29 29 30 32 32 30 31 31 34 36 42 49 56 65 73 75 59 30 13 22 40 31 36 24 25 45 59 61 60 48 45 63 51 65 53 55 56
47 47 41 39 42 45 34 32 31 30 28 30 30 31 31 29 30 29 30 32 39 45 54 62 69 70 59 32 22 20 35 33 32 28 29 33 52 57 63 52 40 55 42 55 53 52 51
50 47 42 44 43 42 42 33 32 31 29 29 30 30 29 28 28 26 27 29 36 42 50 56 63 66 54 35 22 40 35 36 32 27 23 33 46 58 64 61 53 53 40 49 60 44 47
56 46 45 42 37 36 39 38 33 30 29 31 28 30 26 26 26 24 23 26 32 39 46 52 57 56 48 34 25 29 32 32 30 25 25 24 31 51 53 57 58 66 47 44 55 46 55
51 46 45 43 43 35 35 41 32 30 28 31 27 30 22 24 23 21 21 24 28 36 42 46 49 46 40 34 32 33 34 34 22 18 17 15 25 37 51 51 49 52 55 61 53 46 35
49 49 47 44 42 39 35 39 38 33 29 31 30 29 20 22 22 19 19 23 25 31 36 41 41 41 39 31 22 29 31 31 22 11 11 17 16 24 38 52 52 45 43 44 53 46 40
50 51 49 47 42 42 33 35 37 34 29 31 30 28 19 20 20 18 17 21 22 26 31 36 40 37 32 31 20 22 30 26 22 19 12 12 17 14 25 48 54 52 48 50 47 39 49
55 59 51 52 46 43 37 28 38 34 29 33 33 28 18 17 19 17 16 19 21 20 26 31 34 34 32 26 24 10 31 34 28 25 20 14 8 8 19 41 54 56 47 52 52 42 45
64 63 62 53 52 44 40 29 35 33 31 33 33 27 19 14 17 15 15 17 18 18 21 27 29 32 30 24 19 14 16 32 30 24 22 24 18 13 17 24 39 51 50 46 46 48 43
79 77 76 62 55 48 40 34 34 39 34 34 34 35 20 13 15 14 15 15 15 17 18 22 25 27 25 24 18 12 6 17 31 25 25 25 28 27 25 26 27 30 39 50 47 46 45
50 54 68 75 58 52 45 34 34 29 46 35 37 33 22 15 13 12 14 12 13 14 15 18 22 25 25 22 20 13 6 4 12 23 30 29 29 31 30 32 33 34 32 41 45 55 48
45 48 44 55 61 56 48 37 42 39 31 32 35 32 26 19 12 11 13 10 12 13 14 15 19 22 24 23 18 13 8 8 9 16 24 28 29 29 25 27 28 29 33 36 30 38 49
54 60 47 49 57 59 54 47 35 39 40 37 32 34 29 22 12 13 11 9 10 12 13 15 17 20 23 25 22 14 14 14 15 14 27 32 33 34 27 24 25 24 29 35 36 28 39
65 63 57 47 59 62 58 55 41 45 28 31 35 34 28 24 15 14 9 9 7 10 11 14 17 18 21 23 24 22 19 15 16 19 23 36 34 35 31 27 27 28 27 31 35 39 34
65 56 64 62 67 67 60 55 42 44 31 34 35 37 26 24 17 15 9 8 6 8 10 13 14 18 19 22 24 21 21 20 17 21 25 28 34 42 38 34 29 29 31 31 33 34 39
65 61 48 57 76 71 62 56 44 42 38 31 38 34 25 25 19 16 10 8 4 5 8 12 13 17 21 23 28 30 29 28 22 22 26 26 31 35 40 36 33 30 27 27 28 32 36
73 46 36 61 80 74 65 52 55 42 40 38 37 36 28 29 20 17 11 8 5 4 9 11 13 14 19 24 28 31 32 31 31 22 24 23 28 35 38 40 36 34 33 32 27 29 27
56 37 37 76 83 75 66 54 51 43 34 32 28 30 28 29 23 18 11 7 5 5 8 11 12 14 18 22 27 32 34 34 33 28 20 20 21 25 31 39 41 37 32 28 28 28 28
45 32 49 87 84 75 66 50 49 46 41 32 34 33 29 29 23 19 12 7 6 6 7 9 10 14 17 22 24 30 34 35 40 30 25 17 18 19 23 30 35 34 35 34 34 31 30
32 30 68 88 81 74 68 53 50 41 38 36 36 32 28 30 25 19 13 8 7 6 7 9 10 12 15 21 25 28 34 36 38 39 30 24 20 30 19 26 30 38 28 30 31 37 30
24 41 82 86 77 67 59 55 49 47 38 38 35 31 27 32 26 21 14 10 7 6 6 8 10 12 13 17 22 27 33 39 45 44 32 29 14 33 30 27 27 17 29 36 32 33 32
23 50 79 83 75 67 54 52 46 45 42 34 32 32 29 29 29 22 15 11 6 6 7 9 10 13 14 18 21 27 33 39 44 48 41 29 23 14 40 26 34 32 24 24 22 31 27
38 63 85 80 72 64 59 55 54 48 36 33 30 35 28 34 25 21 16 12 8 6 6 8 10 13 15 19 21 26 32 38 44 49 46 29 23 10 32 30 13 22 31 32 28 25 30
54 80 83 80 68 69 56 49 46 44 39 28 32 33 25 32 27 20 17 15 8 6 6 8 10 12 15 18 21 25 31 37 44 48 44 28 17 4 16 30 25 15 21 30 31 32 31
73 83 83 80 61 59 52 47 40 39 33 32 32 29 28 30 28 21 17 13 8 6 6 6 9 10 14 18 21 24 30 36 41 45 43 25 14 6 12 17 14 7 12 21 22 25 32
79 78 72 65 61 60 49 39 42 41 38 42 34 23 32 32 27 20 16 12 8 6 7 7 9 11 15 18 19 23 29 33 39 43 40 25 11 5 14 22 13 12 14 13 16 23 20
79 80 74 73 65 60 55 47 46 40 40 39 37 27 37 33 27 21 16 11 6 5 6 7 8 10 14 17 19 24 28 32 37 40 36 23 10 10 10 20 30 18 7 12 16 19 19
83 77 66 70 60 51 50 47 44 49 42 38 30 29 36 31 27 22 15 10 5 4 4 5 7 10 13 17 20 23 28 32 35 38 35 26 16 11 11 12 17 24 21 16 13 15 18
84 82 70 68 59 53 49 51 47 44 36 30 27 28 39 32 25 19 13 9 7 3 2 4 8 11 15 17 20 22 27 31 34 35 34 23 23 14 7 11 15 17 18 21 25 20 18

GFSGBSN_500_spd_099.txt.gz
Wind_Speed
47 48 49 47 45 46 44 44 39 34 35 33 34 33 33 33 31 28 30 28 29 33 40 47 55 61 62 45 17 30 21 17 12 12 11 33 44 62 68 57 40 67 38 51 54 62 61
48 50 50 50 50 46 43 44 39 32 34 34 35 33 34 31 30 26 27 25 27 31 38 43 50 56 55 33 28 23 19 13 14 9 15 35 48 59 62 35 36 43 60 49 54 58 59
48 49 51 48 47 47 44 42 39 30 28 35 34 32 33 31 27 25 23 21 24 28 35 40 44 51 46 26 36 21 18 14 13 12 19 35 46 57 57 41 41 29 38 51 52 55 54
55 53 50 44 40 41 43 44 38 35 28 33 34 31 30 30 24 23 20 19 23 25 31 37 39 45 34 28 18 15 22 16 18 10 14 27 37 49 50 39 23 35 35 53 55 51 58
56 56 52 43 42 41 42 45 38 35 28 33 36 32 30 32 22 21 18 16 20 21 27 32 35 36 26 16 19 20 17 22 20 15 7 22 27 34 44 47 28 37 31 50 58 46 58
58 58 57 52 45 43 47 43 43 33 41 34 33 36 33 32 24 19 17 14 17 17 23 27 31 31 29 8 12 11 15 19 22 22 12 8 19 28 38 50 39 35 38 28 44 54 50
57 57 51 53 54 53 47 47 45 36 37 34 34 34 37 33 22 16 16 13 15 14 18 22 26 28 25 23 8 13 14 19 12 14 17 16 12 18 32 47 53 46 42 35 21 57 53
59 54 55 54 56 61 60 52 47 43 40 36 34 32 39 31 19 13 14 12 14 13 13 18 22 25 24 19 18 4 19 18 17 12 15 15 12 15 21 37 51 60 49 42 35 31 53
65 65 67 64 76 69 64 59 52 44 38 33 36 34 34 29 19 14 12 11 12 10 10 14 18 23 21 22 15 13 1 24 23 19 18 19 18 16 19 23 46 56 56 52 44 37 54
71 68 67 76 60 52 53 55 55 48 42 50 31 29 34 34 24 16 12 10 11 9 8 11 14 17 20 20 16 11 5 8 28 28 27 25 23 17 16 17 26 39 51 52 50 46 46
72 71 78 60 43 36 41 46 54 51 46 46 31 28 40 35 28 20 13 12 10 9 8 10 11 13 18 19 19 16 9 5 12 31 36 35 36 34 30 26 21 24 42 48 49 54 56
74 79 58 38 38 34 37 40 54 55 46 45 34 28 39 38 31 21 17 13 11 10 6 7 10 12 16 19 21 18 12 9 10 17 28 39 38 36 37 34 32 31 31 36 39 45 57
79 61 44 40 42 41 40 39 58 59 47 52 30 24 34 30 32 22 20 15 12 12 7 6 8 11 14 17 20 19 18 13 11 14 21 29 32 35 38 38 37 37 38 37 36 33 41
70 55 51 47 43 43 42 43 63 58 50 38 34 30 31 32 32 23 24 16 14 12 9 8 7 9 13 16 20 24 24 20 18 18 20 25 30 35 34 36 33 26 28 32 34 34 37
62 55 43 42 42 37 38 47 67 62 62 33 43 31 37 34 30 23 25 18 15 13 10 8 9 8 11 15 18 21 24 25 25 25 24 22 28 33 37 35 36 32 31 27 18 32 35
58 54 52 45 48 41 49 56 68 68 60 39 27 35 37 35 27 25 26 20 16 13 10 8 10 10 10 14 18 21 25 28 29 31 30 23 20 32 35 41 41 35 31 31 36 34 27
59 56 53 50 52 36 53 67 65 66 59 36 39 38 35 30 25 27 24 20 17 13 10 7 8 10 11 12 17 21 26 31 33 35 30 29 23 22 30 32 34 39 36 33 32 34 34
62 61 42 48 38 32 57 75 66 67 59 45 40 32 37 34 23 26 24 22 17 14 10 7 7 10 12 12 16 20 25 32 36 39 32 32 26 19 24 30 32 35 30 29 32 28 27
62 50 34 40 34 39 73 77 75 65 58 43 40 38 41 32 22 26 25 22 17 14 9 7 8 9 12 13 16 20 24 30 36 39 34 34 25 15 16 20 31 36 40 34 35 34 29
65 38 31 25 25 57 81 80 69 64 50 45 38 37 36 26 21 23 26 21 16 13 8 8 8 9 9 12 16 19 23 28 35 41 42 32 27 12 19 14 27 27 31 37 36 33 29
60 15 9 3 31 71 77 75 69 55 49 48 44 32 32 23 22 24 27 21 16 11 8 8 9 9 9 10 15 18 22 29 35 41 44 35 30 18 21 19 30 28 27 33 31 29 35
42 10 13 5 38 74 76 73 71 50 51 44 36 33 27 27 27 28 27 21 16 11 9 7 8 8 9 11 14 17 20 27 34 41 46 43 31 24 14 37 22 24 21 16 36 25 28
27 7 12 12 50 75 74 66 57 57 46 42 35 38 29 25 22 27 26 23 17 11 8 7 8 7 7 9 12 15 20 26 33 38 44 48 41 24 12 27 32 23 27 26 19 16 24
18 14 27 38 68 77 69 64 56 48 43 37 36 36 33 25 25 26 26 23 17 12 9 8 8 7 6 9 12 14 19 25 30 37 43 47 39 21 13 12 27 24 17 24 26 23 23
11 23 44 66 79 73 66 56 54 46 37 35 33 35 25 27 27 28 29 23 17 12 10 9 8 7 7 10 12 14 18 23 29 36 40 44 34 19 10 11 25 23 17 16 17 26 31
16 35 61 79 74 71 66 47 48 41 41 37 34 25 23 25 30 29 27 23 17 13 11 9 8 6 7 10 12 15 17 21 28 35 39 42 36 18 13 7 22 22 20 19 19 23 26
32 55 75 72 63 61 48 54 47 39 40 39 32 21 19 27 31 32 25 22 17 13 11 10 7 5 7 10 12 13 16 19 26 32 36 38 35 20 12 12 11 24 16 15 15 17 23
51 72 73 72 68 52 48 48 48 45 42 33 28 23 15 31 34 30 26 21 16 13 10 8 6 5 6 9 12 13 15 19 23 28 34 37 36 26 15 10 11 13 22 22 18 14 17
68 78 72 73 60 63 55 45 46 44 40 33 23 19 15 35 34 29 25 20 15 13 10 7 6 5 6 9 12 12 15 17 21 26 31 32 35 30 22 16 12 14 14 20 25 25 21

GFSGBSN_500_spd_102.txt.gz
Wind_Speed
48 41 42 42 42 41 41 39 36 37 40 39 36 36 37 38 37 34 33 24 25 23 26 32 37 45 49 47 25 15 16 21 7 11 5 16 22 39 54 58 56 28 44 46 27 53 48
49 45 43 41 41 44 40 41 36 36 38 38 34 34 36 37 37 36 33 20 21 20 23 30 33 42 43 35 23 17 19 23 20 11 8 12 19 39 51 56 59 10 36 59 30 49 55
53 49 46 45 44 45 42 41 39 37 40 39 36 31 35 36 36 36 30 18 17 18 20 26 30 37 38 35 23 18 17 21 20 9 7 17 20 31 48 50 55 25 40 62 40 48 49
53 52 51 47 45 46 42 40 38 34 37 40 40 31 32 34 37 38 25 17 14 16 17 22 26 31 31 31 22 16 15 24 21 17 7 13 19 29 48 59 20 31 47 33 51 49 49
55 55 56 52 49 47 44 43 41 35 37 37 39 38 29 32 36 42 27 16 12 14 14 19 22 24 25 24 21 13 14 21 19 17 10 1 14 33 43 54 22 19 24 33 52 50 55
56 57 55 52 50 52 46 44 44 46 38 38 39 45 41 24 35 39 36 16 11 11 12 15 17 20 23 20 18 15 8 17 18 18 7 5 15 28 41 42 32 23 29 34 35 51 47
57 58 58 56 52 53 50 49 49 52 46 42 40 45 37 22 38 36 33 15 11 10 10 12 13 16 17 22 19 8 10 8 11 12 7 20 19 30 25 36 32 32 25 45 36 55 50
65 69 62 59 56 51 50 50 51 54 52 51 49 46 41 32 32 33 25 17 10 10 8 10 11 13 14 19 18 15 8 9 6 10 4 7 21 26 28 30 34 37 31 26 26 48 38
73 68 64 57 57 55 57 64 60 60 57 56 53 51 44 35 31 31 22 18 11 10 8 8 10 11 13 16 16 14 7 7 17 15 16 15 11 12 25 32 36 38 37 33 27 41 56
72 65 60 59 58 68 63 57 53 52 45 49 54 51 46 32 32 29 29 19 13 11 8 8 9 9 11 13 14 16 12 9 4 20 19 18 17 18 19 19 22 30 37 40 37 30 39
69 62 62 62 73 57 44 40 34 33 28 44 56 49 46 31 35 29 27 22 18 12 8 9 8 7 10 12 14 14 12 13 8 7 29 25 27 27 24 21 21 20 24 38 49 51 51
65 62 63 72 63 45 38 31 31 32 29 47 51 48 39 28 35 34 29 23 22 14 9 9 9 7 9 12 14 16 15 14 14 11 9 25 38 38 39 40 37 34 32 28 37 40 53
66 66 70 64 49 44 39 36 35 37 34 45 48 45 36 17 38 33 27 25 22 15 13 12 10 8 9 11 14 18 19 18 17 17 13 17 24 33 39 45 41 41 40 35 29 32 45
68 72 69 54 47 42 35 35 35 40 45 39 48 46 35 27 39 36 27 23 23 17 15 14 12 9 8 9 13 18 22 24 26 27 25 19 21 27 31 38 45 43 38 38 35 34 33
72 76 63 52 48 46 38 36 37 39 46 38 51 45 42 31 37 28 28 22 24 19 16 15 12 10 9 9 12 17 21 25 29 33 33 30 21 22 28 32 35 36 34 32 33 34 36
75 75 62 58 49 47 43 40 38 42 46 40 54 47 32 34 35 27 25 19 25 20 17 14 12 10 9 8 10 15 19 24 30 35 38 34 27 22 23 31 30 34 34 34 30 27 23
80 70 64 55 50 39 34 35 44 46 42 47 56 49 30 28 36 26 23 17 26 21 17 14 11 9 8 7 9 13 18 22 29 36 40 38 36 23 19 16 26 33 36 35 32 32 32
81 69 62 64 30 29 29 30 37 51 44 58 56 54 33 28 37 25 20 18 25 21 17 13 10 8 7 5 8 13 17 22 28 35 41 41 41 29 17 19 22 27 27 30 38 33 27
76 69 68 55 28 30 38 39 38 49 51 57 56 59 33 34 35 26 20 20 26 21 17 13 10 8 6 5 6 11 16 21 27 35 40 43 38 35 17 14 25 29 30 29 29 29 33
71 64 60 24 25 19 29 33 42 53 51 57 60 55 40 33 33 26 20 22 27 22 16 12 8 7 5 6 8 11 15 19 25 32 39 44 36 35 21 12 19 28 29 32 32 32 29
66 59 38 12 19 28 9 26 55 54 58 62 58 42 26 32 29 25 19 23 25 20 15 11 8 5 5 6 9 11 14 19 24 30 38 43 42 36 29 16 19 20 23 30 29 39 28
63 58 43 15 6 7 5 48 60 63 63 65 54 36 28 31 29 22 20 23 25 19 14 10 6 4 4 4 8 10 13 17 22 29 36 41 44 42 28 21 20 17 25 23 23 28 28
59 59 45 14 6 11 34 55 54 59 61 53 41 33 31 26 30 28 21 24 25 20 13 9 5 4 4 4 7 10 12 16 21 27 33 39 45 46 32 21 7 20 20 22 24 21 28
56 56 34 18 26 37 29 45 61 63 57 46 39 35 28 29 30 22 22 24 25 19 12 9 5 4 3 4 8 10 12 15 19 25 31 36 42 45 38 22 2 19 24 17 19 19 16
55 51 12 28 25 39 50 59 59 52 45 41 38 32 27 27 25 23 24 24 23 18 13 8 5 4 3 4 7 9 11 14 17 23 28 34 38 41 37 21 11 14 20 18 14 14 17
53 47 11 32 43 47 48 55 52 49 43 38 36 35 28 24 27 25 25 24 22 16 12 8 5 4 4 4 6 9 12 13 17 22 26 32 36 36 33 21 15 13 19 25 24 17 20
49 42 14 39 55 61 57 56 50 40 39 37 33 29 26 26 28 27 25 23 21 15 12 8 6 5 5 5 6 9 11 13 16 19 24 30 34 35 33 23 17 18 16 23 18 20 18
42 37 16 54 62 62 60 54 44 45 41 34 28 24 27 32 27 26 27 24 20 16 12 9 8 7 6 5 7 10 12 13 14 18 23 27 31 34 34 28 19 18 14 12 21 18 19
36 32 32 62 61 60 57 46 39 37 38 34 26 24 20 28 27 29 28 26 22 16 13 11 10 9 7 6 7 10 11 13 15 17 21 25 27 30 33 30 27 17 14 18 18 21 28

GFSGBSN_500_spd_105.txt.gz
Wind_Speed
51 52 53 53 52 48 45 42 41 40 40 35 36 33 35 33 36 34 32 31 32 20 22 23 24 27 35 38 38 32 34 35 31 22 6 12 7 19 27 36 43 46 59 27 12 29 22
51 51 51 52 51 49 48 48 44 41 39 37 38 35 34 30 31 34 31 33 31 15 18 20 21 24 31 36 35 30 34 37 28 18 6 11 4 17 27 34 42 37 48 47 24 24 17
52 52 53 51 51 51 49 48 48 45 41 37 36 37 35 33 32 33 33 33 28 11 17 16 18 21 27 32 32 25 29 35 27 21 14 11 2 18 28 38 38 36 32 34 32 29 27
52 53 50 48 50 54 58 53 50 48 45 40 36 37 36 34 31 28 27 26 30 15 18 13 15 18 23 29 28 23 21 28 25 22 18 16 5 14 21 37 42 44 25 36 40 22 35
53 49 48 54 57 58 55 50 49 49 49 45 41 38 37 35 34 34 41 28 26 17 17 11 12 15 18 25 26 21 11 23 24 23 23 18 4 14 32 40 42 9 29 30 35 23 43
51 50 56 60 63 61 55 52 46 46 46 45 45 43 39 41 34 32 41 29 24 19 17 10 9 12 15 18 24 21 19 15 23 21 12 4 11 21 31 35 27 22 13 9 18 28 38
52 54 59 66 65 59 50 43 43 43 43 44 43 45 45 45 36 32 36 34 29 20 17 10 6 7 11 15 20 22 19 13 11 12 8 6 16 21 27 22 15 12 11 15 21 16 54
55 60 64 65 61 51 46 44 45 55 55 52 47 45 47 48 41 34 32 36 24 21 15 10 6 4 8 10 15 19 20 11 4 5 3 2 12 14 25 24 24 27 26 28 19 9 43
60 62 65 64 55 49 48 56 59 57 52 50 53 48 50 52 45 37 38 33 22 23 17 10 8 3 4 8 10 14 16 16 6 5 10 6 9 17 22 28 28 31 32 29 28 23 30
61 65 67 62 53 54 58 66 50 44 40 41 39 41 51 53 47 41 40 37 19 25 17 12 8 4 1 6 7 8 12 13 14 10 6 14 16 18 20 24 26 30 35 36 29 27 26
64 67 68 63 59 59 65 54 36 37 38 36 26 27 41 52 45 33 42 34 20 25 15 13 10 6 2 4 7 8 9 10 13 13 9 11 18 21 24 27 29 22 25 22 30 31 34
67 69 70 66 63 67 59 40 36 34 32 33 25 24 32 36 33 29 26 21 22 25 16 11 11 7 3 2 5 9 11 13 14 15 13 10 16 24 31 31 32 32 28 28 22 31 34
69 73 74 69 68 72 51 42 36 33 30 32 30 24 22 38 25 37 33 27 22 24 21 14 12 9 5 3 5 8 12 15 18 19 20 17 16 22 31 41 44 43 42 38 35 32 32
72 74 72 71 76 67 52 42 39 36 32 28 31 26 19 36 35 29 28 20 23 22 22 14 13 10 6 3 5 8 12 15 21 26 27 23 22 21 23 31 38 36 36 36 35 33 32
73 75 74 74 80 60 61 46 38 40 35 31 27 28 22 37 42 21 25 21 21 25 24 18 13 10 7 4 4 7 10 14 21 27 30 33 32 31 18 25 31 28 26 26 28 33 35
75 77 75 78 79 70 54 35 33 37 39 34 26 28 27 39 40 30 28 23 20 28 24 17 12 10 7 4 4 6 9 14 21 28 31 36 37 36 28 13 22 19 22 24 27 25 28
76 77 79 82 76 74 33 23 23 29 35 34 28 27 35 38 32 28 28 26 17 25 23 17 13 10 7 3 3 6 10 13 20 26 33 39 44 41 35 18 17 20 26 28 24 24 24
76 75 79 78 66 48 13 8 13 21 23 32 31 32 39 47 41 29 26 25 17 25 22 16 12 9 6 3 2 5 9 13 18 25 32 39 44 39 40 28 9 14 22 22 29 27 23
75 75 76 71 55 27 33 16 10 17 26 33 34 36 43 38 28 31 22 23 19 27 21 15 11 8 5 3 2 5 8 12 18 23 30 37 43 44 38 33 16 19 21 28 25 19 29
74 73 75 66 48 22 35 33 19 19 36 37 36 42 49 39 26 24 20 20 18 27 19 14 11 8 6 4 1 4 7 12 17 23 29 34 40 46 40 36 23 8 24 26 30 27 19
71 71 74 66 44 16 29 31 12 31 42 39 41 47 46 36 14 22 24 19 22 26 18 14 10 8 5 3 0 4 7 11 16 22 27 33 39 44 44 40 26 4 17 26 25 23 22
69 69 71 63 37 10 16 11 25 43 46 41 47 48 47 31 20 22 22 20 24 26 19 14 10 8 6 3 1 4 7 11 14 19 25 31 37 43 46 43 27 1 8 18 24 28 34
67 67 67 51 33 12 8 19 32 43 42 47 50 48 38 23 20 21 20 18 25 26 18 13 10 8 6 3 1 4 7 10 13 18 23 29 35 41 44 40 32 6 4 13 14 18 27
63 63 62 50 15 19 30 38 37 36 40 45 47 38 31 21 20 24 19 22 26 26 18 13 9 7 6 3 1 5 7 10 13 17 22 27 33 39 42 40 29 25 12 13 16 18 18
59 58 59 47 4 20 14 34 42 43 43 41 40 35 23 18 24 26 19 26 25 24 17 13 9 8 6 4 2 5 7 9 11 15 20 26 31 35 39 38 36 30 21 14 19 18 13
58 51 53 47 13 25 26 39 47 48 45 40 33 27 22 22 24 24 23 25 21 21 16 12 9 8 7 4 2 5 7 9 11 14 19 23 27 32 37 35 31 30 19 15 16 19 20
55 46 49 45 7 16 38 48 47 41 42 39 33 27 21 24 24 23 23 26 20 18 15 12 8 8 7 3 3 5 8 9 10 13 17 21 26 30 32 34 33 34 28 16 11 10 16
54 42 41 40 8 21 43 38 40 41 40 31 29 24 23 21 24 22 24 25 20 18 14 11 9 7 6 4 3 6 8 9 10 13 16 20 24 26 30 32 29 33 32 24 20 14 18
57 38 30 29 17 31 42 42 39 36 34 32 28 22 23 22 22 21 22 24 22 18 14 11 10 9 7 4 5 6 9 10 11 13 16 18 22 24 27 29 32 32 32 30 26 22 18

GFSGBSN_500_spd_108.txt.gz
Wind_Speed
48 51 51 51 49 49 47 43 44 47 50 52 48 43 42 37 31 33 35 31 25 25 28 23 21 20 20 26 34 36 34 35 26 22 22 14 9 5 5 16 28 35 48 38 21 14 26
52 53 52 51 48 47 45 46 51 55 57 56 52 46 43 41 36 35 32 32 26 30 29 16 16 18 18 24 30 31 29 32 20 19 23 22 10 4 5 13 24 28 43 39 24 16 13
52 54 53 51 48 45 49 52 57 60 60 58 52 48 44 42 40 36 30 28 27 29 25 18 14 15 16 21 28 30 22 30 20 21 24 21 22 10 1 9 21 29 39 39 9 9 8
54 55 53 51 47 47 51 56 60 61 60 53 48 46 44 41 42 38 35 23 30 29 18 19 15 12 13 18 25 26 17 21 27 23 24 24 16 12 5 10 21 26 37 30 11 4 11
58 57 53 50 50 51 52 57 60 57 50 45 41 41 42 40 39 41 36 28 29 33 24 18 14 9 9 13 21 21 12 14 22 21 18 14 11 10 13 16 17 20 18 25 25 21 23
58 58 55 52 51 52 57 58 56 47 46 43 38 35 37 38 40 42 36 32 28 33 25 20 14 8 4 8 17 18 9 11 13 17 14 8 8 13 18 24 24 15 14 11 6 28 20
62 64 60 57 54 55 58 58 51 45 42 47 51 47 45 37 42 41 36 32 31 30 16 20 14 7 2 4 11 15 9 6 7 6 12 13 4 4 13 9 7 9 11 13 4 6 25
64 63 61 57 55 60 61 58 49 44 56 56 50 45 45 42 44 43 35 32 30 29 29 22 15 8 3 2 6 12 13 4 5 7 3 4 3 7 9 9 10 15 14 15 7 13 17
65 64 61 58 59 64 63 55 50 53 54 47 37 28 31 32 46 45 36 34 30 30 21 19 15 10 4 2 4 6 13 13 3 7 10 5 10 10 12 17 18 20 23 20 21 19 17
65 64 60 60 65 67 60 55 55 57 47 35 31 25 32 31 36 44 39 33 34 31 21 19 16 12 7 3 4 5 7 12 16 10 5 13 19 19 20 18 22 25 29 32 29 25 17
65 62 61 62 69 68 64 60 63 51 36 32 32 28 27 27 29 42 38 35 33 27 17 18 17 15 10 5 3 6 9 11 13 14 14 10 11 15 26 27 28 27 31 33 30 24 21
64 62 63 67 71 73 67 67 62 38 42 39 33 27 19 15 22 37 35 30 28 24 19 16 18 16 11 8 4 4 6 12 15 15 16 16 13 11 19 28 32 33 31 32 33 28 23
63 63 66 71 75 75 70 72 63 53 39 36 26 24 16 12 18 32 31 28 24 17 26 20 19 16 12 9 5 3 5 10 15 17 20 22 19 17 16 25 32 29 36 35 35 34 26
65 65 69 74 77 75 75 72 56 27 20 23 18 17 17 12 22 32 31 30 22 17 29 21 19 16 12 9 6 2 5 10 15 18 22 27 28 30 24 14 28 25 26 27 29 35 31
67 68 72 77 78 77 78 66 31 8 11 15 15 15 18 16 35 33 27 29 19 19 30 23 20 16 12 9 5 2 5 10 14 19 24 30 33 39 32 19 19 16 16 21 21 26 30
66 69 74 77 76 76 62 45 12 5 11 10 14 16 22 18 39 30 23 25 20 22 30 23 18 15 12 10 6 3 4 8 13 19 24 29 36 41 38 29 13 13 16 18 20 18 18
67 71 75 76 74 71 48 34 9 7 10 12 17 21 27 23 38 31 25 21 22 20 31 24 19 15 12 10 7 4 5 7 12 18 24 30 37 40 42 37 17 12 16 22 13 24 19
68 72 76 75 73 64 35 30 17 5 12 15 19 26 27 26 36 35 27 15 22 21 28 22 18 15 12 11 8 5 5 7 12 18 24 31 35 38 41 39 26 9 17 27 25 20 19
68 71 74 74 73 63 24 23 26 1 16 20 25 33 26 31 28 30 21 19 23 22 26 22 17 15 13 11 8 5 4 6 10 17 23 30 36 41 43 40 32 11 10 19 19 27 20
68 72 74 73 74 57 19 20 23 12 20 22 28 32 29 31 32 26 17 25 23 23 24 20 17 16 14 12 8 4 3 5 9 15 21 27 34 40 45 43 37 20 5 18 24 18 13
67 69 72 71 72 52 21 20 18 25 28 29 28 29 33 30 27 19 20 23 21 19 22 19 18 16 14 12 8 5 2 4 8 14 20 26 33 39 43 47 40 31 9 7 25 26 21
65 69 69 68 68 52 28 17 3 34 34 32 32 36 33 30 21 18 23 20 20 25 22 19 17 16 14 11 7 4 3 4 8 12 18 24 29 36 40 46 43 32 14 3 10 19 18
63 66 65 64 64 50 17 5 25 36 34 36 37 38 36 29 19 17 22 21 23 26 22 19 17 16 14 11 6 3 3 4 7 11 17 22 27 33 39 41 42 33 20 3 7 14 20
60 65 62 59 58 44 11 20 36 31 32 40 42 39 36 22 15 21 23 20 22 26 23 19 17 16 13 10 6 3 3 5 7 11 16 21 25 29 35 37 36 37 28 18 7 15 17
59 61 60 53 54 39 10 21 25 30 34 36 39 32 24 14 18 25 21 25 24 28 22 19 15 14 12 9 5 2 3 5 7 10 15 20 24 27 32 35 38 35 32 24 16 12 20
55 55 61 54 49 29 5 12 30 34 35 33 29 24 12 16 24 21 20 25 24 27 23 18 15 14 12 9 5 1 3 5 7 9 13 17 22 26 28 32 33 34 36 31 27 14 14
50 51 57 55 36 15 14 25 26 30 34 35 33 25 15 13 23 20 20 20 22 24 22 18 14 12 11 8 4 1 3 4 7 9 12 15 20 23 26 30 32 33 33 35 31 30 13
43 46 52 52 11 23 26 27 27 28 31 31 25 16 15 17 20 18 18 24 25 20 20 17 13 11 11 8 3 0 3 5 7 9 11 15 18 20 24 28 30 31 32 33 33 34 18
37 40 43 45 13 20 30 30 30 28 24 25 20 14 15 18 20 18 21 25 24 21 19 17 14 11 11 8 4 1 4 5 7 8 11 13 17 19 21 24 28 31 30 30 33 36 36

GFSGBSN_500_spd_111.txt.gz
Wind_Speed
49 48 47 49 51 49 49 46 43 44 46 48 51 53 53 53 50 49 47 44 42 32 25 25 27 25 23 21 26 26 27 24 24 24 20 13 8 12 6 7 10 11 17 19 21 32 19
51 50 49 49 50 48 47 45 44 46 46 50 52 55 53 50 47 46 44 42 39 34 29 29 24 18 20 20 23 23 21 18 24 22 13 14 11 9 6 7 10 14 18 24 30 22 11
51 50 52 52 51 50 46 45 47 49 49 54 55 52 45 44 43 41 40 40 37 31 26 28 24 17 17 18 20 19 15 12 20 22 17 19 14 15 7 3 13 15 22 25 11 10 13
55 54 57 56 53 48 49 49 49 50 53 55 54 50 42 39 37 38 38 38 35 30 29 30 25 13 16 15 17 17 12 9 16 22 18 20 15 12 6 8 9 17 21 16 5 5 6
56 57 58 57 54 53 51 50 50 52 54 54 50 47 38 37 36 36 37 37 33 31 31 27 22 13 16 14 14 16 10 8 11 15 18 19 16 12 8 6 13 19 15 18 11 14 14
56 60 62 60 57 55 56 53 54 55 57 54 46 40 40 42 39 38 36 33 33 34 31 25 22 15 14 11 11 14 10 8 9 13 13 15 17 13 10 14 16 17 2 5 6 13 17
59 64 63 62 58 58 58 57 59 61 60 51 42 42 50 49 45 47 39 31 32 33 28 23 13 15 13 9 7 11 11 6 7 7 9 9 8 7 7 11 10 5 11 2 7 8 12
61 64 64 63 63 61 61 62 64 63 58 50 42 50 47 35 29 36 44 35 30 29 25 25 19 15 13 9 2 6 9 10 7 6 6 5 4 2 3 11 12 14 14 8 9 9 12
64 66 66 65 65 64 65 67 68 63 59 51 47 46 35 25 20 20 35 36 29 28 23 24 13 16 14 8 3 1 6 9 11 9 8 6 10 10 11 13 15 16 20 19 16 13 13
65 66 66 67 67 68 70 71 69 66 63 57 45 34 26 23 19 20 24 35 30 27 24 19 17 17 15 9 6 3 3 9 11 12 12 12 9 11 20 23 25 25 26 28 23 21 17
65 68 69 68 69 72 74 74 72 72 63 48 33 29 25 22 20 17 23 33 28 25 20 16 21 20 17 11 8 6 5 7 10 12 14 10 11 11 15 20 28 31 28 28 25 22 22
68 70 70 69 71 75 76 75 77 69 51 21 16 21 21 18 17 18 24 26 26 22 18 14 20 20 18 12 9 6 5 8 11 13 15 17 17 14 14 19 27 25 29 32 30 24 21
70 72 72 71 74 78 78 77 73 50 14 1 2 12 18 19 16 19 22 25 23 20 17 19 22 22 19 13 9 6 4 8 11 16 20 24 24 26 22 19 26 22 20 20 29 30 25
72 74 73 73 77 79 77 77 56 25 4 1 6 17 22 22 14 23 28 25 20 23 18 25 25 23 18 14 11 7 5 8 13 17 22 28 29 32 30 25 20 16 10 14 12 15 23
74 74 74 77 80 77 75 62 39 16 4 10 15 19 22 18 15 33 32 28 24 20 29 26 25 23 18 14 11 7 5 6 12 17 22 29 33 37 36 32 20 15 10 16 20 17 19
73 75 75 79 80 74 72 47 35 10 6 16 14 19 22 22 28 29 32 28 23 20 33 26 24 22 17 14 12 9 6 6 10 15 22 28 36 41 41 39 29 11 11 13 16 13 7
72 74 77 80 79 74 63 32 23 2 9 21 17 22 22 19 27 32 24 28 18 22 32 28 24 20 17 15 12 8 7 6 10 15 21 27 35 41 43 44 37 13 12 18 10 15 9
70 73 76 80 78 75 51 21 18 5 17 25 28 19 17 17 28 30 28 24 23 26 30 25 22 19 16 14 12 9 6 7 11 16 21 27 33 38 43 45 40 25 1 19 21 7 18
68 71 75 79 77 70 48 21 14 14 22 28 26 25 23 25 28 30 26 26 23 22 30 23 20 18 16 15 11 9 6 7 11 15 21 25 32 39 44 46 43 31 10 16 24 13 8
64 68 75 79 77 62 43 13 8 20 26 33 26 26 25 28 25 25 15 23 23 24 27 22 20 18 16 14 11 9 6 6 9 14 19 24 29 35 41 44 45 33 16 10 21 22 16
61 64 73 75 73 54 31 11 18 26 28 30 27 27 30 29 25 21 16 23 25 26 24 20 18 17 16 14 9 8 5 5 7 13 17 23 27 32 37 42 44 39 25 4 15 19 17
58 61 68 70 64 52 32 17 33 30 28 30 29 32 28 27 23 15 21 17 24 27 22 19 18 17 16 13 9 8 6 4 7 11 16 21 25 29 33 40 42 40 34 15 12 18 19
54 59 63 63 49 43 30 29 28 24 28 29 32 31 26 22 15 22 23 20 24 25 21 19 17 16 15 12 9 7 5 4 6 10 14 19 23 27 31 36 39 36 38 28 16 3 21
49 55 57 57 38 29 25 28 23 23 25 30 29 26 18 12 17 21 20 19 24 24 21 19 18 16 15 12 9 7 5 4 5 8 12 17 21 25 28 32 36 36 36 32 28 19 7
44 50 52 49 39 17 17 19 22 28 25 22 20 15 10 7 13 19 18 21 26 23 21 19 18 16 15 11 8 6 4 4 5 7 11 15 19 23 26 28 32 35 35 35 33 31 19
39 43 43 40 27 12 17 17 26 24 20 19 15 8 0 1 12 13 17 23 25 22 20 19 16 16 14 11 8 5 2 2 4 7 10 14 17 21 25 26 31 32 33 35 37 33 33
33 36 38 32 16 8 14 15 19 19 15 8 4 4 5 6 10 9 12 20 23 21 19 18 16 15 13 10 7 4 1 1 3 5 9 12 16 19 22 25 27 30 29 33 34 34 37
32 28 32 23 6 6 9 15 14 13 13 12 7 3 3 8 12 12 16 18 21 20 19 17 15 14 13 10 7 4 0 1 3 5 8 11 15 17 20 23 25 28 27 27 30 31 34
31 24 27 26 14 13 16 18 19 19 19 18 13 8 8 9 14 16 18 21 22 20 20 16 15 14 14 11 7 4 1 1 2 4 7 10 13 16 18 21 24 26 26 27 28 32 32

GFSGBSN_500_spd_114.txt.gz
Wind_Speed
47 48 49 48 49 52 53 51 46 46 45 46 49 50 52 49 48 50 46 44 39 37 36 35 28 30 28 30 26 22 21 19 18 18 26 26 23 17 16 12 11 7 6 4 7 11 20
48 49 50 51 52 53 51 47 47 47 47 49 52 52 50 49 47 46 43 42 34 33 32 30 26 29 29 27 23 18 18 17 15 14 22 26 18 11 10 11 8 7 6 9 11 12 10
48 48 52 53 54 55 53 48 46 50 50 52 52 52 50 48 46 42 40 39 32 28 29 26 24 26 29 25 20 15 14 15 11 13 20 22 18 11 6 2 5 7 9 7 10 15 14
49 51 53 54 58 58 56 53 52 51 51 51 51 51 49 48 41 40 37 37 32 26 25 25 24 25 27 17 16 14 11 12 8 11 18 20 16 10 10 4 5 4 7 5 2 13 13
52 53 56 58 59 61 59 58 58 56 56 55 54 51 50 39 39 40 33 34 28 24 23 24 22 24 21 15 14 12 10 9 6 10 12 16 11 10 7 2 8 9 2 9 17 16 15
54 57 59 60 63 64 63 62 61 61 60 59 57 48 41 41 41 34 33 37 32 23 22 22 19 22 13 14 11 9 10 7 7 8 10 11 7 9 9 8 9 6 4 11 11 13 14
56 59 61 63 66 66 63 64 65 64 63 59 54 45 40 37 37 39 41 39 37 25 22 20 16 22 14 12 8 5 8 10 5 5 5 5 4 7 1 4 5 5 10 10 2 7 8
61 62 65 67 69 69 67 70 69 69 67 60 53 48 42 36 39 37 31 29 34 30 23 18 18 22 13 12 6 2 7 10 10 8 6 7 7 7 6 6 11 14 13 14 11 4 7
64 67 71 74 74 73 71 73 72 71 67 63 49 38 34 33 32 25 18 20 31 30 20 17 21 14 16 11 5 1 7 7 9 11 12 11 10 12 15 16 17 20 19 16 17 15 13
65 70 76 77 79 77 76 75 74 71 60 45 36 21 18 25 21 17 14 16 28 26 21 18 18 13 16 11 6 3 6 7 10 11 10 14 15 15 15 18 21 23 26 22 21 19 17
66 73 78 80 80 79 77 76 74 61 43 27 3 3 5 13 18 18 15 16 24 23 22 21 16 17 18 13 10 7 7 8 9 10 14 15 19 18 18 23 24 22 25 26 22 17 14
69 75 79 81 81 80 75 77 63 42 22 10 4 10 12 20 21 18 17 24 25 22 17 16 17 20 20 15 12 10 7 8 10 16 20 23 24 23 23 23 24 28 21 23 24 18 16
69 76 79 81 83 79 75 69 46 30 12 8 7 9 19 25 21 18 24 30 26 22 20 15 23 23 21 17 13 9 8 9 13 17 24 27 28 29 30 25 22 25 14 9 7 14 17
70 76 79 82 84 80 76 54 36 16 12 11 7 16 24 25 20 24 37 33 27 22 18 18 23 23 20 16 12 8 8 10 16 20 24 31 34 36 42 33 19 16 2 10 1 6 6
73 76 79 83 86 78 67 49 23 13 17 18 13 20 26 23 25 39 39 34 27 23 19 23 25 22 18 15 11 9 8 11 16 19 25 33 34 40 45 40 28 8 11 15 11 15 15
71 76 78 84 86 79 62 33 13 19 17 15 24 28 22 24 35 36 36 32 27 22 23 25 24 21 17 14 11 9 8 11 15 19 24 31 38 42 45 47 36 9 8 13 14 11 3
69 73 78 84 85 80 51 22 19 22 20 28 29 26 31 30 35 34 35 27 24 26 28 26 23 19 16 13 10 8 8 10 14 18 23 27 37 41 45 53 41 13 12 12 9 14 10
66 68 75 82 83 75 44 15 23 24 27 29 24 23 28 29 29 32 32 21 24 31 27 24 22 19 15 12 11 9 9 9 14 18 23 27 34 39 44 49 47 31 6 14 10 13 11
62 65 71 78 80 66 40 19 26 28 25 26 21 26 30 34 32 31 27 19 27 31 26 23 20 17 15 13 11 10 8 9 14 18 22 26 33 38 43 46 47 39 17 18 15 13 14
58 61 66 74 69 53 31 28 28 20 22 25 26 27 32 35 31 25 21 22 26 28 25 21 18 16 14 13 11 9 7 9 12 16 20 25 30 35 39 43 47 44 31 9 14 8 7
55 58 61 65 58 42 29 27 29 25 21 25 30 31 30 29 20 20 21 22 24 25 21 19 16 14 13 11 9 8 6 7 10 14 18 23 28 32 37 41 43 47 39 20 5 18 13
50 51 56 55 46 37 32 21 28 29 32 32 32 31 23 16 16 17 19 20 26 25 21 18 15 14 13 10 8 7 6 6 9 13 17 22 26 30 33 38 41 40 42 35 20 2 11
46 47 49 47 36 27 24 22 25 35 38 33 24 18 15 12 14 17 16 22 25 23 20 17 16 14 12 9 8 7 5 5 8 12 16 20 24 28 31 35 37 38 37 38 35 27 15
41 40 42 42 29 22 20 22 26 31 31 23 18 13 10 8 12 10 14 19 23 21 18 16 14 13 11 8 7 6 4 4 7 10 13 17 20 24 27 30 34 35 36 35 34 35 34
36 34 36 35 24 26 22 22 21 23 18 14 13 10 7 4 6 6 10 16 18 18 15 14 13 12 11 8 6 5 3 3 5 9 11 14 17 20 24 27 30 31 34 34 35 35 34
32 33 29 27 12 12 9 10 11 8 7 10 10 5 2 3 6 6 9 14 17 15 13 12 11 11 11 8 6 4 3 2 3 6 9 12 14 17 20 23 27 30 30 31 33 32 34
31 28 23 20 7 1 7 3 3 2 2 4 4 2 1 6 8 9 13 16 18 14 11 10 10 11 11 10 7 4 3 1 1 4 7 10 12 14 17 20 23 28 30 29 32 32 30
34 25 23 14 11 13 10 10 11 9 7 7 5 1 3 7 10 11 15 19 20 16 14 12 11 12 13 12 9 6 4 2 1 2 5 7 10 12 15 18 19 25 27 28 29 29 27
34 30 23 21 9 13 20 22 18 19 19 16 13 11 9 8 12 14 15 21 21 20 20 16 14 13 14 14 11 9 6 4 3 1 3 5 8 10 12 15 19 22 25 27 27 26 26

GFSGBSN_500_spd_117.txt.gz
Wind_Speed
46 47 48 49 51 53 55 55 54 53 51 49 47 46 50 50 50 50 47 44 40 41 39 36 30 29 25 25 28 27 22 17 17 21 15 21 28 30 21 22 20 17 11 9 8 10 12
48 48 50 51 53 55 54 54 53 54 51 49 49 52 53 51 49 47 43 41 39 35 33 24 27 23 20 24 22 25 14 13 17 13 13 22 25 22 16 15 8 8 8 12 14 12 14
51 53 55 55 56 58 57 56 56 55 55 54 52 52 50 47 46 43 38 36 32 30 26 20 22 18 20 20 20 21 10 12 12 7 12 15 15 16 9 7 10 11 7 10 5 5 10
55 56 59 61 59 61 62 62 59 58 58 57 55 54 51 48 44 40 36 32 28 26 22 18 19 16 20 17 16 8 7 10 9 4 7 11 11 4 6 5 6 2 5 9 11 10 4
60 60 64 63 63 66 68 65 62 61 60 59 58 54 49 45 38 31 27 24 27 24 17 18 17 16 16 13 10 4 5 9 7 7 6 8 2 4 1 1 1 3 6 8 9 14 14
62 64 66 67 68 71 70 67 66 64 63 64 57 51 46 41 35 31 28 28 27 23 15 17 17 16 14 11 6 3 3 4 5 7 6 5 5 4 4 5 8 11 8 6 4 9 12
66 69 68 72 74 74 71 71 68 72 71 63 61 54 46 41 31 28 26 25 25 24 21 18 17 16 13 9 6 2 3 5 2 4 7 9 11 10 9 14 13 14 11 12 6 4 5
69 71 73 79 78 78 73 68 77 76 67 50 42 34 23 20 33 30 27 24 28 23 24 19 17 15 13 12 7 5 7 8 11 12 10 8 11 13 16 15 16 19 20 18 13 10 7
72 75 79 83 82 79 72 82 82 58 41 37 33 22 13 11 14 27 22 19 24 26 27 20 18 16 14 12 9 8 9 12 12 11 14 16 16 18 18 19 19 22 23 23 21 15 12
73 77 84 86 84 82 84 84 56 37 31 26 23 10 7 10 12 21 20 22 26 30 28 23 19 16 16 15 12 10 11 12 12 12 13 17 18 20 22 22 22 19 23 21 20 17 8
75 79 85 87 89 88 88 67 39 30 26 23 14 13 14 17 24 23 25 28 33 32 28 23 18 19 21 17 14 13 13 11 10 13 16 19 20 24 25 26 25 19 20 22 20 17 8
75 80 84 88 92 93 78 46 30 24 23 18 16 12 15 29 29 30 35 39 37 32 26 24 21 23 21 18 15 13 11 10 13 18 22 21 27 29 30 25 22 21 12 13 17 15 11
74 79 85 89 93 93 62 33 26 25 20 13 14 22 32 33 32 35 41 41 35 32 24 25 25 27 22 19 16 14 12 11 15 18 26 30 34 38 37 27 18 10 3 7 5 11 15
72 78 84 91 98 85 49 27 26 27 25 25 27 32 34 34 39 43 35 36 32 30 26 29 28 26 22 19 16 13 11 13 16 21 29 35 40 42 45 34 15 7 17 16 9 8 12
70 77 83 91 90 76 33 27 29 28 27 26 27 33 33 42 40 28 34 34 31 28 30 32 30 27 21 18 15 12 12 14 19 24 31 37 40 45 48 38 16 12 11 10 17 19 13
66 73 82 88 85 66 32 29 32 32 29 28 25 26 36 42 32 38 33 32 29 27 26 28 28 24 19 16 14 12 12 16 21 25 30 36 41 46 51 44 22 14 14 11 13 19 18
63 70 77 83 79 54 33 29 29 30 25 24 23 27 42 34 36 35 30 30 25 31 31 26 23 21 17 14 12 13 14 18 19 24 29 35 40 45 52 54 30 18 14 11 10 11 10
59 65 70 76 69 44 36 27 26 28 28 34 33 36 36 35 30 26 26 25 27 28 28 24 22 18 16 13 13 14 14 16 19 24 28 32 38 42 49 57 42 19 17 16 20 23 14
53 58 64 66 60 43 39 31 28 34 40 45 39 34 31 30 27 21 22 24 30 27 25 22 18 16 14 13 12 12 13 14 17 23 27 32 36 42 45 47 49 28 15 14 15 12 11
48 53 57 58 50 37 36 33 33 40 44 41 34 27 26 24 19 21 23 28 25 24 21 18 14 13 11 11 10 10 11 12 15 19 25 30 33 38 41 43 44 40 28 9 8 10 9
42 48 49 49 44 30 30 30 31 34 37 37 34 27 20 16 16 20 24 27 23 20 17 15 12 11 10 9 8 8 8 9 13 17 22 26 29 34 37 40 42 40 37 29 6 6 6
37 41 41 40 38 23 26 31 29 27 33 30 25 24 16 15 16 17 21 20 20 17 13 12 10 10 8 7 6 6 6 7 11 14 19 23 26 29 33 35 39 40 39 37 31 22 17
33 35 33 26 28 19 26 30 26 22 20 18 17 19 21 11 13 13 20 17 16 14 10 8 8 7 7 6 5 5 3 4 9 12 14 18 22 25 28 32 33 36 36 34 35 35 35
30 30 27 18 16 17 19 17 18 17 14 11 11 11 15 13 13 12 17 14 11 10 8 7 7 6 5 4 3 3 2 3 6 9 11 13 17 21 25 27 30 31 33 35 33 32 34
25 26 21 11 9 11 10 11 13 17 14 12 7 6 6 10 13 13 15 14 11 9 8 7 6 5 5 3 2 2 1 1 3 6 8 10 13 16 21 24 25 28 29 30 33 34 33
22 21 20 13 3 5 6 4 9 12 8 12 11 9 4 3 8 13 17 17 15 12 9 9 8 7 7 5 4 3 2 1 1 3 5 7 8 13 17 20 23 25 27 27 27 29 33
21 21 17 17 13 9 11 15 11 10 11 10 12 7 9 9 10 12 17 19 18 16 13 12 12 10 10 10 8 7 5 4 4 2 2 4 6 8 12 15 19 23 25 25 28 28 28
19 22 19 16 17 14 12 17 21 18 16 14 16 17 13 11 11 15 17 21 23 22 19 17 16 13 12 13 12 11 9 8 7 6 3 2 4 6 7 10 14 18 22 24 26 27 28
22 23 25 18 16 18 18 17 19 26 24 23 22 23 21 19 17 16 18 20 24 27 26 22 19 19 15 15 15 14 13 11 10 9 8 6 4 5 6 7 10 14 18 22 24 26 26